[[{"header":{"parameterUnit":"m.s-1","parameterCategory":1,"la1":30.6,"la2":29.2853,"lo1":-89.7004,"lo2":-87.6739,"dy":0.0162,"dx":0.0183,"nx":112,"ny":82,"refTime":"2023-06-11T12:00:00:Z","depth":0,"parameterNumber":2,"parameterNumberName":"U-component_of_WINDS"},"data":[0.0,0.0,0.0,0.0,0.0,0.0,0.0,0.0,0.0,0.0,0.0,0.0,0.0,0.0,0.0,0.0,0.0,0.0,0.0,0.0,0.0,0.0,0.0,0.0,0.0,0.0,0.0,0.0,0.0,0.0,0.0,0.0,0.0,0.0,0.0,0.0,0.0,0.0,0.0,0.0,0.0,0.0,0.0,0.0,0.0,0.0,0.0,0.0,0.0,0.0,0.0,0.0,0.0,0.0,0.0,0.0,0.0,0.0,0.0,0.0,0.0,0.0,0.0,0.0,0.0,0.0,0.0,0.0,0.0,0.0,0.0,0.0,0.0,0.0,0.0,0.0,0.0,0.0,0.0,0.0,0.0,0.0,0.0,0.0,0.0,0.0,0.0,0.0,0.0,0.0,-5.1221,-5.7703,-6.6611,-7.1937,-7.1413,-6.9997,-6.5688,-5.7641,0.0,0.0,0.0,0.0,0.0,0.0,0.0,0.0,0.0,0.0,0.0,0.0,0.0,0.0,0.0,0.0,0.0,0.0,0.0,0.0,0.0,0.0,0.0,0.0,0.0,0.0,0.0,0.0,0.0,0.0,0.0,0.0,0.0,0.0,0.0,0.0,0.0,0.0,0.0,0.0,0.0,0.0,0.0,0.0,0.0,0.0,0.0,0.0,0.0,0.0,0.0,0.0,0.0,0.0,0.0,0.0,0.0,0.0,0.0,0.0,0.0,0.0,0.0,0.0,0.0,0.0,0.0,0.0,0.0,0.0,0.0,0.0,0.0,0.0,0.0,0.0,0.0,0.0,0.0,0.0,0.0,0.0,0.0,0.0,0.0,0.0,0.0,0.0,0.0,0.0,0.0,0.0,0.0,0.0,0.0,0.0,0.0,0.0,0.0,0.0,0.0,0.0,0.0,0.0,-5.3591,-6.4241,-6.9843,-7.3014,-7.3476,-6.8674,-6.3595,-5.8793,0.0,0.0,0.0,0.0,0.0,0.0,0.0,0.0,0.0,0.0,0.0,0.0,0.0,0.0,0.0,0.0,0.0,0.0,0.0,0.0,0.0,0.0,0.0,0.0,0.0,0.0,0.0,0.0,0.0,0.0,0.0,0.0,0.0,0.0,0.0,0.0,0.0,0.0,0.0,0.0,0.0,0.0,0.0,0.0,0.0,0.0,0.0,0.0,0.0,0.0,0.0,0.0,0.0,0.0,0.0,0.0,0.0,0.0,0.0,0.0,0.0,0.0,0.0,0.0,0.0,0.0,0.0,0.0,0.0,0.0,0.0,0.0,0.0,0.0,0.0,0.0,0.0,0.0,0.0,0.0,0.0,0.0,0.0,0.0,0.0,0.0,0.0,0.0,0.0,0.0,0.0,0.0,0.0,0.0,0.0,0.0,0.0,0.0,0.0,0.0,0.0,0.0,0.0,-5.2575,-5.8054,-6.7012,-7.0982,-7.3106,-7.3414,-6.9197,-6.4334,-5.9101,-5.6176,0.0,0.0,0.0,0.0,0.0,0.0,0.0,0.0,0.0,0.0,0.0,0.0,0.0,0.0,0.0,0.0,0.0,0.0,0.0,0.0,0.0,0.0,0.0,0.0,0.0,0.0,0.0,0.0,0.0,0.0,0.0,0.0,0.0,0.0,0.0,0.0,0.0,0.0,0.0,0.0,0.0,0.0,0.0,0.0,0.0,0.0,0.0,0.0,0.0,0.0,0.0,0.0,0.0,0.0,0.0,0.0,0.0,0.0,0.0,0.0,0.0,0.0,0.0,0.0,0.0,0.0,0.0,0.0,0.0,0.0,0.0,0.0,0.0,0.0,0.0,0.0,0.0,0.0,0.0,0.0,0.0,0.0,0.0,0.0,0.0,0.0,0.0,0.0,0.0,0.0,0.0,0.0,0.0,0.0,0.0,0.0,0.0,0.0,0.0,0.0,0.0,0.0,-5.7839,-6.1963,-6.8427,-7.1444,-7.2983,-7.2983,-6.9289,-6.4672,-5.9347,-5.5068,0.0,0.0,0.0,0.0,0.0,0.0,0.0,0.0,0.0,0.0,0.0,0.0,0.0,0.0,0.0,0.0,0.0,0.0,0.0,0.0,0.0,0.0,0.0,0.0,0.0,0.0,0.0,0.0,0.0,0.0,0.0,0.0,0.0,0.0,0.0,0.0,0.0,0.0,0.0,0.0,0.0,0.0,0.0,0.0,0.0,0.0,0.0,0.0,0.0,0.0,0.0,0.0,0.0,0.0,0.0,0.0,0.0,0.0,0.0,0.0,0.0,0.0,0.0,0.0,0.0,0.0,0.0,0.0,0.0,0.0,0.0,0.0,0.0,0.0,0.0,0.0,0.0,0.0,0.0,0.0,0.0,0.0,0.0,0.0,0.0,0.0,0.0,0.0,0.0,0.0,0.0,0.0,0.0,0.0,0.0,0.0,0.0,0.0,0.0,0.0,0.0,0.0,-5.8762,-6.3718,-6.9228,-7.1721,-7.2983,-7.2983,-6.7535,-6.2856,-5.9901,-5.3591,0.0,0.0,0.0,0.0,0.0,0.0,0.0,0.0,0.0,0.0,0.0,0.0,0.0,0.0,0.0,0.0,0.0,0.0,0.0,0.0,0.0,0.0,0.0,0.0,0.0,0.0,0.0,0.0,0.0,0.0,0.0,0.0,0.0,0.0,0.0,0.0,0.0,0.0,0.0,0.0,0.0,0.0,0.0,0.0,0.0,0.0,0.0,0.0,0.0,0.0,0.0,0.0,0.0,0.0,0.0,0.0,0.0,0.0,0.0,0.0,0.0,0.0,0.0,0.0,0.0,0.0,0.0,0.0,0.0,0.0,0.0,0.0,0.0,0.0,0.0,0.0,0.0,0.0,0.0,0.0,0.0,0.0,0.0,0.0,0.0,0.0,0.0,0.0,0.0,0.0,0.0,0.0,0.0,0.0,0.0,0.0,0.0,0.0,0.0,0.0,0.0,0.0,-5.9501,-6.4518,-6.9936,-7.1998,-7.2798,-7.2398,-6.8498,-6.4138,-5.947,0.0,0.0,0.0,0.0,0.0,0.0,0.0,0.0,0.0,0.0,0.0,0.0,0.0,0.0,0.0,0.0,0.0,0.0,0.0,0.0,0.0,0.0,0.0,0.0,0.0,0.0,0.0,0.0,0.0,0.0,0.0,0.0,0.0,0.0,0.0,0.0,0.0,0.0,0.0,0.0,0.0,0.0,0.0,0.0,0.0,0.0,0.0,0.0,0.0,0.0,0.0,0.0,0.0,0.0,0.0,0.0,0.0,0.0,0.0,0.0,0.0,0.0,0.0,0.0,0.0,0.0,0.0,0.0,0.0,0.0,0.0,0.0,0.0,0.0,0.0,0.0,0.0,0.0,0.0,0.0,0.0,0.0,0.0,0.0,0.0,0.0,0.0,0.0,0.0,0.0,0.0,0.0,0.0,0.0,0.0,0.0,0.0,0.0,0.0,0.0,0.0,0.0,-5.5376,-6.0393,-6.538,-7.0367,-7.2152,-7.2706,-7.2029,-6.8314,-6.4022,-5.9408,0.0,0.0,0.0,0.0,0.0,0.0,0.0,0.0,0.0,0.0,0.0,0.0,0.0,0.0,0.0,0.0,0.0,0.0,0.0,0.0,0.0,0.0,0.0,0.0,0.0,0.0,0.0,0.0,0.0,0.0,0.0,0.0,0.0,0.0,0.0,0.0,0.0,0.0,0.0,0.0,0.0,0.0,0.0,0.0,0.0,0.0,0.0,0.0,0.0,0.0,0.0,0.0,0.0,0.0,0.0,0.0,0.0,0.0,0.0,0.0,0.0,0.0,0.0,0.0,0.0,0.0,0.0,0.0,0.0,0.0,0.0,0.0,0.0,0.0,0.0,0.0,0.0,0.0,0.0,0.0,0.0,0.0,0.0,0.0,0.0,0.0,0.0,0.0,0.0,0.0,0.0,0.0,0.0,0.0,0.0,0.0,0.0,0.0,0.0,0.0,0.0,0.0,-5.6286,-6.1532,-6.6457,-7.049,-7.2152,-7.2706,-7.1998,-6.6334,-6.1963,0.0,0.0,0.0,0.0,0.0,0.0,0.0,0.0,0.0,0.0,0.0,0.0,0.0,0.0,0.0,0.0,0.0,0.0,0.0,0.0,0.0,0.0,0.0,0.0,0.0,0.0,0.0,0.0,0.0,0.0,0.0,0.0,0.0,0.0,0.0,0.0,0.0,0.0,0.0,0.0,0.0,0.0,0.0,0.0,0.0,0.0,0.0,0.0,0.0,0.0,0.0,0.0,0.0,0.0,0.0,0.0,0.0,0.0,0.0,0.0,0.0,0.0,0.0,0.0,0.0,0.0,0.0,0.0,0.0,0.0,0.0,0.0,0.0,0.0,0.0,0.0,0.0,0.0,0.0,0.0,0.0,0.0,0.0,0.0,0.0,0.0,0.0,0.0,0.0,0.0,0.0,0.0,0.0,0.0,0.0,0.0,0.0,0.0,0.0,0.0,0.0,0.0,0.0,-5.6347,-6.1933,-6.6866,-7.0189,-7.1353,-7.1476,-7.0281,-6.5985,-6.1879,-5.8307,0.0,0.0,0.0,0.0,0.0,0.0,0.0,0.0,0.0,0.0,0.0,0.0,0.0,0.0,0.0,0.0,0.0,0.0,0.0,0.0,0.0,0.0,0.0,0.0,0.0,0.0,0.0,0.0,0.0,0.0,0.0,0.0,0.0,0.0,0.0,0.0,0.0,0.0,0.0,0.0,0.0,0.0,0.0,0.0,0.0,0.0,0.0,0.0,0.0,0.0,0.0,0.0,0.0,0.0,0.0,0.0,0.0,0.0,0.0,0.0,0.0,0.0,0.0,0.0,0.0,0.0,0.0,0.0,0.0,0.0,0.0,0.0,0.0,0.0,0.0,0.0,0.0,0.0,0.0,0.0,0.0,0.0,0.0,0.0,0.0,0.0,0.0,0.0,0.0,0.0,0.0,0.0,0.0,0.0,0.0,0.0,0.0,0.0,0.0,0.0,0.0,0.0,-5.6748,-6.195,-6.6602,-7.0068,-7.0678,-7.0434,-6.9367,-6.5964,-6.1989,-5.7506,0.0,0.0,0.0,0.0,0.0,0.0,0.0,0.0,0.0,0.0,0.0,0.0,0.0,0.0,0.0,0.0,0.0,0.0,0.0,0.0,0.0,0.0,0.0,0.0,0.0,0.0,0.0,0.0,0.0,0.0,0.0,0.0,0.0,0.0,0.0,0.0,0.0,0.0,0.0,0.0,0.0,0.0,0.0,0.0,0.0,0.0,0.0,0.0,0.0,0.0,0.0,0.0,0.0,0.0,0.0,0.0,0.0,0.0,0.0,0.0,0.0,0.0,0.0,0.0,0.0,0.0,0.0,0.0,0.0,0.0,0.0,0.0,0.0,0.0,0.0,0.0,0.0,0.0,0.0,0.0,0.0,0.0,0.0,0.0,0.0,0.0,0.0,0.0,0.0,0.0,0.0,0.0,0.0,0.0,0.0,0.0,0.0,0.0,0.0,0.0,0.0,0.0,-5.7254,-6.1615,-6.5883,-6.9824,-6.9975,-6.9579,-6.885,-6.5958,-6.2086,-5.7163,0.0,0.0,0.0,0.0,0.0,0.0,0.0,0.0,0.0,0.0,0.0,0.0,0.0,0.0,0.0,0.0,0.0,0.0,0.0,0.0,0.0,0.0,0.0,0.0,0.0,0.0,0.0,0.0,0.0,0.0,0.0,0.0,0.0,0.0,0.0,0.0,0.0,0.0,0.0,0.0,0.0,0.0,0.0,0.0,0.0,0.0,0.0,0.0,0.0,0.0,0.0,0.0,0.0,0.0,0.0,0.0,0.0,0.0,0.0,0.0,-4.691,0.0,0.0,0.0,0.0,0.0,0.0,0.0,0.0,0.0,0.0,0.0,0.0,0.0,0.0,0.0,0.0,0.0,0.0,0.0,0.0,0.0,0.0,0.0,0.0,0.0,0.0,0.0,0.0,0.0,0.0,0.0,0.0,0.0,0.0,0.0,0.0,0.0,0.0,0.0,0.0,0.0,-5.6972,-6.1348,-6.5329,-6.8546,-6.8847,-6.8333,-6.7125,-6.4294,-6.0711,-5.6214,-5.3724,0.0,0.0,0.0,0.0,0.0,0.0,0.0,0.0,0.0,0.0,0.0,0.0,0.0,0.0,0.0,0.0,0.0,0.0,0.0,0.0,0.0,0.0,0.0,0.0,0.0,0.0,0.0,0.0,0.0,0.0,0.0,0.0,0.0,0.0,0.0,0.0,0.0,0.0,0.0,0.0,0.0,0.0,0.0,0.0,0.0,0.0,0.0,0.0,0.0,0.0,0.0,0.0,0.0,0.0,0.0,0.0,0.0,0.0,0.0,0.0,-4.9777,0.0,0.0,0.0,0.0,0.0,0.0,0.0,0.0,0.0,0.0,0.0,0.0,0.0,0.0,0.0,0.0,0.0,0.0,0.0,0.0,0.0,0.0,0.0,0.0,0.0,0.0,0.0,0.0,0.0,0.0,0.0,0.0,0.0,0.0,0.0,0.0,0.0,0.0,0.0,0.0,-5.6873,-6.0502,-6.4132,-6.7668,-6.7576,-6.7003,-6.6312,-6.442,-6.1322,-5.6787,-5.4616,0.0,0.0,0.0,0.0,0.0,0.0,0.0,0.0,0.0,0.0,0.0,0.0,0.0,0.0,0.0,0.0,0.0,0.0,0.0,0.0,0.0,0.0,0.0,0.0,0.0,0.0,0.0,0.0,0.0,0.0,0.0,0.0,0.0,0.0,0.0,0.0,0.0,0.0,0.0,0.0,0.0,0.0,0.0,0.0,0.0,0.0,0.0,0.0,0.0,0.0,0.0,0.0,0.0,-5.7311,-5.8045,-5.6306,-5.8515,-5.9513,-5.9188,-5.5834,-5.3814,-5.2889,-5.1924,0.0,0.0,0.0,0.0,0.0,0.0,0.0,0.0,0.0,0.0,0.0,0.0,0.0,0.0,0.0,0.0,0.0,0.0,0.0,0.0,0.0,0.0,0.0,0.0,-5.4036,-5.3774,-5.0629,0.0,0.0,0.0,0.0,0.0,0.0,0.0,0.0,0.0,0.0,0.0,-5.6785,-5.9841,-6.3183,-6.6854,-6.6402,-6.5832,-6.5832,-6.4871,-6.2341,-5.7918,-5.6043,-5.3602,0.0,0.0,0.0,0.0,0.0,0.0,0.0,0.0,0.0,0.0,0.0,0.0,0.0,0.0,0.0,0.0,0.0,0.0,0.0,0.0,0.0,0.0,0.0,0.0,0.0,0.0,0.0,0.0,0.0,0.0,0.0,0.0,-4.2386,-4.2479,0.0,0.0,0.0,0.0,0.0,0.0,0.0,0.0,0.0,0.0,0.0,0.0,0.0,-5.1707,-5.2792,-5.7134,-5.8745,-5.7528,-6.0496,-6.1613,-6.1038,-6.2053,-6.3061,-6.403,-6.4307,0.0,-5.7445,-5.5258,0.0,0.0,0.0,0.0,0.0,0.0,0.0,0.0,0.0,0.0,0.0,0.0,0.0,0.0,0.0,0.0,0.0,0.0,0.0,0.0,0.0,0.0,-5.5345,-5.6101,-5.6168,-5.5896,-5.5394,-5.3343,-5.1303,-5.0289,-4.9517,-4.9096,0.0,0.0,0.0,0.0,0.0,0.0,-5.6415,-6.0276,-6.3736,-6.5952,-6.5562,-6.5173,-6.5173,-6.4005,-6.1759,-5.8255,-5.6779,-5.46,-5.1452,-5.011,0.0,0.0,0.0,0.0,0.0,0.0,0.0,0.0,0.0,0.0,0.0,0.0,0.0,0.0,0.0,0.0,0.0,0.0,0.0,0.0,0.0,0.0,0.0,0.0,0.0,0.0,0.0,0.0,0.0,-4.3236,-4.4007,-4.3084,-4.4276,-4.4525,0.0,0.0,0.0,0.0,0.0,0.0,0.0,0.0,0.0,-5.2413,-5.3109,-5.4686,-5.7241,-6.0549,-6.1701,-6.0787,-6.5343,-6.6248,-6.4168,-6.7225,-6.8619,-6.8789,-7.0221,-6.905,-6.5682,-6.1012,-5.7626,-5.5117,0.0,0.0,0.0,0.0,-5.3392,-5.436,-5.6176,-5.6823,-5.6854,-5.6977,0.0,0.0,0.0,0.0,0.0,0.0,0.0,-5.4083,0.0,0.0,-5.8639,-5.8947,-5.9696,-6.001,-5.8828,-5.7466,-5.5572,-5.2551,-5.1391,-5.0642,-4.9653,-4.876,0.0,0.0,0.0,-5.5187,-5.6547,-6.0229,-6.3397,-6.4961,-6.5047,-6.4925,-6.4925,-6.4296,-6.2909,-6.0674,-5.8467,-5.6312,-5.4135,-5.1544,-4.9988,0.0,0.0,0.0,0.0,0.0,0.0,0.0,0.0,0.0,0.0,0.0,0.0,0.0,0.0,0.0,0.0,0.0,0.0,0.0,0.0,0.0,0.0,0.0,0.0,0.0,0.0,0.0,0.0,-4.4649,-4.5531,-4.4298,-4.5889,-4.5991,0.0,0.0,0.0,0.0,0.0,0.0,-4.9063,-5.0637,-5.2939,-5.6021,-5.646,-5.8222,-6.1493,-6.431,-6.5345,-6.4706,-7.0141,-7.1072,-6.8317,-7.2002,-7.3337,-7.2864,-7.4015,-7.3731,-7.1936,-6.6312,-6.2182,-5.9267,-5.7142,-5.6051,-5.578,-5.6549,-5.7419,-5.8508,-6.0773,-6.1563,-6.1471,-6.0824,-5.9562,-5.7715,-5.4483,0.0,0.0,0.0,0.0,-5.6423,-5.8116,-6.0209,-6.1933,-6.2271,-6.3439,-6.3923,-6.2089,-6.1378,-5.981,-5.5274,-5.3816,-5.278,-5.1189,-5.0201,0.0,-5.0577,-5.352,-5.6073,-5.7302,-6.0494,-6.3093,-6.4266,-6.438,-6.4522,-6.4819,-6.4468,-6.3706,-6.2384,-6.0143,-5.8083,-5.6382,-5.3118,-5.1061,-5.0374,0.0,0.0,0.0,0.0,0.0,0.0,0.0,0.0,0.0,0.0,0.0,0.0,0.0,0.0,0.0,0.0,0.0,0.0,0.0,0.0,0.0,0.0,0.0,0.0,0.0,0.0,0.0,0.0,0.0,-4.6435,-4.7983,0.0,0.0,0.0,0.0,-4.6983,-4.8263,-5.0519,-5.4021,-5.4287,-5.608,-6.0013,-6.1622,-6.318,-6.4963,-6.9488,-7.1179,-7.0099,-7.418,-7.5717,-7.4919,-7.5527,-7.5905,-7.6121,-7.5215,-7.445,-7.3492,-6.9742,-6.6583,-6.3843,-6.1192,-5.9855,-5.9637,-6.0624,-6.1424,-6.2181,-6.3302,-6.3687,-6.3872,-6.5134,-6.418,-6.1994,-5.9255,-5.8423,0.0,0.0,-5.8978,-6.0147,-6.2794,-6.4087,-6.5011,-6.6304,-6.6936,-6.6916,-6.5452,-6.4626,-6.2811,-5.8187,-5.6496,-5.5493,-5.4424,0.0,-5.3908,-5.3386,-5.6385,-5.8753,-5.8967,-6.1399,-6.3346,-6.3917,-6.3526,-6.3552,-6.4443,-6.393,-6.3109,-6.208,-6.1291,-5.9757,-5.7312,-5.4789,-5.2882,-5.1638,-4.9852,0.0,0.0,0.0,0.0,0.0,0.0,0.0,0.0,0.0,0.0,0.0,0.0,0.0,0.0,0.0,0.0,0.0,0.0,0.0,0.0,0.0,0.0,0.0,0.0,0.0,0.0,0.0,0.0,-5.1006,-5.2006,0.0,-4.9889,-4.9358,-4.9446,-5.0132,-5.2724,-5.5394,-5.7867,-5.9445,-6.1572,-6.4543,-6.6561,-6.7752,-6.8082,-7.2562,-7.3428,-7.0796,-7.505,-7.6263,-7.4882,-7.6427,-7.7114,-7.7042,-7.7361,-7.6886,-7.5798,-7.4745,-7.1944,-6.815,-6.6639,-6.5751,-6.5494,-6.6281,-6.7096,-6.7945,-6.8769,-6.9074,-6.8797,-6.7104,-6.5165,-6.3195,-6.1809,-6.1686,-6.2117,-6.2579,-6.3502,-6.4703,-6.6088,-6.7289,-6.812,-6.8181,-6.8308,-6.8129,-6.6977,-6.602,-6.4769,-6.2693,-6.0092,-5.7831,-5.6534,-5.5853,-5.5548,-5.5679,-5.7807,-5.9569,-6.018,-6.2233,-6.3827,-6.4209,-6.4284,-6.4366,-6.4723,-6.3944,-6.3152,-6.2564,-6.0715,-5.8966,-5.7442,-5.4235,-5.2169,-5.1448,-4.9542,-4.8588,0.0,0.0,0.0,0.0,0.0,0.0,0.0,0.0,0.0,0.0,0.0,0.0,0.0,0.0,0.0,0.0,0.0,0.0,0.0,0.0,0.0,0.0,0.0,0.0,0.0,0.0,-5.3582,-5.5797,-5.6235,-5.5826,-5.4654,-5.3982,-5.3809,-5.4216,-5.7363,-6.0077,-6.1895,-6.3849,-6.6052,-6.8648,-7.0165,-7.0863,-7.0791,-7.4488,-7.4911,-7.2045,-7.6398,-7.7532,-7.5875,-7.7695,-7.8489,-7.8277,-7.8525,-7.8109,-7.7358,-7.7453,-7.5556,-7.2459,-7.1494,-7.0767,-7.0404,-7.0985,-7.1598,-7.2213,-7.2829,-7.2829,-7.2214,-6.9505,-6.7689,-6.6365,-6.5226,-6.5349,-6.5965,-6.6457,-6.7227,-6.8089,-6.8766,-6.9751,-7.0428,-6.972,-6.9566,-6.9261,-6.8194,-6.7082,-6.6067,-6.5425,-6.2938,-6.0534,-5.9143,-5.8593,-5.839,-5.8559,-5.9902,-6.1146,-6.1813,-6.3143,-6.4106,-6.4244,-6.4468,-6.4518,-6.4384,-6.3758,-6.2809,-6.1563,-5.9817,-5.8064,-5.6243,-5.3481,-5.1743,-5.1111,-4.9304,-4.8469,-4.8604,0.0,0.0,0.0,0.0,0.0,0.0,0.0,0.0,0.0,0.0,0.0,0.0,0.0,0.0,0.0,0.0,0.0,0.0,0.0,0.0,0.0,0.0,0.0,-4.9566,-5.2701,-5.6479,-6.0441,-6.0422,-5.9883,-5.9419,-5.9261,-5.9209,-5.9263,-6.2019,-6.4437,-6.623,-6.7501,-6.9384,-7.215,-7.2282,-7.2564,-7.3155,-7.5654,-7.6095,-7.4372,-7.8503,-7.9818,-7.8612,-7.9562,-8.0062,-8.0001,-7.8725,-7.8148,-7.8056,-7.7796,-7.7227,-7.6457,-7.5455,-7.4684,-7.4141,-7.4466,-7.4596,-7.4596,-7.4948,-7.4615,-7.3845,-7.2521,-7.2091,-7.166,-6.9659,-6.9505,-6.9997,-6.9997,-6.9997,-7.0151,-7.0798,-7.1475,-7.1813,-7.1136,-7.0952,-7.0582,-6.9228,-6.7904,-6.6765,-6.6088,-6.4857,-6.3439,-6.2275,-6.251,-6.2672,-6.2129,-6.2842,0.0,-6.3958,-6.3993,-6.4049,-6.4049,-6.4049,-6.3858,-6.3434,-6.3367,-6.2005,-5.8947,-5.8639,-5.71,-5.3806,-5.2718,-5.1737,-5.0667,-4.9312,-4.8604,-4.8604,0.0,0.0,0.0,0.0,0.0,0.0,0.0,0.0,0.0,0.0,0.0,0.0,0.0,0.0,0.0,0.0,0.0,0.0,0.0,0.0,0.0,0.0,-5.336,-5.3381,-5.6469,-6.0146,-6.383,-6.3582,-6.3606,-6.4967,-6.4094,-6.3849,-6.4744,-6.7405,-6.9625,-7.1018,-7.2519,-7.4114,-7.583,-7.6986,-7.7148,-7.6118,-7.9155,-7.9412,-7.7044,-7.9363,-8.0132,-7.9574,-8.0365,-8.0872,-8.1085,-8.1207,-8.0859,-8.0219,-8.0172,-7.9097,-7.7463,-7.6752,-7.6353,-7.62,-7.6266,-7.6331,-7.6331,-7.6396,-7.6031,-7.5384,-7.5015,-7.4245,-7.3322,-7.2768,-7.2368,-7.2121,-7.2121,-7.2121,-7.2183,-7.2368,-7.2552,-7.2645,-7.246,-7.2029,-7.1444,-7.0551,-6.9289,-6.815,-6.7504,-6.6273,-6.4992,-6.3898,-6.4083,-6.4083,-6.3528,-6.3848,-6.4198,-6.427,-6.43,-6.4356,-6.461,-6.4666,-6.439,-6.3708,-6.1919,-6.0034,-5.8177,-5.5745,-5.3745,-5.2329,-5.1085,-5.0039,-4.9189,-4.882,-4.8604,0.0,0.0,0.0,0.0,0.0,0.0,0.0,0.0,0.0,0.0,0.0,0.0,0.0,0.0,0.0,0.0,0.0,0.0,0.0,0.0,0.0,0.0,-5.4357,-5.7512,-5.9026,-6.1597,-6.4516,-6.7659,-6.7781,-6.8032,-6.9248,-6.8568,-6.8188,-6.8512,-7.1482,-7.3387,-7.3388,-7.543,-7.7012,-7.7887,-7.9336,-7.944,-7.7917,-8.0648,-8.1126,-7.9215,-8.0791,-8.1459,-8.1278,-8.1675,-8.2,-8.2213,-8.2305,-8.2007,-8.1479,-8.1202,-8.0032,0.0,0.0,0.0,0.0,0.0,-7.7016,-7.7016,-7.7016,-7.6769,-7.6338,-7.5784,-7.5261,-7.4676,-7.3845,-7.3506,-7.3353,-7.3076,-7.2983,-7.2983,-7.2983,-7.2983,-7.2983,-7.2983,-7.2244,-7.1413,-7.0982,-6.9628,-6.8366,-6.7997,-6.7073,0.0,-6.5187,-6.4961,-6.4777,-6.4443,-6.4524,-6.4635,-6.4635,-6.4635,-6.4691,-6.4888,-6.4888,-6.4487,-6.3502,-6.144,0.0,0.0,0.0,-5.2021,-5.0482,-4.9651,0.0,0.0,0.0,-4.8604,-4.8604,-4.8604,0.0,0.0,-4.8419,-4.8389,0.0,0.0,0.0,0.0,0.0,0.0,0.0,0.0,0.0,0.0,0.0,0.0,0.0,0.0,0.0,0.0,-5.8356,-6.1859,-6.5016,-6.7196,-6.9138,-7.1008,-7.1733,-7.2102,-7.2215,-7.2187,-7.1952,-7.132,-7.4725,-7.6208,-7.4655,0.0,0.0,0.0,0.0,-8.0608,-7.9437,-8.143,-8.2011,-8.1132,-8.2438,-8.3049,-8.2987,-8.2987,-8.2987,-8.2956,-8.2495,-8.2187,-8.1941,-8.1479,-8.0463,-7.9139,-7.8339,-7.76,-7.7016,-7.7016,-7.7016,-7.7016,-7.7016,0.0,0.0,-7.563,-7.56,-7.5661,-7.3783,-7.3568,-7.3845,-7.3168,-7.2983,-7.3014,-7.3076,-7.3045,-7.3014,-7.3076,-7.2091,-7.1105,-7.0952,-6.9505,-6.8212,-6.8058,-6.7412,-6.6735,-6.6119,-6.5472,-6.498,-6.4918,-6.4888,-6.4888,-6.4888,-6.4888,-6.4888,-6.4888,-6.4888,0.0,-6.2948,-6.1502,-5.9039,-5.5144,-5.3468,-5.1436,-4.885,-4.8727,-4.8727,-4.8727,-4.8727,-4.8758,-4.885,-4.885,-4.885,-4.885,-4.8758,-4.8727,0.0,0.0,0.0,0.0,0.0,0.0,0.0,0.0,0.0,0.0,0.0,0.0,0.0,0.0,0.0,-5.7361,-6.2487,-6.6446,-6.7278,-7.1174,-7.3089,-7.0964,-7.1548,-7.2516,-7.3423,-7.3058,-7.349,-7.5106,-7.8091,-7.9501,-7.8597,-8.1908,-8.3557,-8.3082,-8.3817,-8.4123,-8.3847,-8.429,-8.4167,-8.3419,0.0,0.0,-8.2279,-8.2279,-8.2279,-8.2341,-8.3295,-8.2772,-8.1325,-8.231,-8.1602,-7.9786,-7.8524,-7.76,-7.7016,-7.7016,-7.7016,-7.7016,-7.7016,-7.7016,-7.6985,-7.6708,-7.6338,-7.5846,-7.4892,-7.4338,0.0,-7.3168,-7.2983,-7.3106,-7.366,-7.3383,-7.3137,-7.366,-7.3168,-7.2275,-7.1136,-7.0613,-6.9997,-6.892,-6.775,-6.6888,-6.6735,-6.615,-6.5534,-6.498,-6.4888,-6.4888,-6.4888,-6.4888,-6.4888,-6.4888,-6.4888,-6.4334,-6.2948,-6.1071,-5.8947,-5.6563,-5.356,-5.1159,-4.9558,-4.9497,-4.9497,-4.9497,-4.9497,-4.9743,-5.0297,-5.0297,-5.0297,-5.0266,-4.9743,-4.9497,0.0,0.0,0.0,0.0,0.0,0.0,0.0,0.0,0.0,0.0,0.0,-5.0325,0.0,0.0,-5.9256,-6.1519,-6.5402,-6.8359,-6.8702,-7.2441,-7.4099,-7.136,-7.2939,-7.4231,-7.4344,-7.5297,-7.6276,-7.7159,-8.0108,-8.1553,-8.0718,-8.3514,-8.4803,-8.4126,-8.508,-8.545,-8.5111,-8.545,-8.545,-8.508,-8.4065,-8.3418,-8.308,-8.2402,-8.2064,-8.2095,-8.2433,-8.2187,-8.1602,-8.1941,-8.1294,-8.0001,-7.8955,-7.8124,-7.7477,-7.7139,-7.7016,-7.7016,-7.7016,-7.7016,-7.6954,-7.6615,-7.6277,-7.5877,-7.5199,-7.4769,-7.4368,-7.3691,-7.3476,-7.3568,-7.3907,-7.3476,-7.3168,-7.3845,-7.3229,-7.2183,-7.1136,-7.089,-7.049,-6.9135,-6.8612,-6.8089,-6.7073,-6.6642,-6.6057,-6.5042,-6.4888,-6.4888,-6.4888,-6.4888,-6.4888,-6.4888,-6.4888,-6.4334,-6.2948,-6.0024,-5.7562,-5.5869,-5.3529,-5.1744,-5.0728,-5.0697,-5.0543,-5.0205,-5.0205,-5.0359,-5.0697,-5.0697,-5.0697,-5.0697,-5.0697,-5.0513,0.0,0.0,0.0,0.0,0.0,0.0,0.0,0.0,-4.7557,-4.8404,-5.126,-5.3988,-5.5298,-5.938,-6.3294,-6.5491,-6.7798,-6.9443,-7.0044,-7.3019,-7.439,-7.2553,-7.4747,-7.6317,-7.576,-7.768,-7.8933,-7.893,-8.1807,-8.3102,-8.2152,-8.4301,-8.5203,-8.4526,-8.5542,-8.5911,-8.5511,-8.5911,-8.6127,-8.6096,-8.4742,-8.4034,-8.3849,-8.2495,-8.1879,-8.1848,-8.1171,-8.1263,-8.1817,-8.1017,-8.0463,-8.0032,-7.9201,-7.8524,-7.7939,-7.7262,-7.7016,-7.7016,-7.7016,-7.7016,-7.6923,-7.64,-7.6215,-7.6061,-7.523,-7.5015,-7.4861,-7.4184,-7.3999,-7.403,-7.4153,-7.3691,-7.3322,-7.3876,-7.3076,-7.1937,-7.1075,-7.089,-7.049,-6.9135,-6.9228,-6.9012,-6.7381,-6.6888,-6.6304,-6.5072,-6.4888,-6.4888,-6.4888,-6.4888,-6.4888,-6.4888,-6.4888,-6.4334,-6.2948,-5.9347,-5.6638,-5.5407,-5.4052,-5.2944,-5.2144,-5.2082,-5.1775,-5.1097,-5.1097,-5.1097,-5.1097,-5.1097,-5.1097,-5.1097,-5.1652,-5.1528,-4.5834,-4.5526,-4.5563,-4.5331,-4.6783,-4.862,0.0,0.0,-5.3759,-5.4431,-5.6325,-5.8167,-5.9109,-6.1883,-6.4916,-6.7641,-6.9633,-7.1118,-7.1658,-7.4335,-7.6023,-7.5418,-7.6355,-7.7612,-7.8967,-7.9378,-8.0134,-8.1562,-8.3634,-8.4577,-8.388,-8.5838,-8.6619,-8.5911,-8.6035,-8.6373,-8.6958,-8.6404,-8.6127,-8.6096,-8.4742,-8.3788,-8.3141,-8.1787,-8.1171,-8.114,-8.0494,-8.0586,-8.1079,-7.9847,-7.9632,-7.9971,-7.8678,-7.8093,-7.7939,-7.7262,-7.7016,-7.7016,-7.7016,-7.7016,-7.7016,-7.6923,-7.6892,-7.6677,-7.5384,-7.5015,-7.4861,-7.4184,-7.3999,-7.4122,-7.4738,-7.4399,-7.3907,-7.3968,-7.3414,-7.2491,-7.1198,-7.089,-7.049,-6.9135,-6.8489,-6.8058,-6.7843,-6.6827,-6.578,-6.5011,-6.4888,-6.4888,-6.4888,-6.4888,-6.4888,-6.4888,-6.4888,-6.4334,-6.2948,-6.0178,-5.8239,-5.7469,-5.6115,-5.4791,-5.356,-5.3498,-5.3191,-5.2513,-5.2483,-5.2483,-5.2483,-5.2483,-5.2483,-5.2483,-5.2575,-5.2236,-4.6419,-4.7342,0.0,0.0,-5.0983,-5.4168,-5.5027,-5.7167,-5.9236,-6.0435,-6.2773,-6.483,-6.5493,-6.8131,-7.0542,0.0,-7.3129,-7.4103,-7.3988,-7.5335,-7.5985,-7.5247,-7.6505,-7.8138,-8.0032,-8.0725,-8.1553,-8.2618,-8.3818,-8.4557,-8.468,-8.5511,-8.6219,-8.6712,-8.6743,-8.7081,-8.7758,-8.7481,-8.7143,-8.6712,-8.5357,-8.4342,-8.3634,-8.2279,-8.1233,-8.0494,-8.0217,-8.0032,-7.9909,-7.9755,-7.9632,-7.9417,-7.8432,-7.8031,-7.7939,-7.7262,-7.7016,-7.7016,-7.7016,-7.7016,-7.7016,-7.7016,-7.7016,-7.6923,-7.6338,-7.5907,-7.5446,-7.4769,-7.4307,-7.4061,-7.4338,-7.3907,-7.3506,-7.3907,-7.3476,-7.2614,-7.1198,-7.1229,-7.1013,-6.9228,-6.8982,-6.8828,-6.8058,-6.7473,-6.6704,-6.5657,-6.5165,-6.4888,-6.4888,-6.4888,-6.4888,-6.4888,-6.418,-6.3441,-6.2856,-6.0332,-5.867,-5.8362,-5.7118,-5.5869,-5.4914,-5.4853,-5.436,-5.3314,-5.3314,-5.3098,-5.2698,-5.2698,-5.2698,-5.2698,-5.2698,-5.2575,-4.7188,0.0,0.0,-5.1434,-5.5371,-5.9338,-5.9982,-6.2205,-6.4576,-6.6132,-6.8174,-6.9904,-7.0679,-7.2499,-7.414,-7.4925,-7.5305,-7.5565,-7.5715,-7.5919,-7.5769,-7.4821,-7.5953,-7.7545,-7.9423,-8.1125,-8.2372,-8.3049,-8.388,-8.4588,-8.508,-8.5111,-8.5665,-8.6866,-8.6896,-8.7143,-8.7604,-8.7635,-8.7204,-8.6312,-8.5111,-8.4188,-8.348,-8.2156,-8.1017,-8.0094,-7.9909,-7.954,-7.9109,-7.9417,-7.9232,-7.8739,-7.8031,-7.7754,-7.7693,-7.72,-7.7016,-7.7016,-7.7016,-7.7016,-7.6985,-7.68,-7.6739,-7.6677,-7.6308,-7.5846,-7.5353,-7.4861,-7.4368,-7.3999,-7.3999,-7.363,-7.3322,-7.363,-7.3199,-7.2368,-7.1167,-7.1167,-7.089,-6.9197,-6.9289,-6.932,-6.8366,-6.7873,-6.7319,-6.6334,-6.5442,-6.4888,-6.4888,-6.4888,-6.4888,-6.4888,-6.3656,-6.2825,-6.2825,-6.0517,-5.907,-5.907,-5.7826,-5.6871,-5.63,-5.6084,-5.5438,-5.4299,-5.4083,-5.3683,-5.3006,-5.279,-5.2698,-5.2698,-5.2698,-5.2698,0.0,0.0,-5.2381,-5.531,-5.9331,-6.3078,-6.4709,-6.7422,-6.9961,-7.1242,-7.1511,-7.1888,-7.3095,-7.2892,-7.342,-7.6104,-7.4886,-7.4281,-7.6253,-7.6116,-7.5488,-7.471,-7.4836,-7.5627,0.0,-8.0155,-8.2372,-8.3049,-8.4311,-8.508,-8.5111,-8.5111,-8.5419,-8.6127,-8.6158,-8.6158,-8.6188,-8.6188,-8.5511,-8.4188,-8.348,-8.2803,-8.2095,-8.0771,-8.0155,-8.0063,-7.9417,-7.9109,-7.9047,-7.837,-7.8093,-7.8001,-7.7323,-7.7046,-7.7046,-7.7016,-7.7016,-7.7016,-7.7016,-7.7016,-7.6892,-7.6246,-7.6031,-7.5784,-7.4491,-7.4061,-7.4061,-7.403,-7.3999,-7.3999,-7.3999,-7.3968,-7.3814,-7.3168,-7.2491,-7.1813,-7.1075,-7.0398,-6.9751,-6.9012,-6.8889,-6.8889,-6.8858,-6.7781,-6.6919,-6.6888,-6.575,-6.4888,-6.4888,-6.4888,-6.4888,-6.4888,-6.3656,-6.2825,-6.2825,-6.0948,-5.9747,-5.9747,-5.8485,-5.7795,-5.7765,-5.7118,-5.644,-5.5653,-5.5007,-5.4314,-5.3683,-5.3037,-5.2698,-5.2698,-5.2698,-5.2698,0.0,0.0,-5.8846,-6.0774,-6.5126,-6.9292,-7.071,-7.2573,-7.3879,-7.3879,-7.2793,-7.1835,-7.1771,-7.1952,-7.275,-7.4541,-7.6554,-7.8001,-7.8232,-7.8888,-7.7911,-7.4032,-7.4786,0.0,0.0,0.0,0.0,-8.2248,-8.3264,-8.4157,-8.505,-8.5111,-8.5419,-8.6096,-8.6127,-8.5911,-8.545,-8.545,-8.4773,-8.3418,-8.2741,-8.231,-8.2033,-8.0709,-8.034,-8.0709,-8.0063,-7.9509,-7.9078,-7.8832,-7.8185,-7.7323,-7.7108,-7.7016,-7.7016,-7.7016,-7.7016,-7.7016,-7.7016,-7.7016,-7.6985,-7.6769,-7.6369,-7.6,-7.6,-7.5384,-7.4645,-7.4645,-7.4338,-7.3907,-7.3445,-7.3322,-7.326,-7.3045,-7.246,-7.1783,-7.1075,-7.0367,-6.969,-6.9012,-6.8889,-6.8735,-6.8304,-6.7873,-6.7289,-6.6396,-6.5472,-6.4888,-6.4888,-6.4888,-6.4888,-6.4888,-6.3656,-6.2825,-6.2825,-6.0948,-5.9778,-5.9778,-5.8516,-5.7826,-5.7826,-5.7179,-5.6471,-5.5715,-5.5068,-5.456,-5.4345,-5.3252,-5.2944,-5.3375,-5.2914,-5.2698,-5.473,-5.9162,-6.3472,-6.578,-6.972,-7.3353,-7.4461,-7.5199,-7.5384,-7.4461,-7.246,-7.0582,-6.9659,-6.9259,-6.9843,-7.2152,-7.4522,-7.6615,-7.8154,-7.8247,-7.7077,-7.4061,-7.4214,-7.4245,0.0,0.0,0.0,-8.1448,-8.2587,-8.3572,-8.468,-8.4988,-8.5296,-8.5727,-8.6004,-8.5788,-8.5111,-8.5357,-8.4649,-8.308,-8.2156,-8.1725,-8.1694,-8.0586,-8.034,-8.0679,-7.9755,-7.9109,-7.8709,-7.8462,-7.7816,-7.7016,-7.7016,-7.7016,-7.7016,-7.7016,-7.6862,-7.6708,-7.6923,-7.7016,-7.6954,-7.6461,-7.6,-7.563,-7.56,-7.4984,-7.4276,-7.4276,-7.3968,-7.3537,-7.3106,-7.2983,-7.2983,-7.2983,-7.2275,-7.1475,-7.1013,-7.0182,-6.932,-6.8674,-6.8551,-6.8335,-6.7689,-6.735,-6.6827,-6.5719,-6.5165,-6.4888,-6.4888,-6.4888,-6.4888,-6.4888,-6.3656,-6.2825,-6.2825,-6.1194,-6.0147,-6.0147,-5.9101,-5.8393,-5.8196,-5.7518,-5.684,-5.6084,-5.5407,-5.4976,-5.4683,-5.3576,-5.316,-5.3345,-5.2914,-5.2698,-5.9655,-6.3195,-6.6304,-7.0151,-7.3106,-7.5199,-7.5784,-7.5323,-7.4368,-7.2891,-7.0336,-6.7966,0.0,0.0,-6.498,-6.8982,-6.9382,-7.1044,-7.6369,-7.4984,-7.3814,0.0,0.0,0.0,0.0,0.0,0.0,-8.0832,0.0,-8.3326,-8.4095,-8.4742,-8.5111,-8.5111,-8.5727,-8.5727,-8.505,-8.5634,-8.4957,-8.3018,-8.1694,-8.1079,-8.1048,-8.0402,-8.0094,-8.0032,-7.8678,-7.8062,-7.797,-7.7323,-7.7046,-7.7016,-7.7016,-7.7016,-7.7016,-7.7016,-7.6615,-7.6154,-7.68,-7.6985,-7.6708,-7.5415,-7.4984,-7.4707,-7.3476,-7.3076,-7.3045,-7.3045,-7.3045,-7.3014,-7.2983,-7.2983,-7.2983,-7.2952,-7.1906,-7.089,-7.0828,-6.9751,-6.8643,-6.7997,-6.7843,-6.7627,-6.6981,-6.6304,-6.5626,-6.5011,-6.4888,-6.4888,-6.4888,-6.4888,-6.4888,-6.4888,-6.3656,-6.2825,-6.2825,-6.1563,-6.0794,-6.0794,-6.0116,-5.947,-5.8854,-5.8165,-5.7487,-5.6871,-5.6084,-5.5407,-5.4745,-5.4006,-5.3375,-5.276,-5.2729,-5.2698,-6.4303,-6.8458,-7.2029,-7.3568,-7.4861,-7.5538,-7.4707,-7.3168,-7.1013,-6.7658,-6.3964,-6.0794,0.0,0.0,0.0,-6.5596,-7.0244,0.0,-7.8093,-7.8832,0.0,0.0,0.0,-7.6431,-7.6277,-7.64,0.0,0.0,-8.1664,-8.2556,-8.4742,-8.5019,-8.5111,-8.5111,-8.5265,-8.505,-8.4372,-8.351,-8.2833,-8.231,-8.1479,-8.1079,-8.1048,-8.0402,-8.0094,-8.0063,-7.9201,-7.8524,-7.8031,-7.7847,-7.7477,-7.7016,-7.7016,-7.7016,-7.7016,-7.7016,-7.6892,-7.68,-7.6954,-7.6369,-7.5446,-7.5107,-7.4645,-7.4276,-7.443,-7.4122,-7.3753,-7.3753,-7.3753,-7.363,-7.3106,-7.2983,-7.286,-7.2337,-7.1536,-7.0644,-6.9628,-6.8766,-6.7966,-6.7289,-6.6765,-6.6365,-6.618,-6.5596,-6.5103,-6.4918,-6.4888,-6.4888,-6.4888,-6.4888,-6.4888,-6.4888,-6.3656,-6.2825,-6.2825,-6.1563,-6.0794,-6.0794,-5.9686,-5.9193,-5.9532,-5.7949,-5.7241,-5.7549,-5.633,-5.5622,-5.5438,-5.4299,-5.3622,-5.3437,-5.2944,-5.2698,-6.8581,-7.1967,-7.4584,-7.5261,-7.5507,-7.4892,-7.2337,-6.9936,-6.695,-6.2271,-5.8547,0.0,0.0,0.0,0.0,0.0,0.0,0.0,-7.7016,-7.8124,-7.8493,0.0,-7.8893,0.0,-7.8801,-7.9078,-8.0155,0.0,-8.1879,-8.2433,-8.4557,-8.4957,-8.5111,-8.5111,-8.5111,-8.4773,-8.4095,-8.3049,-8.2372,-8.2064,-8.1387,-8.1079,-8.1048,-8.0709,-8.0217,-7.9632,0.0,-7.8524,-7.76,-7.76,-7.7354,-7.7016,-7.7016,-7.7016,-7.7016,-7.7016,-7.6646,-7.6123,-7.6123,-7.5261,-7.4276,-7.5138,-7.4799,-7.4061,-7.4461,-7.4091,-7.3537,-7.3537,-7.3537,-7.3445,-7.3076,-7.2983,-7.2798,-7.2152,-7.1413,-7.0521,-6.9166,-6.8612,-6.8058,-6.7104,-6.6119,-6.5472,-6.5472,-6.5165,-6.4888,-6.4888,-6.4888,-6.4888,-6.4888,-6.4888,-6.4764,-6.4457,-6.3472,-6.2702,-6.2394,-6.1409,-6.0794,-6.0794,-5.9809,-5.9255,-5.9347,-5.8288,-5.7611,-5.7395,-5.6854,-5.63,-5.5684,-5.4668,-5.3976,-5.3668,-5.3037,-5.2698,-7.2521,-7.443,-7.5538,-7.6031,-7.5292,-7.3414,-6.9413,-6.6119,-6.2425,-5.7118,0.0,-5.1621,-5.0266,0.0,-5.3375,-5.8885,0.0,-6.6981,-7.5261,-7.5907,-7.6985,-8.0863,-8.0832,-8.0802,-8.154,-8.1971,-8.2556,-8.3418,-8.2772,-8.2895,-8.4157,-8.4773,-8.5111,-8.5111,-8.5111,-8.4834,-8.4249,-8.348,-8.2803,-8.2187,-8.1448,-8.1079,-8.1079,-8.0986,-8.0278,-7.9109,-7.8986,-7.8216,-7.7016,-7.7016,-7.7016,-7.7016,-7.7016,-7.7016,-7.7016,-7.7016,-7.6277,-7.5261,-7.5169,-7.4307,-7.3506,-7.5076,-7.483,-7.3845,-7.3845,-7.3445,-7.2983,-7.2983,-7.2983,-7.2983,-7.2983,-7.2983,-7.2798,-7.2029,-7.1352,-7.0521,-6.9074,-6.8612,-6.815,-6.7012,-6.578,-6.4888,-6.4888,-6.4888,-6.4888,-6.4888,-6.4888,-6.4888,-6.4888,-6.4826,-6.4518,-6.3903,-6.3133,-6.2456,-6.1871,-6.1194,-6.0794,-6.0794,-6.0086,-5.9439,-5.8947,-5.8731,-5.8085,-5.6964,-5.7518,-5.71,-5.5684,-5.513,-5.4514,-5.3837,-5.3252,-5.2944,-7.5815,-7.6892,-7.7385,-7.6954,-7.4214,-7.0705,-6.7227,-6.2579,0.0,0.0,0.0,-4.8081,-4.6726,-4.8881,0.0,-5.8824,0.0,0.0,0.0,0.0,-7.9478,0.0,0.0,0.0,0.0,0.0,0.0,0.0,0.0,-8.4095,-8.4896,-8.505,-8.5111,-8.5111,-8.5111,-8.505,-8.4926,-8.3695,-8.3018,-8.2895,-8.1664,-8.1079,-8.1048,-8.0525,-7.9847,-7.9078,-7.8462,0.0,-7.7016,-7.7016,-7.7016,-7.7016,-7.7016,-7.7016,-7.7016,-7.7016,-7.6862,-7.6585,-7.6031,-7.5323,-7.4522,-7.3753,-7.3353,-7.3168,-7.3168,-7.3076,-7.2983,-7.2983,-7.2983,-7.2983,-7.2983,-7.2983,-7.2675,-7.1383,-7.0982,-7.0398,-6.8489,-6.7196,-6.6365,-6.6119,-6.5442,-6.4888,-6.4888,-6.4888,-6.4888,-6.4888,-6.4888,-6.4888,-6.4888,-6.4364,-6.3964,-6.3787,-6.2702,-6.1933,-6.1809,-6.1194,-6.0794,-6.0794,-5.9624,-5.9162,-5.9593,-5.8547,-5.7888,-5.7641,-5.7765,-5.71,-5.5684,-5.5592,-5.5191,-5.4498,-5.4406,-5.4083,-7.7724,-7.8308,-7.8308,-7.7262,-7.366,-6.9043,-6.3903,0.0,0.0,0.0,0.0,-4.5834,-4.5187,0.0,0.0,0.0,0.0,0.0,0.0,0.0,0.0,0.0,0.0,0.0,0.0,0.0,0.0,0.0,0.0,-8.5142,-8.5111,-8.5111,-8.5111,-8.5111,-8.5111,-8.4926,-8.4588,-8.3941,-8.3449,-8.308,-8.2064,-8.1602,-8.1571,-8.0555,-7.9724,-7.9047,-7.8339,-7.7662,-7.7016,-7.7016,-7.7016,-7.7016,-7.7016,-7.7016,-7.7016,-7.7016,-7.6585,-7.5907,-7.56,-7.4799,-7.3845,-7.3199,-7.2983,-7.3045,-7.3383,-7.326,-7.2983,-7.2983,-7.2983,-7.2983,-7.2983,-7.2706,-7.2183,-7.1136,-6.9843,-6.8766,-6.8489,-6.6827,-6.5596,-6.6304,-6.5596,-6.4888,-6.4888,-6.4888,-6.4888,-6.4888,-6.4888,-6.4888,-6.4888,-6.4272,-6.3687,-6.3349,-6.2394,-6.1656,-6.1317,-6.0978,-6.0794,-6.0794,-5.9532,-5.907,-5.9747,-5.8824,-5.8146,-5.7826,-5.8165,-5.7623,-5.6238,-5.553,-5.5191,-5.5191,-5.4176,-5.3637,-7.8801,-7.917,-7.8924,-7.7385,-7.2983,-6.7412,-6.1194,-5.5653,0.0,0.0,-4.461,-4.461,-4.461,0.0,0.0,0.0,0.0,0.0,0.0,0.0,0.0,0.0,0.0,0.0,0.0,0.0,0.0,0.0,0.0,0.0,-8.5142,-8.5111,-8.5111,-8.5111,-8.5111,-8.4865,-8.4311,-8.4034,-8.3603,-8.308,-8.2248,-8.1879,-8.1817,-8.0648,-7.9724,-7.9047,-7.8339,-7.7662,-7.7016,-7.7016,-7.7016,-7.7016,-7.7016,-7.7016,-7.7016,-7.6862,-7.6123,-7.5169,-7.4892,-7.4091,-7.3168,-7.3045,-7.2983,-7.3076,-7.363,-7.3414,-7.2983,-7.2983,-7.2983,-7.2983,-7.2983,-7.2491,-7.1752,-7.089,-6.8858,-6.7412,-6.8458,-6.6796,-6.5442,-6.6488,-6.5719,-6.4888,-6.4888,-6.4888,-6.4888,-6.4888,-6.4888,-6.4888,-6.4888,-6.4272,-6.3626,-6.3102,-6.2302,-6.1532,-6.0855,-6.0794,-6.0794,-6.0794,-5.9655,-5.9224,-5.9778,-5.9285,-5.8608,-5.7826,-5.8423,-5.8165,-5.681,-5.5684,-5.5438,-5.5869,-5.4299,-5.3775,-7.9047,-7.954,-7.954,-7.7508,-7.1598,-6.5134,-6.0794,0.0,0.0,0.0,-4.461,-4.461,-4.461,-4.528,0.0,0.0,0.0,0.0,0.0,0.0,0.0,0.0,0.0,0.0,0.0,0.0,0.0,0.0,0.0,0.0,-8.5142,-8.5111,-8.5111,-8.5111,-8.5111,-8.508,-8.5019,-8.3788,-8.3141,-8.308,-8.1787,-8.1171,-8.114,-8.0432,-7.9724,-7.9047,-7.8339,-7.7662,0.0,-7.7016,-7.7016,-7.7016,-7.7016,-7.7016,-7.6954,-7.6338,-7.6031,-7.5754,-7.4522,-7.3999,-7.3814,-7.3199,-7.2983,-7.2983,-7.3045,-7.3045,-7.2983,-7.2983,-7.2983,-7.2983,-7.2983,-7.2491,-7.1629,-7.0305,-6.8889,-6.7873,-6.7997,-6.6858,-6.5842,-6.5965,-6.5411,-6.4888,-6.4888,-6.4888,-6.4888,-6.4888,-6.4888,-6.4888,-6.4888,-6.4272,-6.381,-6.3749,-6.2579,-6.1532,-6.0855,-6.0794,-6.0794,-6.0794,-6.0116,-5.9716,-5.9778,-5.9716,-5.9101,-5.7857,-5.8423,-5.8165,-5.681,-5.6686,-5.6656,-5.6717,-5.6532,-5.6132,-7.8401,-7.9847,-8.0094,-7.7631,-7.1413,-6.4734,-6.0209,0.0,0.0,-4.5064,-4.461,-4.461,-4.461,-4.5126,-4.6326,0.0,0.0,0.0,0.0,0.0,0.0,0.0,0.0,0.0,0.0,0.0,0.0,0.0,0.0,0.0,-8.5142,-8.5111,-8.5111,-8.5111,-8.5111,-8.4896,-8.4495,-8.3972,-8.348,-8.308,-8.2125,-8.1448,-8.1017,-7.9971,-7.9109,-7.8432,-7.7724,-7.7262,0.0,-7.7016,-7.7016,-7.7016,-7.7016,-7.6769,-7.6431,-7.6554,-7.5846,-7.4769,-7.4645,-7.4061,-7.3322,-7.3076,-7.2983,-7.2983,-7.2983,-7.2983,-7.2983,-7.2983,-7.2983,-7.2983,-7.2983,-7.2152,-7.0982,-6.9597,-6.8581,-6.7935,-6.7935,-6.7165,-6.6396,-6.5996,-6.5688,-6.538,-6.498,-6.4888,-6.4888,-6.4888,-6.4888,-6.4888,-6.4888,-6.4641,-6.4303,-6.3872,-6.2979,-6.2148,-6.1471,-6.1409,-6.1225,-6.0824,-6.0178,-5.9778,-5.9778,-5.9778,-5.9162,-5.7857,-5.8423,-5.8165,-5.681,-5.633,-5.6378,-5.6779,-5.5499,-5.5007,-7.6246,-7.8832,-7.9847,-7.7108,-7.0798,-6.4149,0.0,0.0,0.0,-4.5218,-4.4918,-4.4918,-4.4918,-4.5434,-4.6111,0.0,0.0,0.0,0.0,0.0,0.0,0.0,0.0,0.0,0.0,0.0,0.0,0.0,0.0,0.0,-8.5142,-8.5111,-8.5111,-8.5111,-8.4926,-8.4588,-8.4095,-8.3695,-8.3172,-8.2495,-8.1817,-8.114,-8.0463,-7.9293,-7.8493,-7.8001,-7.7323,-7.7016,0.0,-7.7016,-7.7016,-7.6985,-7.68,-7.6431,-7.6031,-7.6092,-7.523,-7.403,-7.4307,-7.3783,-7.2983,-7.2983,-7.2983,-7.2952,-7.2737,-7.2829,-7.2983,-7.2983,-7.2829,-7.2645,-7.2429,-7.1506,-7.0305,-6.9166,-6.8397,-6.7935,-6.7935,-6.7227,-6.6457,-6.5996,-6.575,-6.5442,-6.498,-6.4888,-6.4888,-6.4888,-6.4888,-6.4888,-6.4888,-6.4888,-6.4703,-6.421,-6.3718,-6.2979,-6.1902,-6.1809,-6.1502,-6.0824,-6.0363,-6.0086,-6.0086,-6.0086,-5.9562,-5.8393,-5.8639,-5.8258,-5.7118,-5.6361,-5.6269,-5.6779,-5.5068,-5.436,-7.2306,-7.6031,-7.8462,-7.5723,-6.9382,-6.2948,0.0,0.0,0.0,-4.5711,-4.5588,-4.5588,-4.5588,-4.6142,-4.6819,-4.7496,0.0,0.0,0.0,0.0,0.0,0.0,0.0,0.0,0.0,0.0,0.0,0.0,0.0,0.0,-8.5142,-8.5111,-8.5111,-8.5111,-8.4465,-8.4095,-8.4095,-8.2772,-8.1756,-8.1079,-8.0432,-7.9786,-7.9109,-7.837,-7.8031,-7.8001,-7.7323,-7.7016,0.0,-7.7016,-7.7016,-7.6954,-7.6277,-7.6031,-7.5846,-7.4522,-7.3999,-7.3907,-7.3229,-7.2983,-7.2983,-7.2983,-7.2983,-7.286,-7.2183,-7.246,-7.2983,-7.2983,-7.2491,-7.1813,-7.1105,-7.0428,-6.972,-6.9043,-6.8397,-6.7935,-6.7935,-6.6858,-6.5903,-6.5903,-6.5349,-6.4918,-6.4888,-6.4888,-6.4888,-6.4888,-6.4888,-6.4888,-6.4888,-6.4888,-6.4888,-6.4888,-6.4888,-6.4057,-6.1994,-6.1809,-6.1502,-6.0824,-6.0794,-6.0794,-6.0794,-6.0794,-6.0455,-5.9778,-5.9131,-5.8504,-5.7795,-5.7118,-5.681,-5.6779,-5.6023,-5.4976,-6.5288,-6.8366,-7.012,-6.735,-6.2794,-5.8362,-5.5899,0.0,0.0,-4.6419,-4.6265,-4.6265,-4.6265,-4.6819,-4.7835,-4.9435,-5.0482,0.0,0.0,0.0,0.0,0.0,0.0,0.0,0.0,0.0,0.0,0.0,0.0,0.0,-8.5173,-8.468,-8.4403,-8.4403,-8.4218,-8.3418,-8.2033,-8.1602,-8.0832,-7.9724,-7.9509,-7.9047,-7.837,-7.8124,-7.7785,-7.7323,-7.7108,-7.7016,-7.7016,-7.7016,-7.7016,-7.6954,-7.6277,-7.5723,-7.5261,-7.483,-7.4091,-7.3322,-7.3599,-7.3383,-7.2983,-7.2983,-7.2675,-7.2244,-7.2029,-7.246,-7.2891,-7.2429,-7.1783,-7.1075,-7.0398,-7.0059,-6.972,-6.9043,-6.8735,-6.8335,-6.7412,-6.7596,-6.7412,-6.5565,-6.578,-6.5996,-6.5072,-6.4888,-6.4888,-6.4888,-6.4888,-6.4888,-6.4888,-6.4888,-6.4888,-6.4888,-6.4888,-6.4426,-6.3287,-6.3195,-6.2702,-6.1563,-6.1502,-6.1071,-6.0147,-6.0547,-6.0055,-5.8423,-5.8639,-5.8208,-5.7118,-5.6902,-5.6563,-5.6023,-5.5807,-5.4976,0.0,-6.3102,-6.4826,-6.261,-5.9193,0.0,0.0,0.0,0.0,0.0,0.0,-4.6973,-4.6973,-4.7527,-4.8419,-4.9712,-5.0482,0.0,0.0,0.0,0.0,0.0,0.0,0.0,0.0,0.0,0.0,0.0,0.0,0.0,-8.4773,-8.4342,-8.3757,-8.2987,-8.3203,-8.2618,-8.1079,-8.0832,-8.0032,-7.8709,-7.8709,-7.8339,-7.7662,-7.7662,-7.7416,-7.7016,-7.7016,-7.7016,0.0,-7.7016,-7.7016,-7.6923,-7.6,-7.5384,-7.4953,-7.443,-7.3722,-7.3045,-7.3476,-7.3322,-7.2952,-7.2675,-7.1967,-7.1229,-7.1506,-7.1875,-7.2121,-7.169,-7.1075,-7.0428,-6.9997,-6.969,-6.9413,-6.8982,-6.8889,-6.8674,-6.7843,-6.7904,-6.7658,-6.5965,-6.5934,-6.5873,-6.5042,-6.4888,-6.4888,-6.4888,-6.4888,-6.4888,-6.4888,-6.4888,-6.4888,-6.4888,-6.4888,-6.4703,-6.4272,-6.3749,-6.2979,-6.1871,-6.1563,-6.1163,-6.0578,-6.0701,-6.0086,-5.8547,-5.8701,-5.8239,-5.7179,-5.6933,-5.644,-5.5684,-5.5961,-5.5376,0.0,0.0,0.0,0.0,0.0,0.0,0.0,0.0,0.0,0.0,0.0,0.0,0.0,0.0,-4.8666,-4.8881,0.0,0.0,0.0,0.0,0.0,0.0,0.0,0.0,0.0,0.0,0.0,0.0,0.0,0.0,-8.4126,-8.4003,-8.308,-8.114,-8.1633,-8.1602,-8.0863,-8.0248,-7.9293,-7.797,-7.797,-7.7631,-7.7016,-7.7016,-7.7016,0.0,-7.7016,-7.6985,-7.6954,-7.6954,-7.6923,-7.6739,-7.5446,-7.4922,-7.4769,-7.3476,-7.2983,-7.2983,-7.2983,-7.2952,-7.2798,-7.206,-7.0952,-6.9997,-7.0582,-7.0767,-7.0767,-7.0828,-7.0336,-6.9813,-6.9813,-6.9351,-6.8889,-6.8889,-6.8889,-6.8889,-6.8828,-6.7843,-6.695,-6.6858,-6.5842,-6.4949,-6.4918,-6.4888,-6.4888,-6.4888,-6.4888,-6.4888,-6.4888,-6.4888,-6.4888,-6.4888,-6.4888,-6.4888,-6.4826,-6.3626,-6.261,-6.1933,-6.1255,-6.1132,-6.1717,-6.1132,-6.0486,-5.9809,-5.907,-5.8362,-5.7734,-5.7118,-5.6471,-5.5776,-5.6502,-5.6053,-5.042,0.0,-5.3221,-5.1805,0.0,0.0,0.0,0.0,0.0,0.0,0.0,0.0,0.0,0.0,0.0,0.0,0.0,0.0,0.0,0.0,0.0,0.0,0.0,0.0,0.0,0.0,0.0,0.0,0.0,-8.4803,-8.4126,-8.311,-8.2095,-8.111,-8.074,-8.0001,-7.877,-7.8585,-7.8093,-7.7262,-7.7262,-7.7169,-7.7016,-7.7016,-7.7016,-7.7016,-7.7016,-7.6739,-7.6246,-7.6246,-7.5938,-7.5384,-7.4553,-7.4245,-7.4122,-7.3291,-7.2983,-7.2983,-7.2983,-7.2645,-7.1998,-7.0767,-7.0151,-6.9813,-6.9474,-6.9351,-6.9474,-6.9997,-6.9628,-6.9135,-6.9135,-6.9012,-6.8889,-6.8889,-6.8889,-6.8735,-6.8274,-6.7904,-6.7381,-6.6334,-6.5873,-6.5503,-6.498,-6.4888,-6.4888,-6.4888,-6.4888,-6.4888,-6.4888,-6.4888,-6.4888,-6.4888,-6.4888,-6.4672,-6.4118,-6.3779,-6.3287,-6.2641,-6.1963,-6.1409,-6.104,-6.0886,-6.0486,-5.9809,-5.8608,-5.7734,-5.7056,-5.6902,-5.6717,-5.6563,-5.6717,-5.6347,-4.8604,-4.9158,-4.9558,-4.882,-4.8604,-4.8604,0.0,0.0,0.0,0.0,0.0,0.0,0.0,0.0,0.0,0.0,0.0,0.0,0.0,0.0,0.0,0.0,0.0,0.0,0.0,0.0,0.0,0.0,0.0,-8.4218,-8.3233,-8.2187,-8.1171,-8.0186,-7.9509,-7.8801,-7.8031,-7.8031,-7.7693,-7.7016,-7.7016,-7.7016,-7.7016,-7.7016,-7.7016,-7.7016,-7.7016,-7.6646,-7.6,-7.6,-7.56,-7.4922,-7.4245,-7.3999,-7.3907,-7.3229,-7.2983,-7.2983,-7.2983,-7.2337,-7.1352,-7.0613,-6.9936,-6.9351,-6.9012,-6.8889,-6.8951,-6.932,-6.9166,-6.8889,-6.8889,-6.8889,-6.8889,-6.8889,-6.8889,-6.8705,-6.8058,-6.7689,-6.7165,-6.6119,-6.5657,-6.5319,-6.4949,-6.4888,-6.4888,-6.4888,-6.4888,-6.4888,-6.4888,-6.4888,-6.4888,-6.4888,-6.4888,-6.4734,-6.4364,-6.3718,-6.3195,-6.2825,-6.2179,-6.1656,-6.1286,-6.0948,-6.0332,-5.9347,-5.835,-5.7641,-5.7272,-5.7272,-5.7272,-5.7272,-5.7272,-5.6902,-4.8881,-4.8943,-4.8881,-4.8666,-4.8604,-4.8604,0.0,0.0,0.0,0.0,0.0,0.0,0.0,0.0,0.0,0.0,0.0,0.0,0.0,0.0,0.0,0.0,0.0,0.0,0.0,0.0,0.0,0.0,0.0,-8.3141,-8.2002,-8.1171,-8.0217,-7.8986,-7.8339,-7.797,-7.7877,-7.7877,-7.76,-7.7016,-7.7016,-7.7016,-7.7016,-7.7016,-7.7016,-7.7016,-7.6892,0.0,-7.5846,-7.5754,-7.5292,-7.4645,-7.4061,-7.3845,-7.3783,-7.3199,-7.2983,-7.2952,-7.2737,-7.1813,-7.0736,-7.0644,-6.9813,-6.8889,-6.8889,-6.8889,-6.8889,-6.8889,-6.8889,-6.8889,-6.8889,-6.8889,-6.8889,-6.8889,-6.8889,-6.8735,-6.8181,-6.7473,-6.6735,-6.618,-6.5442,-6.4888,-6.4888,-6.4888,-6.4888,-6.4888,-6.4888,-6.4888,-6.4888,-6.4888,-6.4888,-6.4888,-6.4888,-6.4888,-6.4888,-6.381,-6.3041,-6.2825,-6.2086,-6.1656,-6.1656,-6.1101,-6.0209,-5.8947,-5.827,-5.7919,-5.7826,-5.7826,-5.7765,-5.7672,-5.7765,-5.7457,-5.0051,-5.0389,-5.0082,-4.8912,-4.8604,-4.8604,0.0,0.0,0.0,0.0,0.0,0.0,0.0,0.0,0.0,0.0,0.0,0.0,0.0,0.0,0.0,0.0,0.0,0.0,0.0,0.0,0.0,0.0,-8.2495,-8.1448,-8.1233,-8.0063,-7.9047,-7.8216,-7.8093,-7.7754,-7.7169,-7.7169,-7.7108,-7.7016,-7.7016,-7.7016,-7.7016,-7.7016,-7.7016,-7.6985,0.0,-7.5784,-7.5107,-7.4522,-7.3907,-7.3291,-7.3168,-7.3137,-7.3137,-7.3014,-7.2983,-7.2829,-7.1629,-7.0705,-6.9967,-6.9382,-6.9043,-6.8889,-6.8889,-6.8889,-6.8889,-6.8889,-6.8889,-6.8889,-6.8889,-6.8889,-6.8889,-6.8889,-6.8889,-6.8858,-6.8766,-6.7781,-6.6888,-6.6796,-6.575,-6.4888,-6.4888,-6.4888,-6.4888,-6.4888,-6.4888,-6.4888,-6.4888,-6.4888,-6.4888,-6.4888,-6.4888,-6.4888,-6.4888,-6.4703,-6.4087,-6.2887,-6.1656,-6.0948,-6.0948,-6.0855,-6.0424,-5.9655,-5.8978,-5.8381,-5.7826,-5.7826,-5.7518,-5.6994,-5.7549,-5.7457,-4.9404,-4.9589,-4.9528,-4.9251,-4.9466,-4.9528,0.0,0.0,0.0,0.0,0.0,0.0,0.0,0.0,0.0,0.0,0.0,0.0,0.0,0.0,0.0,0.0,0.0,0.0,0.0,0.0,0.0,-8.2587,-8.1602,-8.074,-8.0032,-7.9078,-7.837,-7.8031,-7.7662,-7.7323,-7.7016,-7.7016,-7.7016,-7.7016,-7.6646,-7.6461,-7.6461,-7.6092,-7.5938,-7.5907,0.0,-7.5076,-7.443,-7.4122,-7.3599,-7.2983,-7.2983,-7.2983,-7.2952,-7.2583,-7.2429,-7.2306,-7.1259,-7.0459,-6.9843,-6.9536,-6.9197,-6.8889,-6.8889,-6.8889,-6.8889,-6.8889,-6.8889,-6.8889,-6.8889,-6.8889,-6.8889,-6.8889,-6.8612,-6.8274,-6.7904,-6.7042,-6.6273,-6.5903,-6.5319,-6.4888,-6.4888,-6.4888,-6.4888,-6.4888,-6.4888,-6.4888,-6.4888,-6.4888,-6.4888,-6.4888,-6.4888,-6.4888,-6.4888,-6.4549,-6.3872,-6.2887,-6.1532,-6.0794,-6.0794,-6.0794,-6.0486,-5.9809,-5.9501,-5.9162,-5.8854,-5.8854,-5.8701,-5.8393,-5.8381,-5.8011,-4.9004,-4.9097,-4.922,-4.9774,0.0,-5.0143,0.0,0.0,0.0,0.0,0.0,0.0,0.0,0.0,0.0,0.0,0.0,0.0,0.0,0.0,0.0,0.0,0.0,0.0,0.0,-8.4495,-8.348,-8.1233,-8.0771,-8.0094,-7.8924,-7.8185,-7.7785,-7.7785,-7.7293,-7.6954,-7.68,-7.68,-7.68,-7.6769,-7.6277,-7.5938,-7.5754,-7.523,-7.5015,-7.4984,-7.483,-7.4461,-7.3968,-7.3814,-7.3445,-7.2983,-7.2983,-7.2983,-7.2891,-7.2214,-7.1875,-7.1629,-7.0921,-7.0213,-6.9659,-6.9659,-6.932,-6.8889,-6.8889,-6.8889,-6.8889,-6.8889,-6.8889,-6.8889,-6.8889,-6.8766,-6.8674,-6.8674,-6.815,-6.7535,-6.7042,-6.6396,-6.575,-6.5226,-6.5011,-6.4888,-6.4888,-6.4888,-6.4888,-6.4888,-6.4888,-6.4888,-6.4888,-6.4888,-6.4888,-6.4888,-6.4888,-6.4888,-6.4888,-6.4087,-6.3379,-6.2856,-6.1532,-6.0794,-6.0794,-6.0794,-6.0547,-6.0024,-5.987,-5.9778,-5.9778,-5.9778,-5.9716,-5.9562,-5.9193,-5.8577,-5.0174,-5.0543,-5.0543,-5.0605,0.0,0.0,0.0,0.0,0.0,0.0,0.0,0.0,0.0,0.0,0.0,0.0,0.0,0.0,0.0,0.0,0.0,0.0,0.0,-8.388,-8.3295,-8.2649,-8.1941,-8.114,-7.994,-7.8893,-7.8154,-7.7477,-7.7077,-7.7077,-7.7046,-7.6708,-7.6092,-7.6092,-7.6092,-7.6092,-7.6031,-7.5692,-7.5076,-7.5015,-7.5015,-7.4953,-7.4338,-7.403,-7.3937,-7.3322,-7.3014,-7.2983,-7.2983,-7.2983,-7.2891,-7.2214,-7.1567,-7.089,-7.0213,-6.9536,-6.8951,-6.8951,-6.892,-6.8889,-6.8889,-6.8889,-6.8889,-6.8889,-6.8889,-6.8889,-6.8889,-6.8458,-6.7997,-6.7997,-6.7473,-6.6981,-6.6919,-6.6396,-6.5903,-6.5842,-6.5319,-6.4888,-6.4888,-6.4888,-6.4888,-6.4888,-6.4888,-6.4888,-6.4888,-6.4888,-6.4888,-6.4888,-6.4888,-6.4888,-6.4888,-6.3656,-6.2856,-6.2825,-6.1532,-6.0794,-6.0794,-6.0794,-6.0763,-6.0732,-6.0116,-5.9778,-5.9778,-5.9778,-5.947,-5.8885,-5.9439,-5.9008,-4.9251,-5.002,-5.0605,-5.0174,0.0,0.0,0.0,0.0,0.0,0.0,0.0,0.0,0.0,0.0,0.0,0.0,0.0,0.0,0.0,0.0,0.0,0.0,-8.3326,-8.3203,-8.2525,-8.1848,-8.1017,-7.994,-7.8955,-7.8124,-7.7447,-7.7169,-7.7016,-7.7016,-7.6615,-7.6277,-7.6,-7.56,-7.5169,-7.4769,-7.4769,-7.483,-7.4984,-7.4122,-7.3753,-7.3722,-7.3476,-7.3353,-7.3353,-7.3076,-7.2983,-7.2983,-7.2983,-7.2737,-7.2275,-7.1567,-7.0859,-7.0182,-6.9505,-6.9105,-6.8889,-6.8889,-6.8889,-6.8889,-6.8889,-6.8889,-6.8889,-6.8889,-6.8889,-6.8889,-6.8889,-6.8397,-6.7935,-6.7935,-6.7104,-6.6273,-6.6273,-6.575,-6.5288,-6.5288,-6.5072,-6.4888,-6.4888,-6.4888,-6.4888,-6.4888,-6.4888,-6.4888,-6.4888,-6.4888,-6.4888,-6.4888,-6.4888,-6.4888,-6.4888,-6.3995,-6.3256,-6.2856,-6.1532,-6.0794,-6.0794,-6.0794,-6.0794,-6.0794,-6.0547,-6.0424,-6.0424,-6.0424,-6.027,-6.0024,-5.987,-5.9285,-4.8604,-4.9312,-4.9989,0.0,0.0,0.0,0.0,0.0,0.0,0.0,0.0,0.0,0.0,0.0,0.0,0.0,0.0,0.0,0.0,0.0,0.0,0.0,-8.2587,-8.2187,-8.151,-8.0832,-7.9971,-7.8832,-7.8308,-7.7724,-7.7046,-7.6831,-7.6708,-7.6708,-7.6031,-7.56,-7.5384,-7.4922,-7.4461,-7.3999,-7.3783,-7.3907,-7.4338,-7.3414,-7.2983,-7.2983,-7.2983,-7.286,-7.2675,-7.2675,-7.2521,-7.2337,-7.2583,-7.2244,-7.1567,-7.1075,-7.049,-6.9782,-6.9105,-6.8889,-6.8889,-6.8889,-6.8889,-6.8889,-6.8889,-6.8889,-6.8889,-6.8889,-6.8889,-6.8828,-6.8643,-6.8089,-6.7658,-6.7873,-6.6888,-6.5965,-6.618,-6.5688,-6.5226,-6.5226,-6.5042,-6.4888,-6.4888,-6.4888,-6.4888,-6.4888,-6.4888,-6.4888,-6.4888,-6.4888,-6.4888,-6.4888,-6.4888,-6.4888,-6.4888,-6.4241,-6.3533,-6.2856,-6.1748,-6.1009,-6.0824,-6.0794,-6.0794,-6.0794,-6.0794,-6.0794,-6.0794,-6.0794,-6.0794,-6.0794,-6.0332,-5.9747,-4.8604,-4.8635,0.0,0.0,0.0,0.0,0.0,0.0,0.0,0.0,0.0,0.0,0.0,0.0,0.0,0.0,0.0,0.0,0.0,0.0,0.0,-8.2125,-8.1448,-8.0802,-8.0155,-7.9478,-7.8801,-7.8093,-7.8031,-7.7724,-7.7046,-7.6369,-7.6,-7.6,-7.5323,-7.4645,-7.3999,-7.3968,-7.3968,-7.3968,-7.3291,-7.2983,-7.2983,-7.2983,-7.2983,-7.2983,-7.2952,-7.2583,-7.1967,-7.1967,-7.1536,-7.0982,-7.169,-7.1536,-7.089,-7.089,-7.0459,-6.9782,-6.9105,-6.8889,-6.8889,-6.8889,-6.8889,-6.8889,-6.8889,-6.8889,-6.8889,-6.8889,-6.8889,-6.8735,-6.8089,-6.7412,-6.7073,-6.775,-6.6888,-6.6088,-6.6765,-6.6365,-6.5903,-6.5903,-6.5349,-6.4888,-6.4888,-6.4888,-6.4888,-6.4888,-6.4888,-6.4888,-6.4888,-6.4888,-6.4888,-6.4888,-6.4888,-6.4888,-6.4888,-6.4241,-6.3533,-6.2856,-6.2179,-6.1502,-6.0824,-6.0794,-6.0794,-6.0794,-6.0794,-6.0794,-6.0794,-6.0794,-6.0794,-6.0794,-6.0794,-6.0424,-4.8758,0.0,0.0,0.0,0.0,0.0,0.0,0.0,0.0,0.0,0.0,0.0,0.0,0.0,0.0,-7.3568,-7.6892,-7.9694,0.0,0.0,0.0,-8.0709,-8.0094,-7.9601,-7.9417,-7.877,-7.8247,-7.8031,-7.76,-7.7016,-7.6338,-7.6123,-7.5784,-7.5323,-7.4184,-7.3476,-7.3291,-7.2306,-7.1813,-7.1813,-7.1629,-7.2275,-7.366,-7.2706,-7.2275,-7.2244,-7.1752,-7.1413,-7.1229,-7.1229,-7.1105,-7.0921,-7.1136,-7.0798,-7.0182,-7.0182,-6.9751,-6.9105,-6.8427,-6.852,-6.8797,-6.8366,-6.852,-6.8889,-6.8889,-6.8889,-6.8889,-6.8889,-6.8889,-6.8735,-6.8089,-6.7412,-6.6981,-6.7165,-6.6919,-6.655,-6.6273,-6.6057,-6.578,-6.5288,-6.5042,-6.4888,-6.4888,-6.4888,-6.4888,-6.4888,-6.4888,-6.4888,-6.4888,-6.4888,-6.4888,-6.4888,-6.4888,-6.4888,-6.4888,-6.4703,-6.4272,-6.3564,-6.2887,-6.1994,-6.0855,-6.0794,-6.0794,-6.0794,-6.0794,-6.0794,-6.0794,-6.0794,-6.0794,-6.0794,-6.0794,-6.0178,-4.8727,0.0,0.0,0.0,0.0,0.0,0.0,0.0,0.0,0.0,0.0,0.0,0.0,0.0,0.0,0.0,-7.6985,-7.8924,-7.9601,-7.9694,0.0,-7.9694,-7.9109,-7.8678,-7.8678,-7.8031,-7.7631,-7.7631,-7.7016,-7.6431,-7.6031,-7.5507,-7.4892,-7.4214,-7.3137,-7.2429,-7.2152,-7.1321,-7.089,-7.089,-7.089,-7.1567,-7.2737,-7.1906,-7.1536,-7.1506,-7.0798,-7.0336,-7.009,-7.009,-6.9936,-6.9782,-7.0305,-7.009,-6.9505,-6.9505,-6.9074,-6.8397,-6.775,-6.7781,-6.8027,-6.7658,-6.7781,-6.815,-6.8427,-6.8489,-6.8551,-6.8828,-6.8889,-6.8735,-6.8089,-6.7627,-6.7319,-6.7319,-6.7104,-6.6888,-6.6735,-6.6488,-6.6119,-6.5442,-6.5072,-6.4888,-6.4888,-6.4888,-6.4888,-6.4888,-6.4888,-6.4888,-6.4888,-6.4888,-6.4888,-6.4888,-6.4888,-6.4888,-6.4888,-6.4888,-6.458,-6.3872,-6.3441,-6.2733,-6.1656,-6.1071,-6.0794,-6.0794,-6.0794,-6.0794,-6.0794,-6.0794,-6.0794,-6.0794,-6.0794,-6.0363,0.0,0.0,0.0,0.0,0.0,0.0,0.0,0.0,0.0,0.0,0.0,0.0,0.0,0.0,0.0,0.0,-7.7169,-7.8247,-7.8924,-7.9016,-7.9016,-7.9016,-7.837,-7.7939,-7.7939,-7.7323,-7.6923,-7.6923,-7.6407,-7.6039,-7.5852,-7.487,-7.3881,-7.3076,-7.2396,-7.1684,-7.0913,-7.0851,-7.082,-7.082,-7.082,-7.082,-7.082,-7.0826,-7.0736,-7.0582,-6.9997,-6.932,-6.8705,-6.8705,-6.8366,-6.7966,-6.9166,-6.9228,-6.8705,-6.8705,-6.8335,-6.772,-6.7042,-6.6858,-6.6919,-6.6858,-6.6858,-6.7042,-6.7658,-6.7843,-6.7966,-6.8551,-6.8735,-6.8701,-6.8112,-6.7927,-6.7927,-6.7985,-6.7408,-6.7073,-6.7627,-6.7258,-6.6611,-6.5934,-6.5319,-6.4888,-6.4888,-6.4888,-6.4888,-6.4888,-6.4888,-6.4888,-6.4888,-6.4888,-6.4888,-6.4888,-6.4888,-6.4888,-6.4888,-6.4888,-6.4611,-6.3964,-6.3872,-6.3564,-6.2948,-6.1594,-6.0886,-6.0886,-6.0824,-6.0794,-6.0794,-6.0794,-6.0794,-6.0794,-6.0794,-6.0763,0.0,0.0,0.0,0.0,0.0,0.0,0.0,0.0,0.0,0.0,0.0,0.0,0.0,0.0,0.0,0.0,-7.7477,-7.8093,-7.8247,-7.8247,-7.8247,-7.8247,-7.7662,-7.7231,-7.7231,-7.6615,-7.6215,-7.6215,-7.6462,-7.6146,-7.5079,-7.5565,-7.5067,-7.3244,-7.2508,-7.1804,-7.1045,-7.0556,-7.0268,-7.0268,-7.0268,-7.0268,-7.0278,-7.0139,-6.9536,-6.8551,-6.8397,-6.7966,-6.735,-6.735,-6.7258,-6.7165,-6.7442,-6.7473,-6.735,-6.735,-6.7258,-6.7042,-6.6365,-6.6457,-6.6827,-6.6304,-6.6488,-6.695,-6.7104,-6.7135,-6.7165,-6.7289,-6.772,-6.8197,-6.8381,-6.8414,-6.8359,-6.8469,-6.7685,-6.6827,-6.6427,-6.6211,-6.5934,-6.5257,-6.5011,-6.4888,-6.4888,-6.4888,-6.4888,-6.4888,-6.4888,-6.4888,-6.4888,-6.4888,-6.4888,-6.4888,-6.4888,-6.4888,-6.4888,-6.4888,-6.4826,-6.4672,-6.4149,-6.3779,-6.3626,-6.2302,-6.1594,-6.1594,-6.1071,-6.0794,-6.0794,-6.0794,-6.0794,-6.0794,-6.0794,-6.0517,0.0,0.0,0.0,0.0,0.0,0.0,0.0,0.0,0.0,0.0,0.0,0.0,0.0,0.0,0.0,0.0,-7.7323,-7.7539,-7.7539,-7.7539,-7.7539,-7.7539,-7.7231,-7.6892,-7.6554,-7.6734,-7.6743,-7.6431,-7.6567,-7.6358,-7.5624,-7.5169,-7.4245,-7.2789,-7.2046,-7.1367,-7.0655,-7.0267,-7.0105,-7.0105,-7.0105,-7.0105,-7.0086,-6.9517,-6.8577,-6.7442,-6.7442,-6.7042,-6.6457,-6.6796,-6.6735,-6.6457,-6.6796,-6.6919,-6.6888,-6.655,-6.6427,-6.6334,-6.5657,-6.5657,-6.5903,-6.5534,-6.5657,-6.5996,-6.6334,-6.6427,-6.6601,-6.7442,-6.7953,-6.8332,-6.9094,-6.9063,-6.8786,-6.8807,-6.8017,-6.6945,-6.6077,-6.5903,-6.5719,-6.5042,-6.4888,-6.4888,-6.4888,-6.4888,-6.4888,-6.4888,-6.4888,-6.4888,-6.4888,-6.4888,-6.4888,-6.4888,-6.4888,-6.4888,-6.4888,-6.4888,-6.4888,-6.4888,-6.4549,-6.4334,-6.4334,-6.3349,-6.2456,-6.1809,-6.1471,-6.1132,-6.0794,-6.0794,-6.0794,-6.0794,-6.0794,-6.0609,0.0,0.0,0.0,0.0,0.0,0.0,0.0,0.0,0.0,0.0,0.0,0.0,0.0,0.0,0.0,0.0,-7.7016,-7.7016,-7.7016,-7.6923,-7.6831,-7.6831,-7.6739,-7.6461,-7.5877,-7.6494,-7.6803,-7.648,-7.6111,-7.5973,-7.6043,-7.4409,-7.3083,-7.2235,-7.1648,-7.1029,-7.0312,-7.0312,-7.0312,-7.0312,-7.0312,-7.021,-6.9974,-6.9125,-6.8152,-6.7268,-6.71,-6.6616,-6.6029,-6.6391,-6.6242,-6.578,-6.6334,-6.655,-6.6488,-6.5934,-6.5719,-6.5657,-6.5103,-6.4998,-6.5218,-6.5218,-6.5297,-6.5553,-6.6113,-6.6299,-6.6557,-6.8039,-6.8476,-6.884,-6.9911,-6.9798,-6.9394,-6.9394,-6.8583,-6.7557,-6.6299,-6.5831,-6.5621,-6.5256,-6.5218,-6.5218,-6.5218,-6.4998,-6.4888,-6.4888,-6.4888,-6.4888,-6.4888,-6.4888,-6.4888,-6.4888,-6.4888,-6.4888,-6.4888,-6.4888,-6.4888,-6.4888,-6.4888,-6.4888,-6.4888,-6.4334,-6.3441,-6.2179,-6.2056,-6.1656,-6.0978,-6.1101,-6.1101,-6.0978,-6.0978,-6.0978,0.0,0.0,0.0,0.0,0.0,0.0,0.0,0.0,0.0,0.0,0.0,0.0,0.0,0.0,0.0,0.0,-7.7016,-7.7016,-7.7016,-7.6523,-7.6154,-7.6154,-7.563,-7.523,-7.5138,-7.4249,-7.4034,-7.4908,-7.4188,-7.3868,-7.4243,-7.437,-7.3797,-7.2418,-7.2283,-7.1879,-7.1173,-7.1139,-7.1139,-7.1139,-7.1139,-7.0644,-6.9772,-6.9628,-6.9271,-6.8736,-6.7821,-6.7013,-6.6331,-6.5544,-6.5103,-6.5042,-6.5134,-6.5165,-6.5165,-6.5072,-6.5042,-6.5011,-6.4918,-6.5483,-6.6311,-6.6311,-6.691,-6.7701,-6.7797,-6.7829,-6.7829,-6.8078,-6.8562,-6.927,-7.0404,-7.0583,-7.0517,-7.0565,-7.0006,-6.8879,-6.6828,-6.5693,-6.5311,-6.6098,-6.6311,-6.6311,-6.6311,-6.5515,-6.4888,-6.4888,-6.4888,-6.4888,-6.4888,-6.4888,-6.4888,-6.4888,-6.4888,-6.4888,-6.4888,-6.4888,-6.4888,-6.4888,-6.4888,-6.4888,-6.4888,-6.4795,-6.4364,-6.3564,-6.2979,-6.2364,-6.1686,-6.2271,-6.224,-6.1686,-6.1686,-6.1686,0.0,0.0,0.0,0.0,0.0,0.0,0.0,0.0,0.0,0.0,0.0,0.0,0.0,0.0,0.0,0.0,-7.5877,-7.5877,-7.5877,-7.563,-7.5292,-7.4922,-7.5215,-7.5121,-7.434,-7.4902,-7.5394,-7.5511,-7.4977,-7.4722,-7.4917,-7.3905,-7.3071,-7.2428,-7.1988,-7.165,-7.1312,-7.1312,-7.1312,-7.1312,-7.1312,-7.1052,-7.0608,-7.0608,-6.9864,-6.8507,-6.8049,-6.7683,-6.7343,-6.6878,-6.6701,-6.6649,-6.6045,-6.6152,-6.6649,-6.5991,-6.6205,-6.6701,-6.6701,-6.6982,-6.7395,-6.7395,-6.7751,-6.8072,-6.8072,-6.8072,-6.8221,-6.8846,-6.9222,-6.9696,-7.0764,-7.103,-7.103,-7.1077,-7.0356,-6.9427,-6.847,-6.7446,-6.6826,-6.7292,-6.6878,-6.6491,-6.6491,-6.5592,-6.4888,-6.4888,-6.4888,-6.4888,-6.4888,-6.4888,-6.4888,-6.4888,-6.4888,-6.4888,-6.4888,-6.4888,-6.4888,-6.4888,-6.4888,-6.4888,-6.4888,-6.4888,-6.5063,-6.5339,-6.4042,-6.3041,-6.2364,-6.2671,-6.2671,-6.2364,-6.2364,-6.2179,0.0,0.0,0.0,0.0,0.0,0.0,0.0,0.0,0.0,0.0,0.0,0.0,0.0,0.0,0.0,0.0,-7.4892,-7.4892,-7.4522,-7.4491,-7.4279,-7.3695,-7.421,-7.4297,-7.3353,-7.4713,-7.5543,-7.5327,-7.477,-7.4545,-7.4864,-7.3138,-7.2169,-7.2214,-7.1627,-7.1312,-7.1401,-7.1312,-7.1312,-7.1312,-7.1312,-7.1312,-7.1312,-7.1312,-7.0423,-6.8895,-6.8618,-6.8519,-6.847,-6.8221,-6.8072,-6.8021,-6.724,-6.7395,-6.7971,-6.7189,-6.7395,-6.8072,-6.8072,-6.8271,-6.8519,-6.8519,-6.8667,-6.8895,-6.8895,-6.8895,-6.909,-6.9888,-7.0076,-7.0296,-7.1098,-7.1312,-7.1312,-7.1312,-7.0699,-6.9982,-6.9427,-6.8895,-6.8519,-6.8519,-6.782,-6.7292,-6.7292,-6.6438,-6.5592,-6.5351,-6.5297,-6.5187,-6.4943,-6.4888,-6.4888,-6.4888,-6.4888,-6.4888,-6.4888,-6.4888,-6.4888,-6.4888,-6.4888,-6.4888,-6.4888,-6.4888,-6.5297,-6.6098,-6.477,-6.3857,-6.3468,-6.3418,-6.3256,-6.3071,-6.3071,-6.2702,0.0,0.0,0.0,0.0,0.0,0.0,0.0,0.0,0.0,0.0,0.0,0.0,0.0,0.0,0.0,0.0,0.0,-7.4553,-7.326,-7.3076,-7.2983,-7.2594,-7.2102,-7.1861,-7.2143,-7.1734,-7.1838,-7.2911,-7.1704,-7.1437,-7.2518,-7.1819,-7.1435,-7.1668,-7.1401,-7.1367,-7.16,-7.1401,-7.1312,-7.1312,-7.1312,-7.1312,-7.1312,-7.1312,-7.1222,-7.1052,-7.0029,-6.9618,-6.9523,-6.8519,-6.8072,-6.8072,-6.8021,-6.8021,-6.8072,-6.8021,-6.8021,-6.8072,-6.8072,-6.8798,-6.9618,-6.9618,-7.0296,-7.1098,-7.1098,-7.1098,-7.1176,-7.1222,-7.1222,-7.1222,-7.1267,-7.1312,-7.1312,-7.1312,-7.1267,-7.0654,-6.865,-6.8944,-6.9618,-6.9618,-6.9571,-6.9523,-6.9523,-6.8618,-6.7599,-6.6544,-6.6438,-6.6045,-6.5053,-6.4888,-6.4888,-6.4888,-6.4888,-6.4888,-6.4888,-6.4888,-6.4888,-6.4888,-6.4888,-6.4888,-6.4888,-6.4888,-6.4943,-6.4998,-6.4912,-6.5002,-6.5365,-6.4971,-6.4426,-6.3779,-6.3779,-6.341,0.0,0.0,0.0,0.0,0.0,0.0,0.0,0.0,0.0,0.0,0.0,0.0,0.0,0.0,0.0,0.0,0.0,-7.4262,-7.3277,-7.315,-7.2722,-7.1708,-7.2025,-7.2235,-7.1927,-7.2333,-7.2786,-7.3203,-7.2344,-7.1993,-7.2394,-7.1718,-7.112,-7.07,-7.0744,-7.0639,-7.0388,-7.0336,-7.0293,-7.0293,-7.0293,-7.0531,-7.0974,-7.0833,-7.106,-7.1457,-7.0928,-7.0745,-7.0699,-7.0296,-7.0156,-7.011,-6.9379,-6.9523,-7.0063,-6.9379,-6.9571,-7.0156,-7.0156,-7.0423,-7.0745,-7.0745,-7.1007,-7.1312,-7.1312,-7.1312,-7.1312,-7.1312,-7.1312,-7.1312,-7.1312,-7.1312,-7.1312,-7.1312,-7.1312,-7.1098,-7.0296,-7.0469,-7.088,-7.135,-7.0503,-6.9831,-7.0295,-6.9141,-6.7971,-6.7567,-6.693,-6.6332,-6.5991,-6.5351,-6.4888,-6.4888,-6.4888,-6.4888,-6.4888,-6.4888,-6.4888,-6.4888,-6.4888,-6.4888,-6.4888,-6.4888,-6.5242,-6.5884,-6.5938,-6.5683,-6.5141,-6.4985,-6.4518,-6.3841,-6.3841,-6.3817,0.0,0.0,0.0,0.0,0.0,0.0,0.0,0.0,0.0,0.0,0.0,0.0,0.0,0.0,0.0,0.0,0.0,-7.3253,-7.2283,-7.2348,-7.212,-7.1089,-7.1637,-7.1967,-7.1656,-7.2317,-7.2766,-7.2766,-7.2326,0.0,-7.165,-7.121,-7.0646,-6.9955,-7.0052,-6.9986,-6.9688,-6.9646,-6.9603,-6.9603,-6.9688,-6.9885,-7.0354,-7.0506,-7.0881,-7.1314,-7.1399,-7.1356,-7.1312,-7.1312,-7.1312,-7.1222,-7.0515,-7.0654,-7.1222,-7.0482,-7.0699,-7.1312,-7.1312,-7.1312,-7.1312,-7.1312,-7.1312,-7.1312,-7.1312,-7.1312,-7.1312,-7.1312,-7.1312,-7.1312,-7.1312,-7.1312,-7.1312,-7.1312,-7.1312,-7.1312,-7.1312,-7.1515,-7.1819,-7.2293,-7.1451,-7.075,-7.1251,-7.0115,-6.9041,-6.8667,-6.8021,-6.7292,-6.6596,-6.5884,-6.546,-6.546,-6.546,-6.546,-6.546,-6.546,-6.5297,-6.4888,-6.4888,-6.4888,-6.4888,-6.5242,-6.5808,-6.6491,-6.6826,-6.6701,-6.5991,-6.5991,-6.5687,-6.5217,-6.5217,-6.5261,0.0,0.0,0.0,0.0,0.0,0.0,0.0,0.0,0.0,0.0,0.0,0.0,0.0,0.0,0.0,0.0,0.0,-7.1658,-7.0371,-7.0707,-7.1024,-7.0746,-7.0726,-7.0876,-7.1289,-7.1312,-7.1312,-7.1312,-7.1312,-7.0973,-7.0273,-7.0206,-6.9921,-6.939,-6.9365,-6.945,-6.9662,-6.945,-6.9356,-6.9356,-6.9535,-6.9569,-6.9467,-7.0396,-7.0789,-7.0781,-7.1314,-7.1433,-7.1244,-7.1278,-7.1312,-7.1312,-7.1312,-7.1312,-7.1312,-7.1312,-7.1312,-7.1312,-7.1312,-7.1312,-7.1312,-7.1312,-7.1312,-7.1312,-7.1312,-7.1312,-7.1312,-7.1312,-7.1312,-7.1312,-7.1312,-7.1312,-7.1312,-7.1312,-7.1312,-7.1312,-7.1312,-7.1887,-7.2394,-7.2394,-7.2394,-7.236,-7.2394,-7.1785,-7.0961,-6.9888,-6.9713,-6.8944,-6.6826,-6.6544,-6.6544,-6.6491,-6.6491,-6.6491,-6.6438,-6.6438,-6.5991,-6.4998,-6.4943,-6.4943,-6.4998,-6.5991,-6.6544,-6.6544,-6.7599,-6.8122,-6.8122,-6.8154,-6.8072,-6.8039,-6.8089,-6.7782,-5.3911,0.0,0.0,0.0,0.0,0.0,0.0,0.0,0.0,0.0,0.0,0.0,0.0,0.0,0.0,0.0,0.0,0.0,-7.1927,-7.2022,-7.2022,-7.1435,-7.1379,-7.1492,-7.18,-7.1634,-7.159,0.0,-7.1844,-7.1426,-7.0676,-6.9629,-6.9032,-6.9069,-6.8487,-6.8254,-6.8336,-6.8254,-6.8213,-6.8213,-6.8295,-6.8685,-6.9316,-7.0023,-7.0283,-7.0317,-7.0824,-7.0599,-7.0008,-7.0916,-7.1401,-7.1501,-7.1356,-7.1367,-7.1501,-7.1356,-7.1312,-7.1312,-7.1312,-7.1312,-7.1312,-7.1312,-7.1312,-7.1312,-7.1312,-7.1412,-7.1512,-7.1512,-7.1678,-7.1844,-7.1844,-7.1844,-7.1844,-7.1844,-7.1844,-7.1844,-7.1844,-7.239,-7.2801,-7.2485,-7.1988,-7.1785,-7.2326,-7.1785,-7.1222,-7.0916,-7.0203,-6.9475,-6.8863,-6.8122,-6.7343,-6.6596,-6.6491,-6.6205,-6.5406,-6.5351,-6.5538,-6.6045,-6.6045,-6.6385,-6.7189,-6.7497,-6.765,-6.765,-6.8716,-6.9283,-6.9283,-6.847,-6.7862,-6.7426,-6.8157,-6.8177,-5.5587,-5.5213,0.0,0.0,0.0,0.0,-5.6365,-5.7536,-5.9043,0.0,0.0,0.0,0.0,0.0,0.0,0.0,0.0,0.0,-7.1954,-7.2011,-7.1931,-7.1535,-7.1556,-7.1644,-7.181,-7.1776,-7.1718,-7.1541,-7.1507,-7.1029,-6.9935,-6.8466,-6.7728,-6.7965,-6.717,-6.6833,-6.703,-6.7221,-6.7319,-6.7353,-6.7708,-6.82,-6.8688,-6.9439,-6.9742,-6.9776,-7.0283,-7.0183,-6.9748,-7.0342,-7.0842,-7.1158,-7.0982,-7.123,-7.1556,-7.1367,-7.1312,-7.1312,-7.1312,-7.1312,-7.1312,-7.1312,-7.1312,-7.1312,-7.1312,-7.1457,-7.16,-7.16,-7.1776,-7.1985,-7.1985,-7.1985,-7.1985,-7.1985,-7.1985,-7.1985,-7.1985,-7.2327,-7.2649,-7.2688,-7.2282,-7.2022,-7.2463,-7.183,-7.1312,-7.1312,-7.0745,-7.0203,-6.9794,-6.9202,-6.8634,-6.8021,-6.8072,-6.7871,-6.726,-6.7208,-6.7208,-6.7311,-6.6846,-6.7054,-6.8072,-6.8072,-6.8321,-6.8765,-6.9841,-7.0389,-7.0389,-6.9746,-6.9229,-6.8847,-6.919,-6.9264,-5.6713,-5.6474,-5.7124,-5.9904,-5.7981,0.0,-5.8508,-5.8051,-5.7448,-5.843,0.0,0.0,0.0,0.0,0.0,0.0,0.0,0.0,-7.1266,-7.1334,-7.1266,-7.1266,-7.1386,-7.145,-7.146,-7.1557,-7.1379,-7.0661,-7.0456,-6.9807,-6.848,-6.7044,-6.6371,-6.6603,-6.5754,-6.5456,-6.5838,-6.6441,-6.6701,-6.6701,-6.7581,-6.7959,-6.7834,-6.8791,-6.9222,-6.9147,-6.9776,-6.9928,-6.9818,-6.9617,-6.9919,-7.0556,-7.0512,-7.0954,-7.1556,-7.1367,-7.1312,-7.1312,-7.1312,-7.1356,-7.1356,-7.1356,-7.1356,-7.1356,-7.1356,-7.1501,-7.1688,-7.1732,-7.1864,-7.2072,-7.2072,-7.2072,-7.2072,-7.2072,-7.2072,-7.2072,-7.2072,-7.2072,-7.2277,-7.2927,-7.2799,-7.2575,-7.2575,-7.1853,-7.1356,-7.1356,-7.1356,-7.1052,-7.0076,-7.0136,-7.015,-7.0056,-7.0243,-7.0335,-7.0243,-7.0196,-6.9741,-6.8699,-6.7705,-6.7585,-6.847,-6.8519,-6.8911,-6.9902,-7.0837,-7.1356,-7.1356,-7.1312,-7.1312,-7.1312,-7.0679,-7.0713,-5.7775,-5.75,-5.7567,-5.7432,-5.7396,0.0,-5.6371,-5.685,-5.7534,0.0,0.0,0.0,0.0,0.0,0.0,0.0,0.0,0.0,0.0,-7.1473,-7.1225,-7.1225,-7.072,-7.0462,-7.0602,-6.9962,-6.955,-6.9617,-6.8447,-6.762,-6.7345,-6.645,-6.6006,-6.6045,-6.5868,-6.5688,-6.5572,-6.6328,-6.6701,-6.6701,-6.7336,-6.7678,-6.7834,-6.8595,-6.867,-6.8154,-6.9032,-6.891,-6.8036,-6.8326,-6.9337,-7.0738,-7.0556,-7.0954,-7.1556,-7.1367,-7.1312,-7.1312,-7.1501,-7.1512,-7.1556,-7.1766,-7.1854,-7.1854,-7.1854,-7.1985,-7.2245,-7.2416,-7.2544,-7.2544,-7.2544,-7.2544,-7.2544,-7.2544,-7.2544,-7.2544,-7.2544,-7.2544,-7.2613,-7.275,-7.2277,-7.1749,-7.1604,-7.1558,-7.1512,-7.1512,-7.1722,-7.1766,-7.1556,-7.16,-7.13,-7.0415,-7.0369,-7.0056,-6.9217,-6.8894,-6.9169,-6.9963,-6.9599,-6.9963,-7.121,-7.0996,-7.103,-7.121,-7.1423,-7.1678,-7.1854,-7.1491,-7.1312,-7.1312,-7.1287,-7.142,-5.9701,-5.953,-5.9461,-5.9013,-5.8668,0.0,0.0,-5.7089,-5.7089,-5.7294,0.0,0.0,0.0,0.0,0.0,0.0,0.0,0.0,0.0,-6.8912,-6.9172,-6.8795,-6.8576,-6.8458,-6.8544,-6.8544,-6.824,-6.7635,-6.6497,-6.5842,-6.5842,-6.5152,-6.491,-6.529,-6.4945,-6.47,-6.4553,-6.531,-6.5895,-6.6308,-6.6946,-6.7422,-6.7799,-6.8298,-6.8183,-6.7713,-6.8412,-6.8303,-6.7678,-6.7999,-6.8739,-6.973,-7.0013,-7.0583,-7.1256,-7.141,-7.1546,-7.1634,-7.1766,-7.181,-7.181,-7.1942,-7.1985,-7.1985,-7.1985,-7.2159,-7.2373,-7.2628,-7.2713,-7.2713,-7.2713,-7.2713,-7.2713,-7.2713,-7.2713,-7.2713,-7.2713,-7.2713,-7.2671,-7.2544,-7.2167,-7.1942,-7.181,-7.181,-7.181,-7.181,-7.1898,-7.1985,-7.1985,-7.2072,-7.1951,-7.1399,-7.1488,-7.1321,-7.0793,-7.0623,-7.0793,-7.131,-7.0702,-7.0827,-7.1942,-7.1344,-7.1255,-7.181,-7.181,-7.1854,-7.1985,-7.1766,-7.1668,-7.1668,-7.1766,-7.181,-6.1358,-6.153,-6.1668,-6.1358,-6.0703,-5.9874,0.0,0.0,0.0,0.0,0.0,0.0,0.0,0.0,0.0,0.0,0.0,0.0,0.0,-6.4916,0.0,-6.5812,-6.573,-6.5744,-6.5881,-6.6312,-6.6117,-6.5083,-6.4289,-6.391,-6.4048,-6.3462,-6.3427,-6.4014,-6.36,-6.3393,-6.3393,-6.4255,-6.5083,-6.5911,-6.6596,-6.7237,-6.7799,-6.7999,-6.7879,-6.7557,-6.7919,-6.7959,-6.7799,-6.7999,-6.8183,-6.8466,-6.9431,-7.0209,-7.0874,-7.146,-7.181,-7.1985,-7.2029,-7.2072,-7.2072,-7.2115,-7.2115,-7.2115,-7.2115,-7.2245,-7.2416,-7.2628,-7.2713,-7.2713,-7.2713,-7.2713,-7.2713,-7.2713,-7.2713,-7.2713,-7.2713,-7.2713,-7.2628,-7.2416,-7.2373,-7.2373,-7.2245,-7.2159,-7.2072,-7.2072,-7.2072,-7.2115,-7.2115,-7.2288,-7.2373,-7.2373,-7.2586,-7.2713,-7.2713,-7.2628,-7.2544,-7.2416,-7.1532,-7.1355,-7.2115,-7.1266,-7.1176,-7.2029,-7.2072,-7.2072,-7.2115,-7.2115,-7.2072,-7.1985,-7.2029,-7.2072,-6.1496,-6.2289,-6.3013,-6.1634,-6.2703,-6.3151,-5.9737,0.0,-5.922,-5.7256,0.0,0.0,0.0,0.0,0.0,0.0,0.0,0.0,-5.8944,-6.0047,-6.1734,-6.3664,-6.2735,-6.2184,-6.2908,-6.1841,-6.1289,-6.1772,-6.1116,-6.1013,-6.1668,-6.1599,-6.1599,-6.1668,-6.2289,-6.2599,-6.2599,-6.3979,-6.5083,-6.5911,-6.6441,-6.7118,-6.7799,-6.7839,-6.7799,-6.7759,-6.7799,-6.7839,-6.7799,-6.7839,-6.7753,-6.779,-6.9426,-7.0251,-7.0658,-7.1625,-7.1985,-7.2029,-7.2202,-7.2288,-7.2331,-7.2544,-7.2628,-7.2628,-7.2628,-7.2628,-7.2671,-7.2671,-7.2713,-7.2713,-7.2713,-7.2713,-7.2713,-7.2713,-7.2713,-7.2713,-7.2713,-7.2713,-7.2671,-7.2671,-7.2628,-7.2501,-7.2115,-7.2159,-7.2288,-7.2288,-7.2459,-7.2628,-7.2628,-7.2628,-7.2628,-7.2628,-7.2671,-7.2713,-7.2713,-7.2501,-7.2459,-7.2628,-7.2296,-7.2253,-7.2586,-7.2253,-7.2124,-7.2288,-7.2288,-7.2373,-7.2628,-7.2628,-7.2416,-7.1985,-7.2202,-7.2288,-6.2841,-6.4048,-6.5083,-6.3117,-6.3669,-6.4048,-6.1599,-6.0944,-6.0461,-5.9047,0.0,0.0,0.0,0.0,0.0,0.0,-5.815,0.0,0.0,0.0,-5.8219,0.0,0.0,0.0,-6.0392,-5.9875,-5.9461,-5.9357,-5.9047,-5.9185,-5.9944,-5.9978,-6.0392,-6.1289,-6.1634,-6.2013,-6.2496,-6.3082,-6.4014,-6.5221,-6.5903,-6.6303,-6.6495,-6.7507,-6.7565,-6.6947,-6.7673,-6.7919,-6.7799,-6.7919,-6.7879,-6.7781,-6.9123,-6.9893,-7.043,-7.1713,-7.2288,-7.2416,-7.2501,-7.2544,-7.2544,-7.2671,-7.2713,-7.2713,-7.2713,-7.2713,-7.2713,-7.2713,-7.2713,-7.2713,-7.2713,-7.2713,-7.2713,-7.2713,-7.2713,-7.2713,-7.2713,-7.2713,-7.2713,-7.2713,-7.2713,-7.2628,-7.2416,-7.2459,-7.2544,-7.2544,-7.2628,-7.2713,-7.2713,-7.2713,-7.2713,-7.2713,-7.2713,-7.2713,-7.2713,-7.2586,-7.2586,-7.2671,-7.2586,-7.2586,-7.2671,-7.2586,-7.2544,-7.2544,-7.2544,-7.2586,-7.2713,-7.2713,-7.2586,-7.2416,-7.2501,-7.2544,-6.3841,-6.5393,-6.6704,-6.422,-6.4324,-6.4565,-6.2875,-6.2358,-6.191,-6.0737,-6.0358,0.0,0.0,0.0,-5.8081,-5.8185,0.0,-5.7219,0.0,-5.5977,0.0,0.0,0.0,0.0,0.0,-5.7909,-5.7736,-5.7598,-5.7391,-5.7598,-5.8357,-5.8599,-5.9219,-6.0323,-6.0771,-6.1289,-6.1841,-6.2289,-6.3117,-6.4393,-6.5186,-6.5593,-6.5645,-6.7109,-6.734,-6.6542,-6.7575,-6.7999,-6.7919,-6.7999,-6.7925,-6.7988,-6.894,-6.9658,-7.0361,-7.1591,-7.2337,-7.2713,-7.2713,-7.2713,-7.2713,-7.2713,-7.2713,-7.2713,-7.2713,-7.2713,-7.2713,-7.2713,-7.2713,-7.2713,-7.2713,-7.2713,-7.2713,-7.2713,-7.2713,-7.2713,-7.2713,-7.2713,-7.2713,-7.2713,-7.2713,-7.2713,-7.2713,-7.2713,-7.2713,-7.2713,-7.2713,-7.2713,-7.2713,-7.2713,-7.2713,-7.2713,-7.2713,-7.2713,-7.2713,-7.2713,-7.2713,-7.2713,-7.2713,-7.2713,-7.2713,-7.2713,-7.2713,-7.2713,-7.2713,-7.2713,-7.2713,-7.2713,-7.2713,-7.2713,-7.2713,-7.2713,-6.4014,-6.5773,-6.7359,-6.4358,-6.4738,-6.5255,-6.3013,-6.3565,-6.3945,-6.1737,-6.2427,-6.2979,-6.1461,-6.1185,-6.0668,-5.9219,-5.9012,0.0,0.0,0.0,0.0,0.0,0.0,0.0,0.0,-5.5081,-5.5253,-5.6736,-5.6115,-5.6046,-5.684,-5.7564,-5.7978,-5.8012,-5.9461,-6.0254,-6.0254,-6.1737,-6.2875,-6.3634,-6.4393,-6.5152,-6.5911,-6.6669,-6.7014,-6.6975,-6.7536,-6.7919,-6.8078,-6.7879,-6.7919,-6.8187,-6.898,-6.9739,-7.0463,-7.1256,-7.2015,-7.2713,-7.2713,-7.2713,-7.2713,-7.2713,-7.2713,-7.2713,-7.2713,-7.2713,-7.2713,-7.2713,-7.2713,-7.2713,-7.2713,-7.2713,-7.2713,-7.2713,-7.2713,-7.2713,-7.2713,-7.2713,-7.2713,-7.2713,-7.2713,-7.2713,-7.2713,-7.2713,-7.2713,-7.2713,-7.2713,-7.2713,-7.2713,-7.2713,-7.2713,-7.2713,-7.2713,-7.2713,-7.2713,-7.2713,-7.2713,-7.2713,-7.2713,-7.2713,-7.2713,-7.2713,-7.2713,-7.2713,-7.2713,-7.2713,-7.2713,-7.2713,-7.2713,-7.2713,-7.2713,-7.2713,-6.6842,-6.8428,-6.9497,-6.5979,-6.6255,-6.6635,-6.3841,-6.4393,-6.4841,-6.2565,-6.3289,-6.3703,-6.1668,-6.1289,-6.0978,-5.9944,-5.9357,-5.8426,0.0,0.0,0.0,0.0,0.0,0.0,0.0,0.0,-5.4736,-5.5253,-5.5046,-5.5012,-5.5253,-5.5977,-5.6633,-5.715,-5.815,-5.9185,-6.0185,-6.1185,-6.2082,-6.2875,-6.4117,-6.46,-6.4427,-6.6186,-6.6704,-6.6324,-6.7487,-6.8039,-6.8083,-6.8039,-6.8044,-6.8118,-6.8394,-6.9256,-7.0463,-7.1222,-7.1981,-7.2713,-7.2713,-7.2713,-7.2713,-7.2713,-7.2713,-7.2713,-7.2713,-7.2713,-7.2713,-7.2713,-7.2713,-7.2713,-7.2713,-7.2713,-7.2713,-7.2713,-7.2713,-7.2713,-7.2713,-7.2713,-7.2713,-7.2713,-7.2713,-7.2713,-7.2713,-7.2713,-7.2713,-7.2713,-7.2713,-7.2713,-7.2713,-7.2713,-7.2713,-7.2713,-7.2713,-7.2713,-7.2713,-7.2713,-7.2713,-7.2713,-7.2713,-7.2713,-7.2713,-7.2713,-7.2713,-7.2713,-7.2713,-7.2713,-7.2713,-7.2713,-7.2713,-7.2713,-7.2713,-7.2713,-6.8394,-6.9566,-7.0394,-6.7394,-6.7394,-6.7428,-6.4979,-6.5566,-6.6117,-6.4117,-6.4462,-6.4669,-6.322,-6.2255,-6.1461,-6.0703,-5.9495,-5.8012,0.0,-5.515,0.0,0.0,0.0,0.0,0.0,-5.4253,-5.4218,-5.4494,-5.4253,-5.4218,-5.4494,-5.5219,-5.5977,-5.6771,-5.7529,-5.8495,-5.9771,-6.0806,-6.1565,-6.2082,-6.36,-6.4048,-6.3669,-6.5669,-6.6324,-6.5979,-6.7463,-6.8083,-6.8083,-6.8083,-6.8083,-6.8118,-6.8428,-6.9291,-7.0429,-7.0912,-7.1774,-7.2713,-7.2713,-7.2713,-7.2713,-7.2713,-7.2713,-7.2713,-7.2713,-7.2713,-7.2713,-7.2713,-7.2713,-7.2713,-7.2713,-7.2713,-7.2713,-7.2713,-7.2713,-7.2713,-7.2713,-7.2713,-7.2713,-7.2713,-7.2713,-7.2713,-7.2713,-7.2713,-7.2713,-7.2713,-7.2713,-7.2713,-7.2713,-7.2713,-7.2713,-7.2713,-7.2713,-7.2713,-7.2713,-7.2713,-7.2713,-7.2713,-7.2713,-7.2713,-7.2713,-7.2713,-7.2946,-7.3464,-7.2946,-7.2989,-7.3464,-7.2989,-7.2713,-7.2713,-7.2713,-7.2713]},{"header":{"parameterUnit":"m.s-1","parameterCategory":1,"la1":30.6,"la2":29.2853,"lo1":-89.7004,"lo2":-87.6739,"dy":0.0162,"dx":0.0183,"nx":112,"ny":82,"refTime":"2023-06-11T12:00:00:Z","depth":0,"parameterNumber":3,"parameterNumberName":"V-component_of_WINDS"},"data":[0.0,0.0,0.0,0.0,0.0,0.0,0.0,0.0,0.0,0.0,0.0,0.0,0.0,0.0,0.0,0.0,0.0,0.0,0.0,0.0,0.0,0.0,0.0,0.0,0.0,0.0,0.0,0.0,0.0,0.0,0.0,0.0,0.0,0.0,0.0,0.0,0.0,0.0,0.0,0.0,0.0,0.0,0.0,0.0,0.0,0.0,0.0,0.0,0.0,0.0,0.0,0.0,0.0,0.0,0.0,0.0,0.0,0.0,0.0,0.0,0.0,0.0,0.0,0.0,0.0,0.0,0.0,0.0,0.0,0.0,0.0,0.0,0.0,0.0,0.0,0.0,0.0,0.0,0.0,0.0,0.0,0.0,0.0,0.0,0.0,0.0,0.0,0.0,0.0,0.0,-4.0018,-4.4981,-5.2043,-5.6203,-5.5794,-5.4688,-5.1321,-4.4933,0.0,0.0,0.0,0.0,0.0,0.0,0.0,0.0,0.0,0.0,0.0,0.0,0.0,0.0,0.0,0.0,0.0,0.0,0.0,0.0,0.0,0.0,0.0,0.0,0.0,0.0,0.0,0.0,0.0,0.0,0.0,0.0,0.0,0.0,0.0,0.0,0.0,0.0,0.0,0.0,0.0,0.0,0.0,0.0,0.0,0.0,0.0,0.0,0.0,0.0,0.0,0.0,0.0,0.0,0.0,0.0,0.0,0.0,0.0,0.0,0.0,0.0,0.0,0.0,0.0,0.0,0.0,0.0,0.0,0.0,0.0,0.0,0.0,0.0,0.0,0.0,0.0,0.0,0.0,0.0,0.0,0.0,0.0,0.0,0.0,0.0,0.0,0.0,0.0,0.0,0.0,0.0,0.0,0.0,0.0,0.0,0.0,0.0,0.0,0.0,0.0,0.0,0.0,0.0,-4.187,-5.0191,-5.4568,-5.7045,-5.7405,-5.3654,-4.9686,-4.5934,0.0,0.0,0.0,0.0,0.0,0.0,0.0,0.0,0.0,0.0,0.0,0.0,0.0,0.0,0.0,0.0,0.0,0.0,0.0,0.0,0.0,0.0,0.0,0.0,0.0,0.0,0.0,0.0,0.0,0.0,0.0,0.0,0.0,0.0,0.0,0.0,0.0,0.0,0.0,0.0,0.0,0.0,0.0,0.0,0.0,0.0,0.0,0.0,0.0,0.0,0.0,0.0,0.0,0.0,0.0,0.0,0.0,0.0,0.0,0.0,0.0,0.0,0.0,0.0,0.0,0.0,0.0,0.0,0.0,0.0,0.0,0.0,0.0,0.0,0.0,0.0,0.0,0.0,0.0,0.0,0.0,0.0,0.0,0.0,0.0,0.0,0.0,0.0,0.0,0.0,0.0,0.0,0.0,0.0,0.0,0.0,0.0,0.0,0.0,0.0,0.0,0.0,0.0,-4.1076,-4.5357,-5.2355,-5.5458,-5.7117,-5.7357,-5.4063,-5.0263,-4.6175,-4.389,0.0,0.0,0.0,0.0,0.0,0.0,0.0,0.0,0.0,0.0,0.0,0.0,0.0,0.0,0.0,0.0,0.0,0.0,0.0,0.0,0.0,0.0,0.0,0.0,0.0,0.0,0.0,0.0,0.0,0.0,0.0,0.0,0.0,0.0,0.0,0.0,0.0,0.0,0.0,0.0,0.0,0.0,0.0,0.0,0.0,0.0,0.0,0.0,0.0,0.0,0.0,0.0,0.0,0.0,0.0,0.0,0.0,0.0,0.0,0.0,0.0,0.0,0.0,0.0,0.0,0.0,0.0,0.0,0.0,0.0,0.0,0.0,0.0,0.0,0.0,0.0,0.0,0.0,0.0,0.0,0.0,0.0,0.0,0.0,0.0,0.0,0.0,0.0,0.0,0.0,0.0,0.0,0.0,0.0,0.0,0.0,0.0,0.0,0.0,0.0,0.0,0.0,-4.5188,-4.8411,-5.3461,-5.5818,-5.7021,-5.7021,-5.4135,-5.0527,-4.6367,-4.3024,0.0,0.0,0.0,0.0,0.0,0.0,0.0,0.0,0.0,0.0,0.0,0.0,0.0,0.0,0.0,0.0,0.0,0.0,0.0,0.0,0.0,0.0,0.0,0.0,0.0,0.0,0.0,0.0,0.0,0.0,0.0,0.0,0.0,0.0,0.0,0.0,0.0,0.0,0.0,0.0,0.0,0.0,0.0,0.0,0.0,0.0,0.0,0.0,0.0,0.0,0.0,0.0,0.0,0.0,0.0,0.0,0.0,0.0,0.0,0.0,0.0,0.0,0.0,0.0,0.0,0.0,0.0,0.0,0.0,0.0,0.0,0.0,0.0,0.0,0.0,0.0,0.0,0.0,0.0,0.0,0.0,0.0,0.0,0.0,0.0,0.0,0.0,0.0,0.0,0.0,0.0,0.0,0.0,0.0,0.0,0.0,0.0,0.0,0.0,0.0,0.0,0.0,-4.591,-4.9782,-5.4087,-5.6035,-5.7021,-5.7021,-5.2764,-4.9109,-4.68,-4.187,0.0,0.0,0.0,0.0,0.0,0.0,0.0,0.0,0.0,0.0,0.0,0.0,0.0,0.0,0.0,0.0,0.0,0.0,0.0,0.0,0.0,0.0,0.0,0.0,0.0,0.0,0.0,0.0,0.0,0.0,0.0,0.0,0.0,0.0,0.0,0.0,0.0,0.0,0.0,0.0,0.0,0.0,0.0,0.0,0.0,0.0,0.0,0.0,0.0,0.0,0.0,0.0,0.0,0.0,0.0,0.0,0.0,0.0,0.0,0.0,0.0,0.0,0.0,0.0,0.0,0.0,0.0,0.0,0.0,0.0,0.0,0.0,0.0,0.0,0.0,0.0,0.0,0.0,0.0,0.0,0.0,0.0,0.0,0.0,0.0,0.0,0.0,0.0,0.0,0.0,0.0,0.0,0.0,0.0,0.0,0.0,0.0,0.0,0.0,0.0,0.0,0.0,-4.6487,-5.0407,-5.464,-5.6251,-5.6876,-5.6564,-5.3878,-5.0449,-4.6463,0.0,0.0,0.0,0.0,0.0,0.0,0.0,0.0,0.0,0.0,0.0,0.0,0.0,0.0,0.0,0.0,0.0,0.0,0.0,0.0,0.0,0.0,0.0,0.0,0.0,0.0,0.0,0.0,0.0,0.0,0.0,0.0,0.0,0.0,0.0,0.0,0.0,0.0,0.0,0.0,0.0,0.0,0.0,0.0,0.0,0.0,0.0,0.0,0.0,0.0,0.0,0.0,0.0,0.0,0.0,0.0,0.0,0.0,0.0,0.0,0.0,0.0,0.0,0.0,0.0,0.0,0.0,0.0,0.0,0.0,0.0,0.0,0.0,0.0,0.0,0.0,0.0,0.0,0.0,0.0,0.0,0.0,0.0,0.0,0.0,0.0,0.0,0.0,0.0,0.0,0.0,0.0,0.0,0.0,0.0,0.0,0.0,0.0,0.0,0.0,0.0,0.0,-4.3265,-4.7185,-5.1081,-5.4977,-5.6371,-5.6804,-5.6275,-5.3733,-5.0471,-4.6415,0.0,0.0,0.0,0.0,0.0,0.0,0.0,0.0,0.0,0.0,0.0,0.0,0.0,0.0,0.0,0.0,0.0,0.0,0.0,0.0,0.0,0.0,0.0,0.0,0.0,0.0,0.0,0.0,0.0,0.0,0.0,0.0,0.0,0.0,0.0,0.0,0.0,0.0,0.0,0.0,0.0,0.0,0.0,0.0,0.0,0.0,0.0,0.0,0.0,0.0,0.0,0.0,0.0,0.0,0.0,0.0,0.0,0.0,0.0,0.0,0.0,0.0,0.0,0.0,0.0,0.0,0.0,0.0,0.0,0.0,0.0,0.0,0.0,0.0,0.0,0.0,0.0,0.0,0.0,0.0,0.0,0.0,0.0,0.0,0.0,0.0,0.0,0.0,0.0,0.0,0.0,0.0,0.0,0.0,0.0,0.0,0.0,0.0,0.0,0.0,0.0,0.0,-4.3877,-4.8074,-5.1922,-5.5073,-5.6371,-5.6804,-5.6251,-5.1826,-4.8411,0.0,0.0,0.0,0.0,0.0,0.0,0.0,0.0,0.0,0.0,0.0,0.0,0.0,0.0,0.0,0.0,0.0,0.0,0.0,0.0,0.0,0.0,0.0,0.0,0.0,0.0,0.0,0.0,0.0,0.0,0.0,0.0,0.0,0.0,0.0,0.0,0.0,0.0,0.0,0.0,0.0,0.0,0.0,0.0,0.0,0.0,0.0,0.0,0.0,0.0,0.0,0.0,0.0,0.0,0.0,0.0,0.0,0.0,0.0,0.0,0.0,0.0,0.0,0.0,0.0,0.0,0.0,0.0,0.0,0.0,0.0,0.0,0.0,0.0,0.0,0.0,0.0,0.0,0.0,0.0,0.0,0.0,0.0,0.0,0.0,0.0,0.0,0.0,0.0,0.0,0.0,0.0,0.0,0.0,0.0,0.0,0.0,0.0,0.0,0.0,0.0,0.0,0.0,-4.3925,-4.8387,-5.2477,-5.5581,-5.6503,-5.6473,-5.5654,-5.2959,-4.9775,-4.6172,0.0,0.0,0.0,0.0,0.0,0.0,0.0,0.0,0.0,0.0,0.0,0.0,0.0,0.0,0.0,0.0,0.0,0.0,0.0,0.0,0.0,0.0,0.0,0.0,0.0,0.0,0.0,0.0,0.0,0.0,0.0,0.0,0.0,0.0,0.0,0.0,0.0,0.0,0.0,0.0,0.0,0.0,0.0,0.0,0.0,0.0,0.0,0.0,0.0,0.0,0.0,0.0,0.0,0.0,0.0,0.0,0.0,0.0,0.0,0.0,0.0,0.0,0.0,0.0,0.0,0.0,0.0,0.0,0.0,0.0,0.0,0.0,0.0,0.0,0.0,0.0,0.0,0.0,0.0,0.0,0.0,0.0,0.0,0.0,0.0,0.0,0.0,0.0,0.0,0.0,0.0,0.0,0.0,0.0,0.0,0.0,0.0,0.0,0.0,0.0,0.0,0.0,-4.4237,-4.8618,-5.2623,-5.5734,-5.6472,-5.6403,-5.5548,-5.3297,-5.0198,-4.605,0.0,0.0,0.0,0.0,0.0,0.0,0.0,0.0,0.0,0.0,0.0,0.0,0.0,0.0,0.0,0.0,0.0,0.0,0.0,0.0,0.0,0.0,0.0,0.0,0.0,0.0,0.0,0.0,0.0,0.0,0.0,0.0,0.0,0.0,0.0,0.0,0.0,0.0,0.0,0.0,0.0,0.0,0.0,0.0,0.0,0.0,0.0,0.0,0.0,0.0,0.0,0.0,0.0,0.0,0.0,0.0,0.0,0.0,0.0,0.0,0.0,0.0,0.0,0.0,0.0,0.0,0.0,0.0,0.0,0.0,0.0,0.0,0.0,0.0,0.0,0.0,0.0,0.0,0.0,0.0,0.0,0.0,0.0,0.0,0.0,0.0,0.0,0.0,0.0,0.0,0.0,0.0,0.0,0.0,0.0,0.0,0.0,0.0,0.0,0.0,0.0,0.0,-4.4732,-4.8791,-5.2523,-5.579,-5.6412,-5.6344,-5.5754,-5.3055,-4.9829,-4.6289,0.0,0.0,0.0,0.0,0.0,0.0,0.0,0.0,0.0,0.0,0.0,0.0,0.0,0.0,0.0,0.0,0.0,0.0,0.0,0.0,0.0,0.0,0.0,0.0,0.0,0.0,0.0,0.0,0.0,0.0,0.0,0.0,0.0,0.0,0.0,0.0,0.0,0.0,0.0,0.0,0.0,0.0,0.0,0.0,0.0,0.0,0.0,0.0,0.0,0.0,0.0,0.0,0.0,0.0,0.0,0.0,0.0,0.0,0.0,0.0,-3.9625,0.0,0.0,0.0,0.0,0.0,0.0,0.0,0.0,0.0,0.0,0.0,0.0,0.0,0.0,0.0,0.0,0.0,0.0,0.0,0.0,0.0,0.0,0.0,0.0,0.0,0.0,0.0,0.0,0.0,0.0,0.0,0.0,0.0,0.0,0.0,0.0,0.0,0.0,0.0,0.0,0.0,-4.5216,-4.9127,-5.2902,-5.6004,-5.6376,-5.6079,-5.5088,-5.3118,-5.0157,-4.6031,-4.4385,0.0,0.0,0.0,0.0,0.0,0.0,0.0,0.0,0.0,0.0,0.0,0.0,0.0,0.0,0.0,0.0,0.0,0.0,0.0,0.0,0.0,0.0,0.0,0.0,0.0,0.0,0.0,0.0,0.0,0.0,0.0,0.0,0.0,0.0,0.0,0.0,0.0,0.0,0.0,0.0,0.0,0.0,0.0,0.0,0.0,0.0,0.0,0.0,0.0,0.0,0.0,0.0,0.0,0.0,0.0,0.0,0.0,0.0,0.0,0.0,-4.076,0.0,0.0,0.0,0.0,0.0,0.0,0.0,0.0,0.0,0.0,0.0,0.0,0.0,0.0,0.0,0.0,0.0,0.0,0.0,0.0,0.0,0.0,0.0,0.0,0.0,0.0,0.0,0.0,0.0,0.0,0.0,0.0,0.0,0.0,0.0,0.0,0.0,0.0,0.0,0.0,-4.534,-4.8993,-5.2515,-5.5657,-5.5953,-5.5726,-5.5151,-5.3578,-5.0888,-4.6811,-4.5022,0.0,0.0,0.0,0.0,0.0,0.0,0.0,0.0,0.0,0.0,0.0,0.0,0.0,0.0,0.0,0.0,0.0,0.0,0.0,0.0,0.0,0.0,0.0,0.0,0.0,0.0,0.0,0.0,0.0,0.0,0.0,0.0,0.0,0.0,0.0,0.0,0.0,0.0,0.0,0.0,0.0,0.0,0.0,0.0,0.0,0.0,0.0,0.0,0.0,0.0,0.0,0.0,0.0,-4.7771,-4.9685,-5.1821,-4.9977,-5.0493,-5.2712,-4.8004,-4.5557,-4.4774,-4.386,0.0,0.0,0.0,0.0,0.0,0.0,0.0,0.0,0.0,0.0,0.0,0.0,0.0,0.0,0.0,0.0,0.0,0.0,0.0,0.0,0.0,0.0,0.0,0.0,-4.2694,-4.2773,-3.9823,0.0,0.0,0.0,0.0,0.0,0.0,0.0,0.0,0.0,0.0,0.0,-4.5575,-4.9001,-5.2316,-5.5233,-5.5349,-5.5239,-5.5239,-5.3953,-5.1619,-4.7956,-4.5993,-4.3795,0.0,0.0,0.0,0.0,0.0,0.0,0.0,0.0,0.0,0.0,0.0,0.0,0.0,0.0,0.0,0.0,0.0,0.0,0.0,0.0,0.0,0.0,0.0,0.0,0.0,0.0,0.0,0.0,0.0,0.0,0.0,0.0,-3.3116,-3.3188,0.0,0.0,0.0,0.0,0.0,0.0,0.0,0.0,0.0,0.0,0.0,0.0,0.0,-4.5546,-5.0317,-5.0436,-5.0729,-5.1346,-5.4471,-5.4511,-5.2016,-5.3233,-5.4577,-5.5784,-5.42,0.0,-4.767,-4.5349,0.0,0.0,0.0,0.0,0.0,0.0,0.0,0.0,0.0,0.0,0.0,0.0,0.0,0.0,0.0,0.0,0.0,0.0,0.0,0.0,0.0,0.0,-4.3241,-4.3732,-4.428,-4.4561,-4.4062,-4.2812,-4.1359,-4.0001,-3.9653,-3.9492,0.0,0.0,0.0,0.0,0.0,0.0,-4.6402,-5.0131,-5.3362,-5.5218,-5.5013,-5.4687,-5.4687,-5.3588,-5.1707,-4.8773,-4.7432,-4.541,-4.2413,-4.1216,0.0,0.0,0.0,0.0,0.0,0.0,0.0,0.0,0.0,0.0,0.0,0.0,0.0,0.0,0.0,0.0,0.0,0.0,0.0,0.0,0.0,0.0,0.0,0.0,0.0,0.0,0.0,0.0,0.0,-3.4934,-3.6276,-3.5122,-3.7235,-3.8028,0.0,0.0,0.0,0.0,0.0,0.0,0.0,0.0,0.0,-4.6986,-4.9525,-5.1895,-5.4083,-5.4879,-5.6168,-5.8064,-5.8193,-5.8999,-6.0231,-5.8955,-5.9257,-6.0725,-5.9184,-5.7174,-5.4749,-5.0406,-4.7082,-4.4533,0.0,0.0,0.0,0.0,-4.1997,-4.2471,-4.389,-4.4395,-4.4419,-4.4515,0.0,0.0,0.0,0.0,0.0,0.0,0.0,-4.2254,0.0,0.0,-4.5814,-4.6054,-4.7061,-4.7734,-4.6899,-4.6224,-4.4901,-4.1988,-4.1062,-4.0373,-3.9231,-3.8785,0.0,0.0,0.0,-4.519,-4.6303,-4.9759,-5.261,-5.4027,-5.374,-5.352,-5.352,-5.3238,-5.1974,-4.9463,-4.8519,-4.6834,-4.4131,-4.2301,-4.0933,0.0,0.0,0.0,0.0,0.0,0.0,0.0,0.0,0.0,0.0,0.0,0.0,0.0,0.0,0.0,0.0,0.0,0.0,0.0,0.0,0.0,0.0,0.0,0.0,0.0,0.0,0.0,0.0,-3.697,-3.8715,-3.6598,-4.0332,-4.1684,0.0,0.0,0.0,0.0,0.0,0.0,-4.5155,-4.9007,-5.1683,-5.2815,-5.5847,-5.7842,-5.8738,-5.8929,-6.0802,-6.4284,-6.1376,-6.2329,-6.6406,-6.3283,-6.2636,-6.39,-6.2381,-6.1321,-6.0362,-5.5029,-5.1259,-4.8531,-4.6687,-4.549,-4.4768,-4.5183,-4.5469,-4.5917,-4.7588,-4.8098,-4.8026,-4.7521,-4.6535,-4.5092,-4.2567,0.0,0.0,0.0,0.0,-4.4082,-4.5405,-4.704,-4.8387,-4.8652,-5.0011,-5.0847,-4.9388,-4.9151,-4.811,-4.4462,-4.3096,-4.2077,-4.0626,-4.0111,0.0,-4.0141,-4.3339,-4.6018,-4.6922,-4.9867,-5.2241,-5.3213,-5.2953,-5.2717,-5.2724,-5.2907,-5.205,-4.9957,-4.9248,-4.788,-4.5454,-4.34,-4.1719,-4.052,0.0,0.0,0.0,0.0,0.0,0.0,0.0,0.0,0.0,0.0,0.0,0.0,0.0,0.0,0.0,0.0,0.0,0.0,0.0,0.0,0.0,0.0,0.0,0.0,0.0,0.0,0.0,0.0,0.0,-3.6688,-4.1436,0.0,0.0,0.0,0.0,-4.3146,-4.7636,-5.0409,-5.0265,-5.3933,-5.6943,-5.8975,-5.9899,-6.2495,-6.6832,-6.3396,-6.409,-6.8886,-6.4768,-6.3816,-6.5703,-6.4222,-6.341,-6.3028,-6.2834,-6.2471,-6.1667,-5.7747,-5.4886,-5.2745,-5.0555,-4.9231,-4.8509,-4.8656,-4.8968,-4.9461,-4.968,-4.9758,-4.9902,-5.0888,-5.0143,-4.8435,-4.6295,-4.5645,0.0,0.0,-4.6078,-4.6992,-4.906,-5.007,-5.0792,-5.1802,-5.2768,-5.3108,-5.2063,-5.1406,-5.0299,-4.7753,-4.6057,-4.4937,-4.4764,0.0,-4.3169,-4.3813,-4.6069,-4.811,-4.9261,-5.1406,-5.3036,-5.3632,-5.3187,-5.2973,-5.3122,-5.27,-5.1792,-5.0272,-4.9633,-4.8175,-4.5792,-4.4565,-4.2823,-4.0435,-3.9922,0.0,0.0,0.0,0.0,0.0,0.0,0.0,0.0,0.0,0.0,0.0,0.0,0.0,0.0,0.0,0.0,0.0,0.0,0.0,0.0,0.0,0.0,0.0,0.0,0.0,0.0,0.0,0.0,-4.3853,-4.8816,0.0,-4.5815,-4.8082,-4.9879,-5.0023,-5.3887,-5.674,-5.7867,-6.0756,-6.3482,-6.5823,-6.5409,-6.6871,-7.0501,-6.6055,-6.597,-7.0181,-6.5672,-6.4562,-6.6395,-6.5274,-6.4278,-6.3508,-6.3489,-6.2959,-6.2068,-6.0392,-5.8389,-5.6179,-5.4325,-5.3125,-5.2447,-5.284,-5.3132,-5.3444,-5.3849,-5.3966,-5.375,-5.2427,-5.0912,-4.9373,-4.8291,-4.8195,-4.8531,-4.8892,-4.9614,-5.0551,-5.1634,-5.2572,-5.3221,-5.3269,-5.3488,-5.3588,-5.3157,-5.2163,-5.1289,-5.0881,-4.8445,-4.6207,-4.5576,-4.4927,-4.4682,-4.539,-4.723,-4.8778,-4.9388,-5.1073,-5.2149,-5.2112,-5.1709,-5.1544,-5.1598,-5.1321,-5.0685,-4.9543,-4.8729,-4.7537,-4.5691,-4.3821,-4.2152,-4.074,-3.9496,-3.8562,0.0,0.0,0.0,0.0,0.0,0.0,0.0,0.0,0.0,0.0,0.0,0.0,0.0,0.0,0.0,0.0,0.0,0.0,0.0,0.0,0.0,0.0,0.0,0.0,0.0,0.0,-4.9531,-4.7866,-5.3951,-5.6315,-5.1189,-5.363,-5.5721,-5.6142,-5.9402,-6.2212,-6.4094,-6.6117,-6.7953,-6.9401,-6.8651,-6.9334,-7.1567,-6.707,-6.7008,-7.1419,-6.6266,-6.5057,-6.7276,-6.5773,-6.4701,-6.4097,-6.373,-6.3251,-6.2503,-6.1885,-6.0505,-5.8807,-5.7765,-5.6924,-5.6253,-5.6464,-5.657,-5.6673,-5.69,-5.69,-5.6419,-5.4303,-5.2884,-5.185,-5.096,-5.1056,-5.1537,-5.1922,-5.2524,-5.3197,-5.3726,-5.4496,-5.5025,-5.4471,-5.4351,-5.4234,-5.3759,-5.2646,-5.185,-5.2158,-4.9951,-4.7828,-4.7255,-4.6816,-4.6758,-4.742,-4.8616,-4.9626,-5.0167,-5.1132,-5.1681,-5.1446,-5.1165,-5.0976,-5.0642,-5.0489,-4.9737,-4.8098,-4.7474,-4.629,-4.4438,-4.2827,-4.1435,-4.0474,-3.9043,-3.821,-3.7974,0.0,0.0,0.0,0.0,0.0,0.0,0.0,0.0,0.0,0.0,0.0,0.0,0.0,0.0,0.0,0.0,0.0,0.0,0.0,0.0,0.0,0.0,0.0,-4.1868,-4.893,-5.2783,-4.8509,-5.6345,-5.9883,-5.409,-5.8236,-6.1312,-6.1369,-6.4083,-6.6581,-6.8434,-6.9595,-6.9992,-6.9523,-6.9498,-6.9769,-7.0337,-6.6347,-6.7028,-7.245,-6.6752,-6.5359,-6.7886,-6.5732,-6.4688,-6.4639,-6.3608,-6.3142,-6.3068,-6.202,-6.1292,-6.0817,-6.0694,-6.0343,-5.9771,-5.9366,-5.9203,-5.9203,-5.882,-5.8295,-5.7694,-5.666,-5.6323,-5.5987,-5.4423,-5.4303,-5.4688,-5.4688,-5.4688,-5.4808,-5.5313,-5.5842,-5.6107,-5.5578,-5.5433,-5.5145,-5.4087,-5.3053,-5.2163,-5.1634,-5.0672,-5.0011,-5.0093,-4.9611,-4.9406,-5.0087,-5.0323,0.0,-5.1677,-5.182,-5.1751,-5.1751,-5.1751,-5.1366,-5.0458,-5.0291,-4.899,-4.6054,-4.5814,-4.4611,-4.2038,-4.1653,-4.0878,-3.9585,-3.8527,-3.7974,-3.7974,0.0,0.0,0.0,0.0,0.0,0.0,0.0,0.0,0.0,0.0,0.0,0.0,0.0,0.0,0.0,0.0,0.0,0.0,0.0,0.0,0.0,0.0,-5.1305,-5.0546,-5.4889,-5.8336,-5.8875,-6.2755,-6.4444,-6.2057,-6.4234,-6.6117,-6.7045,-6.7552,-6.8421,-6.979,-6.8968,-6.8811,-6.9485,-6.8261,-6.8255,-6.9749,-6.5978,-6.5608,-6.8313,-6.5421,-6.4601,-6.5595,-6.5369,-6.5052,-6.4787,-6.4885,-6.4318,-6.3239,-6.2919,-6.2075,-6.093,-6.0507,-6.0192,-6.0071,-5.9988,-5.9905,-5.9905,-5.9822,-5.9402,-5.8897,-5.8608,-5.8007,-5.7285,-5.6852,-5.654,-5.6347,-5.6347,-5.6347,-5.6395,-5.654,-5.6684,-5.6756,-5.6612,-5.6275,-5.5818,-5.5121,-5.4135,-5.3245,-5.274,-5.1778,-5.1006,-5.0941,-5.0519,-5.0519,-5.1215,-5.1129,-5.1066,-5.1352,-5.1376,-5.1306,-5.1049,-5.0978,-5.0761,-5.0111,-4.8594,-4.701,-4.5453,-4.3553,-4.199,-4.0884,-4.0002,-3.9183,-3.8431,-3.8142,-3.7974,0.0,0.0,0.0,0.0,0.0,0.0,0.0,0.0,0.0,0.0,0.0,0.0,0.0,0.0,0.0,0.0,0.0,0.0,0.0,0.0,0.0,0.0,-5.3417,-5.7889,-5.9414,-6.0929,-6.2302,-6.3647,-6.6173,-6.7588,-6.7018,-6.7824,-6.9087,-7.0791,-6.9483,-6.9187,-7.0715,-6.9574,-6.8585,-6.8005,-6.7461,-6.74,-6.8031,-6.5454,-6.5111,-6.706,-6.5277,-6.4505,-6.4796,-6.5113,-6.508,-6.4811,-6.4884,-6.4504,-6.3658,-6.3442,-6.2528,0.0,0.0,0.0,0.0,0.0,-6.0171,-6.0171,-6.0171,-5.9979,-5.9642,-5.9209,-5.88,-5.8343,-5.7694,-5.743,-5.7309,-5.7093,-5.7021,-5.7021,-5.7021,-5.7021,-5.7021,-5.7021,-5.6444,-5.5794,-5.5458,-5.4399,-5.3413,-5.3125,-5.2403,0.0,-5.139,-5.0982,-5.0837,-5.126,-5.1095,-5.0954,-5.0954,-5.0954,-5.0884,-5.0696,-5.0696,-5.0383,-4.9614,-4.8002,0.0,0.0,0.0,-4.0643,-3.9441,-3.8791,0.0,0.0,0.0,-3.7974,-3.7974,-3.7974,0.0,0.0,-3.7829,-3.7805,0.0,0.0,0.0,0.0,0.0,0.0,0.0,0.0,0.0,0.0,0.0,0.0,0.0,0.0,0.0,0.0,-5.8868,-6.3639,-6.7326,-6.6322,-6.5324,-6.5496,-6.7924,-6.9628,-6.9737,-6.971,-7.0399,-7.2417,-6.9988,-6.9071,-7.069,0.0,0.0,0.0,0.0,-6.7041,-6.6067,-6.4918,-6.538,-6.7327,-6.5721,-6.4885,-6.4837,-6.4837,-6.4837,-6.4813,-6.4452,-6.4211,-6.4019,-6.3658,-6.2865,-6.1831,-6.1205,-6.0628,-6.0171,-6.0171,-6.0171,-6.0171,-6.0171,0.0,0.0,-5.9089,-5.9065,-5.9113,-5.7646,-5.7478,-5.7694,-5.7165,-5.7021,-5.7045,-5.7093,-5.7069,-5.7045,-5.7093,-5.6323,-5.5554,-5.5433,-5.4303,-5.3293,-5.3173,-5.2668,-5.2139,-5.1658,-5.1153,-5.0768,-5.072,-5.0696,-5.0696,-5.0696,-5.0696,-5.0696,-5.0696,-5.0696,0.0,-4.9181,-4.805,-4.6126,-4.318,-4.1774,-4.0186,-3.8166,-3.807,-3.807,-3.807,-3.807,-3.8094,-3.8166,-3.8166,-3.8166,-3.8166,-3.8094,-3.807,0.0,0.0,0.0,0.0,0.0,0.0,0.0,0.0,0.0,0.0,0.0,0.0,0.0,0.0,0.0,-5.6491,-6.1138,-6.5581,-6.9213,-6.8283,-6.8306,-7.1119,-7.031,-6.9875,-7.0904,-7.0551,-7.0044,-6.9579,-6.8484,-6.775,-6.7724,-6.737,-6.6762,-6.5791,-6.6373,-6.6615,-6.6397,-6.6151,-6.6055,-6.6057,0.0,0.0,-6.4284,-6.4284,-6.4284,-6.4332,-6.5077,-6.4668,-6.3538,-6.4308,-6.3754,-6.2336,-6.135,-6.0628,-6.0171,-6.0171,-6.0171,-6.0171,-6.0171,-6.0171,-6.0147,-5.9931,-5.9642,-5.9257,-5.8512,-5.8079,0.0,-5.7165,-5.7021,-5.7117,-5.755,-5.7333,-5.7141,-5.755,-5.7165,-5.6468,-5.5578,-5.5169,-5.4688,-5.3846,-5.2932,-5.2259,-5.2139,-5.1682,-5.1201,-5.0768,-5.0696,-5.0696,-5.0696,-5.0696,-5.0696,-5.0696,-5.0696,-5.0263,-4.9181,-4.7714,-4.6054,-4.4093,-4.1846,-3.997,-3.8719,-3.8671,-3.8671,-3.8671,-3.8671,-3.8864,-3.9296,-3.9296,-3.9296,-3.9272,-3.8864,-3.8671,0.0,0.0,0.0,0.0,0.0,0.0,0.0,0.0,0.0,0.0,0.0,-4.6724,0.0,0.0,-5.8741,-6.2058,-6.5688,-6.8808,-7.0988,-7.0569,-7.0934,-7.3253,-7.0899,-6.983,-7.1637,-6.9603,-6.8529,-6.9474,-6.7517,-6.6632,-6.758,-6.6878,-6.6256,-6.5727,-6.6472,-6.6761,-6.6496,-6.6761,-6.6761,-6.6472,-6.5678,-6.5173,-6.4909,-6.438,-6.4115,-6.4139,-6.4404,-6.4211,-6.3754,-6.4019,-6.3514,-6.2504,-6.1686,-6.1037,-6.0532,-6.0267,-6.0171,-6.0171,-6.0171,-6.0171,-6.0123,-5.9859,-5.9594,-5.9281,-5.8752,-5.8416,-5.8103,-5.7574,-5.7405,-5.7478,-5.7742,-5.7405,-5.7165,-5.7694,-5.7213,-5.6395,-5.5578,-5.5385,-5.5073,-5.4015,-5.3606,-5.3197,-5.2403,-5.2067,-5.161,-5.0816,-5.0696,-5.0696,-5.0696,-5.0696,-5.0696,-5.0696,-5.0696,-5.0263,-4.9181,-4.6896,-4.4972,-4.3649,-4.1822,-4.0427,-3.9633,-3.9609,-3.9489,-3.9224,-3.9224,-3.9345,-3.9609,-3.9609,-3.9609,-3.9609,-3.9609,-3.9465,0.0,0.0,0.0,0.0,0.0,0.0,0.0,0.0,-4.3387,-4.654,-4.9936,-5.3402,-5.6889,-6.0162,-6.3432,-6.6644,-6.9142,-7.0975,-7.1589,-7.1599,-7.2152,-7.367,-7.0933,-6.9473,-7.1112,-6.8124,-6.697,-6.9068,-6.6691,-6.5954,-6.7872,-6.7207,-6.6568,-6.6039,-6.6833,-6.7121,-6.6809,-6.7121,-6.729,-6.7266,-6.6208,-6.5654,-6.551,-6.4452,-6.3971,-6.3947,-6.3418,-6.349,-6.3923,-6.3298,-6.2865,-6.2528,-6.1879,-6.135,-6.0893,-6.0364,-6.0171,-6.0171,-6.0171,-6.0171,-6.0099,-5.969,-5.9546,-5.9426,-5.8776,-5.8608,-5.8488,-5.7959,-5.7814,-5.7838,-5.7935,-5.7574,-5.7285,-5.7718,-5.7093,-5.6203,-5.553,-5.5385,-5.5073,-5.4015,-5.4087,-5.3918,-5.2644,-5.2259,-5.1802,-5.084,-5.0696,-5.0696,-5.0696,-5.0696,-5.0696,-5.0696,-5.0696,-5.0263,-4.9181,-4.6367,-4.4251,-4.3289,-4.223,-4.1365,-4.0739,-4.0691,-4.0451,-3.9922,-3.9922,-3.9922,-3.9922,-3.9922,-3.9922,-3.9922,-4.0355,-4.0258,-3.5809,-3.5569,-3.6405,-3.9842,-3.9169,-3.9459,0.0,0.0,-4.7353,-5.1653,-5.4869,-5.7787,-6.081,-6.3942,-6.6059,-6.6037,-6.7686,-6.9129,-6.9806,-6.9319,-6.9968,-7.283,-7.1047,-6.8968,-6.7593,-6.705,-6.6205,-6.4878,-6.5784,-6.6228,-6.5977,-6.7215,-6.7675,-6.7121,-6.7218,-6.7482,-6.7939,-6.7506,-6.729,-6.7266,-6.6208,-6.5462,-6.4957,-6.3899,-6.3418,-6.3394,-6.2889,-6.2961,-6.3346,-6.2384,-6.2215,-6.248,-6.147,-6.1013,-6.0893,-6.0364,-6.0171,-6.0171,-6.0171,-6.0171,-6.0171,-6.0099,-6.0075,-5.9907,-5.8897,-5.8608,-5.8488,-5.7959,-5.7814,-5.7911,-5.8392,-5.8127,-5.7742,-5.779,-5.7357,-5.6636,-5.5626,-5.5385,-5.5073,-5.4015,-5.351,-5.3173,-5.3004,-5.2211,-5.1393,-5.0792,-5.0696,-5.0696,-5.0696,-5.0696,-5.0696,-5.0696,-5.0696,-5.0263,-4.9181,-4.7016,-4.5501,-4.49,-4.3842,-4.2808,-4.1846,-4.1798,-4.1557,-4.1028,-4.1004,-4.1004,-4.1004,-4.1004,-4.1004,-4.1004,-4.1076,-4.0812,-3.6266,-3.6988,0.0,0.0,-4.101,-4.3281,-4.7624,-4.915,-5.0817,-5.4656,-5.7773,-6.0323,-6.2015,-6.4796,-6.6796,0.0,-6.7748,-6.865,-6.8544,-6.8579,-6.8268,-6.716,-6.7093,-6.718,-6.7304,-6.6102,-6.5015,-6.4548,-6.5486,-6.6063,-6.6159,-6.6809,-6.7362,-6.7747,-6.7771,-6.8035,-6.8564,-6.8348,-6.8083,-6.7747,-6.6688,-6.5895,-6.5342,-6.4284,-6.3466,-6.2889,-6.2672,-6.2528,-6.2432,-6.2312,-6.2215,-6.2047,-6.1277,-6.0965,-6.0893,-6.0364,-6.0171,-6.0171,-6.0171,-6.0171,-6.0171,-6.0171,-6.0171,-6.0099,-5.9642,-5.9305,-5.8945,-5.8416,-5.8055,-5.7862,-5.8079,-5.7742,-5.743,-5.7742,-5.7405,-5.6732,-5.5626,-5.565,-5.5482,-5.4087,-5.3894,-5.3774,-5.3173,-5.2716,-5.2115,-5.1297,-5.0912,-5.0696,-5.0696,-5.0696,-5.0696,-5.0696,-5.0143,-4.9565,-4.9109,-4.7136,-4.5838,-4.5597,-4.4525,-4.3649,-4.2904,-4.2856,-4.2471,-4.1653,-4.1653,-4.1485,-4.1172,-4.1172,-4.1172,-4.1172,-4.1172,-4.1076,-3.6867,0.0,0.0,-4.0821,-4.3651,-4.6884,-4.9445,-5.1965,-5.4547,-5.7235,-6.0183,-6.2529,-6.3361,-6.5135,-6.6464,-6.6288,-6.7212,-6.7741,-6.6987,-6.7168,-6.6156,-6.3061,-6.3169,-6.4065,-6.5471,-6.4674,-6.4356,-6.4885,-6.5534,-6.6087,-6.6472,-6.6496,-6.6929,-6.7867,-6.7891,-6.8083,-6.8444,-6.8468,-6.8131,-6.7434,-6.6496,-6.5775,-6.5221,-6.4187,-6.3298,-6.2576,-6.2432,-6.2143,-6.1807,-6.2047,-6.1903,-6.1518,-6.0965,-6.0748,-6.07,-6.0315,-6.0171,-6.0171,-6.0171,-6.0171,-6.0147,-6.0003,-5.9955,-5.9907,-5.9618,-5.9257,-5.8872,-5.8488,-5.8103,-5.7814,-5.7814,-5.7526,-5.7285,-5.7526,-5.7189,-5.654,-5.5602,-5.5602,-5.5385,-5.4063,-5.4135,-5.4159,-5.3413,-5.3029,-5.2596,-5.1826,-5.1129,-5.0696,-5.0696,-5.0696,-5.0696,-5.0696,-4.9734,-4.9084,-4.9084,-4.7281,-4.615,-4.615,-4.5077,-4.4333,-4.3986,-4.3818,-4.3313,-4.2423,-4.2254,-4.1942,-4.1413,-4.1244,-4.1172,-4.1172,-4.1172,-4.1172,0.0,0.0,-4.1386,-4.5594,-4.7832,-4.9838,-5.3106,-5.6199,-5.8704,-5.9912,-6.2301,-6.4587,-6.5815,-6.5632,-6.51,-6.4569,-6.5385,-6.5718,-6.4695,-6.401,-6.3482,-6.2829,-6.0466,-5.922,0.0,-6.2624,-6.4356,-6.4885,-6.5871,-6.6472,-6.6496,-6.6496,-6.6737,-6.729,-6.7314,-6.7314,-6.7338,-6.7338,-6.6809,-6.5775,-6.5221,-6.4692,-6.4139,-6.3105,-6.2624,-6.2552,-6.2047,-6.1807,-6.1758,-6.1229,-6.1013,-6.0941,-6.0412,-6.0195,-6.0195,-6.0171,-6.0171,-6.0171,-6.0171,-6.0171,-6.0075,-5.957,-5.9402,-5.9209,-5.8199,-5.7862,-5.7862,-5.7838,-5.7814,-5.7814,-5.7814,-5.779,-5.767,-5.7165,-5.6636,-5.6107,-5.553,-5.5001,-5.4496,-5.3918,-5.3822,-5.3822,-5.3798,-5.2956,-5.2283,-5.2259,-5.1369,-5.0696,-5.0696,-5.0696,-5.0696,-5.0696,-4.9734,-4.9084,-4.9084,-4.7617,-4.668,-4.668,-4.5694,-4.5053,-4.5029,-4.4525,-4.3997,-4.3481,-4.2976,-4.253,-4.1942,-4.1437,-4.1172,-4.1172,-4.1172,-4.1172,0.0,0.0,-4.6183,-4.8342,-5.1341,-5.4259,-5.6119,-5.7856,-5.9162,-5.9162,-5.9078,-5.8954,-5.9032,-5.9181,-5.944,-5.996,-6.213,-6.3446,-6.2788,-6.3031,-6.2251,-5.9284,-5.9089,0.0,0.0,0.0,0.0,-6.426,-6.5053,-6.5751,-6.6448,-6.6496,-6.6737,-6.7266,-6.729,-6.7121,-6.6761,-6.6761,-6.6232,-6.5173,-6.4644,-6.4308,-6.4091,-6.3057,-6.2768,-6.3057,-6.2552,-6.2119,-6.1782,-6.159,-6.1085,-6.0412,-6.0243,-6.0171,-6.0171,-6.0171,-6.0171,-6.0171,-6.0171,-6.0171,-6.0147,-5.9979,-5.9666,-5.9378,-5.9378,-5.8897,-5.8319,-5.8319,-5.8079,-5.7742,-5.7381,-5.7285,-5.7237,-5.7069,-5.6612,-5.6083,-5.553,-5.4977,-5.4447,-5.3918,-5.3822,-5.3702,-5.3365,-5.3029,-5.2572,-5.1874,-5.1153,-5.0696,-5.0696,-5.0696,-5.0696,-5.0696,-4.9734,-4.9084,-4.9084,-4.7617,-4.6704,-4.6704,-4.5718,-4.5077,-4.5077,-4.4573,-4.4021,-4.3529,-4.3024,-4.2723,-4.2554,-4.1605,-4.1365,-4.1701,-4.1341,-4.1172,-4.276,-4.6223,-4.9589,-5.1393,-5.4471,-5.7309,-5.8175,-5.8752,-5.8897,-5.8175,-5.6612,-5.5145,-5.4423,-5.4111,-5.4568,-5.6371,-5.8223,-5.9859,-6.1061,-6.1133,-6.0219,-5.7862,-5.7983,-5.8007,0.0,0.0,0.0,-6.3634,-6.4524,-6.5294,-6.6159,-6.64,-6.664,-6.6977,-6.7194,-6.7025,-6.6496,-6.6688,-6.6135,-6.4909,-6.4187,-6.3851,-6.3827,-6.2961,-6.2768,-6.3033,-6.2312,-6.1807,-6.1494,-6.1301,-6.0796,-6.0171,-6.0171,-6.0171,-6.0171,-6.0171,-6.0051,-5.9931,-6.0099,-6.0171,-6.0123,-5.9738,-5.9378,-5.9089,-5.9065,-5.8584,-5.8031,-5.8031,-5.779,-5.7454,-5.7117,-5.7021,-5.7021,-5.7021,-5.6468,-5.5842,-5.5482,-5.4832,-5.4159,-5.3654,-5.3558,-5.3389,-5.2884,-5.262,-5.2211,-5.1345,-5.0912,-5.0696,-5.0696,-5.0696,-5.0696,-5.0696,-4.9734,-4.9084,-4.9084,-4.781,-4.6992,-4.6992,-4.6175,-4.5621,-4.5366,-4.4837,-4.4309,-4.3818,-4.3289,-4.2952,-4.2819,-4.1952,-4.1533,-4.1677,-4.1341,-4.1172,-4.6607,-4.9373,-5.1802,-5.4808,-5.7117,-5.8752,-5.9209,-5.8848,-5.8103,-5.6949,-5.4952,-5.3101,0.0,0.0,-5.0768,-5.3894,-5.4207,-5.5506,-5.9666,-5.8584,-5.767,0.0,0.0,0.0,0.0,0.0,0.0,-6.3153,0.0,-6.5101,-6.5702,-6.6208,-6.6496,-6.6496,-6.6977,-6.6977,-6.6448,-6.6905,-6.6376,-6.4861,-6.3827,-6.3346,-6.3322,-6.2817,-6.2576,-6.2528,-6.147,-6.0989,-6.0917,-6.0412,-6.0195,-6.0171,-6.0171,-6.0171,-6.0171,-6.0171,-5.9859,-5.9498,-6.0003,-6.0147,-5.9931,-5.8921,-5.8584,-5.8367,-5.7405,-5.7093,-5.7069,-5.7069,-5.7069,-5.7045,-5.7021,-5.7021,-5.7021,-5.6997,-5.6179,-5.5385,-5.5337,-5.4496,-5.363,-5.3125,-5.3004,-5.2836,-5.2331,-5.1802,-5.1273,-5.0792,-5.0696,-5.0696,-5.0696,-5.0696,-5.0696,-5.0696,-4.9734,-4.9084,-4.9084,-4.8098,-4.7497,-4.7497,-4.6968,-4.6463,-4.5982,-4.5342,-4.4813,-4.4333,-4.3818,-4.3289,-4.2867,-4.2289,-4.1701,-4.122,-4.1196,-4.1172,-5.0239,-5.3485,-5.6275,-5.7478,-5.8488,-5.9017,-5.8367,-5.7165,-5.5482,-5.286,-4.9974,-4.7497,0.0,0.0,0.0,-5.1249,-5.488,0.0,-6.1013,-6.159,0.0,0.0,0.0,-5.9714,-5.9594,-5.969,0.0,0.0,-6.3803,-6.45,-6.6208,-6.6424,-6.6496,-6.6496,-6.6616,-6.6448,-6.5919,-6.5246,-6.4716,-6.4308,-6.3658,-6.3346,-6.3322,-6.2817,-6.2576,-6.2552,-6.1879,-6.135,-6.0965,-6.082,-6.0532,-6.0171,-6.0171,-6.0171,-6.0171,-6.0171,-6.0075,-6.0003,-6.0123,-5.9666,-5.8945,-5.868,-5.8319,-5.8031,-5.8151,-5.7911,-5.7622,-5.7622,-5.7622,-5.7526,-5.7117,-5.7021,-5.6925,-5.6516,-5.589,-5.5193,-5.4399,-5.3726,-5.3101,-5.2572,-5.2163,-5.185,-5.1706,-5.1249,-5.0864,-5.072,-5.0696,-5.0696,-5.0696,-5.0696,-5.0696,-5.0696,-4.9734,-4.9084,-4.9084,-4.8098,-4.7497,-4.7497,-4.6631,-4.6247,-4.6511,-4.5173,-4.4621,-4.4861,-4.401,-4.3457,-4.3313,-4.2423,-4.1894,-4.1749,-4.1365,-4.1172,-5.3582,-5.6227,-5.8271,-5.88,-5.8993,-5.8512,-5.6516,-5.464,-5.2307,-4.8652,-4.5742,0.0,0.0,0.0,0.0,0.0,0.0,0.0,-6.0171,-6.1037,-6.1326,0.0,-6.1638,0.0,-6.1566,-6.1782,-6.2624,0.0,-6.3971,-6.4404,-6.6063,-6.6376,-6.6496,-6.6496,-6.6496,-6.6232,-6.5702,-6.4885,-6.4356,-6.4115,-6.3586,-6.3346,-6.3322,-6.3057,-6.2672,-6.2215,0.0,-6.135,-6.0628,-6.0628,-6.0436,-6.0171,-6.0171,-6.0171,-6.0171,-6.0171,-5.9883,-5.9474,-5.9474,-5.88,-5.8031,-5.8704,-5.844,-5.7862,-5.8175,-5.7886,-5.7454,-5.7454,-5.7454,-5.7381,-5.7093,-5.7021,-5.6876,-5.6371,-5.5794,-5.5097,-5.4039,-5.3606,-5.3173,-5.2427,-5.1658,-5.1153,-5.1153,-5.0912,-5.0696,-5.0696,-5.0696,-5.0696,-5.0696,-5.0696,-5.06,-5.0359,-4.9589,-4.8988,-4.8748,-4.7978,-4.7497,-4.7497,-4.6728,-4.6295,-4.6367,-4.5438,-4.4909,-4.4741,-4.4419,-4.3986,-4.3505,-4.2711,-4.2265,-4.2024,-4.1437,-4.1172,-5.666,-5.8151,-5.9017,-5.9402,-5.8824,-5.7357,-5.4231,-5.1658,-4.8772,-4.4525,0.0,-4.0331,-3.9272,0.0,-4.1701,-4.6006,0.0,-5.2331,-5.88,-5.9305,-6.0147,-6.3177,-6.3153,-6.3129,-6.3706,-6.4043,-6.45,-6.5173,-6.4668,-6.4765,-6.5751,-6.6232,-6.6496,-6.6496,-6.6496,-6.628,-6.5823,-6.5221,-6.4692,-6.4211,-6.3634,-6.3346,-6.3346,-6.3274,-6.272,-6.1807,-6.171,-6.1109,-6.0171,-6.0171,-6.0171,-6.0171,-6.0171,-6.0171,-6.0171,-6.0171,-5.9594,-5.88,-5.8728,-5.8055,-5.743,-5.8656,-5.8464,-5.7694,-5.7694,-5.7381,-5.7021,-5.7021,-5.7021,-5.7021,-5.7021,-5.7021,-5.6876,-5.6275,-5.5746,-5.5097,-5.3966,-5.3606,-5.3245,-5.2355,-5.1393,-5.0696,-5.0696,-5.0696,-5.0696,-5.0696,-5.0696,-5.0696,-5.0696,-5.0648,-5.0407,-4.9926,-4.9325,-4.8796,-4.8339,-4.781,-4.7497,-4.7497,-4.6944,-4.6439,-4.6054,-4.5886,-4.5381,-4.4405,-4.4837,-4.4611,-4.3505,-4.3072,-4.2591,-4.2062,-4.1605,-4.1365,-5.9233,-6.0075,-6.046,-6.0123,-5.7983,-5.5241,-5.2524,-4.8892,0.0,0.0,0.0,-3.7565,-3.6507,-3.819,0.0,-4.5958,0.0,0.0,0.0,0.0,-6.2095,0.0,0.0,0.0,0.0,0.0,0.0,0.0,0.0,-6.5702,-6.6328,-6.6448,-6.6496,-6.6496,-6.6496,-6.6448,-6.6352,-6.539,-6.4861,-6.4765,-6.3803,-6.3346,-6.3322,-6.2913,-6.2384,-6.1782,-6.1301,0.0,-6.0171,-6.0171,-6.0171,-6.0171,-6.0171,-6.0171,-6.0171,-6.0171,-6.0051,-5.9834,-5.9402,-5.8848,-5.8223,-5.7622,-5.7309,-5.7165,-5.7165,-5.7093,-5.7021,-5.7021,-5.7021,-5.7021,-5.7021,-5.7021,-5.678,-5.577,-5.5458,-5.5001,-5.351,-5.2499,-5.185,-5.1658,-5.1129,-5.0696,-5.0696,-5.0696,-5.0696,-5.0696,-5.0696,-5.0696,-5.0696,-5.0287,-4.9974,-4.9948,-4.8988,-4.8387,-4.8291,-4.781,-4.7497,-4.7497,-4.6583,-4.6223,-4.6559,-4.5742,-4.5125,-4.4933,-4.5029,-4.4611,-4.3505,-4.3433,-4.312,-4.2675,-4.2602,-4.2254,-6.0724,-6.1181,-6.1181,-6.0364,-5.755,-5.3942,-4.9926,0.0,0.0,0.0,0.0,-3.5809,-3.5304,0.0,0.0,0.0,0.0,0.0,0.0,0.0,0.0,0.0,0.0,0.0,0.0,0.0,0.0,0.0,0.0,-6.652,-6.6496,-6.6496,-6.6496,-6.6496,-6.6496,-6.6352,-6.6087,-6.5582,-6.5197,-6.4909,-6.4115,-6.3754,-6.373,-6.2937,-6.2287,-6.1758,-6.1205,-6.0676,-6.0171,-6.0171,-6.0171,-6.0171,-6.0171,-6.0171,-6.0171,-6.0171,-5.9834,-5.9305,-5.9065,-5.844,-5.7694,-5.7189,-5.7021,-5.7069,-5.7333,-5.7237,-5.7021,-5.7021,-5.7021,-5.7021,-5.7021,-5.6804,-5.6395,-5.5578,-5.4568,-5.3726,-5.351,-5.2211,-5.1249,-5.1802,-5.1249,-5.0696,-5.0696,-5.0696,-5.0696,-5.0696,-5.0696,-5.0696,-5.0696,-5.0215,-4.9758,-4.9493,-4.8748,-4.8171,-4.7906,-4.7642,-4.7497,-4.7497,-4.6511,-4.615,-4.668,-4.5958,-4.5429,-4.5077,-4.5342,-4.502,-4.3938,-4.3385,-4.312,-4.312,-4.2327,-4.2,-6.1566,-6.1855,-6.1662,-6.046,-5.7021,-5.2668,-4.781,-4.3481,0.0,0.0,-3.4775,-3.4775,-3.4775,0.0,0.0,0.0,0.0,0.0,0.0,0.0,0.0,0.0,0.0,0.0,0.0,0.0,0.0,0.0,0.0,0.0,-6.652,-6.6496,-6.6496,-6.6496,-6.6496,-6.6304,-6.5871,-6.5654,-6.5318,-6.4909,-6.426,-6.3971,-6.3923,-6.3009,-6.2287,-6.1758,-6.1205,-6.0676,-6.0171,-6.0171,-6.0171,-6.0171,-6.0171,-6.0171,-6.0171,-6.0051,-5.9474,-5.8728,-5.8512,-5.7886,-5.7165,-5.7069,-5.7021,-5.7093,-5.7526,-5.7357,-5.7021,-5.7021,-5.7021,-5.7021,-5.7021,-5.6636,-5.6059,-5.5385,-5.3798,-5.2668,-5.3485,-5.2187,-5.1129,-5.1946,-5.1345,-5.0696,-5.0696,-5.0696,-5.0696,-5.0696,-5.0696,-5.0696,-5.0696,-5.0215,-4.971,-4.9301,-4.8676,-4.8074,-4.7545,-4.7497,-4.7497,-4.7497,-4.6607,-4.6271,-4.6704,-4.6319,-4.579,-4.5077,-4.5645,-4.5342,-4.4285,-4.3505,-4.3313,-4.3649,-4.2423,-4.2014,-6.1758,-6.2143,-6.2143,-6.0556,-5.5938,-5.0888,-4.7497,0.0,0.0,0.0,-3.4775,-3.4775,-3.4775,-3.5376,0.0,0.0,0.0,0.0,0.0,0.0,0.0,0.0,0.0,0.0,0.0,0.0,0.0,0.0,0.0,0.0,-6.652,-6.6496,-6.6496,-6.6496,-6.6496,-6.6472,-6.6424,-6.5462,-6.4957,-6.4909,-6.3899,-6.3418,-6.3394,-6.2841,-6.2287,-6.1758,-6.1205,-6.0676,0.0,-6.0171,-6.0171,-6.0171,-6.0171,-6.0171,-6.0123,-5.9642,-5.9402,-5.9185,-5.8223,-5.7814,-5.767,-5.7189,-5.7021,-5.7021,-5.7069,-5.7069,-5.7021,-5.7021,-5.7021,-5.7021,-5.7021,-5.6636,-5.5963,-5.4928,-5.3822,-5.3029,-5.3125,-5.2235,-5.1441,-5.1537,-5.1105,-5.0696,-5.0696,-5.0696,-5.0696,-5.0696,-5.0696,-5.0696,-5.0696,-5.0215,-4.9854,-4.9806,-4.8892,-4.8074,-4.7545,-4.7497,-4.7497,-4.7497,-4.6968,-4.6655,-4.6704,-4.6655,-4.6175,-4.5101,-4.5645,-4.5342,-4.4285,-4.4189,-4.4165,-4.4213,-4.4069,-4.3756,-6.1253,-6.2384,-6.2576,-6.0652,-5.5794,-5.0576,-4.704,0.0,0.0,-3.5208,-3.4775,-3.4775,-3.4775,-3.5256,-3.6194,0.0,0.0,0.0,0.0,0.0,0.0,0.0,0.0,0.0,0.0,0.0,0.0,0.0,0.0,0.0,-6.652,-6.6496,-6.6496,-6.6496,-6.6496,-6.6328,-6.6015,-6.5606,-6.5221,-6.4909,-6.4163,-6.3634,-6.3298,-6.248,-6.1807,-6.1277,-6.0724,-6.0364,0.0,-6.0171,-6.0171,-6.0171,-6.0171,-5.9979,-5.9714,-5.981,-5.9257,-5.8416,-5.8319,-5.7862,-5.7285,-5.7093,-5.7021,-5.7021,-5.7021,-5.7021,-5.7021,-5.7021,-5.7021,-5.7021,-5.7021,-5.6371,-5.5458,-5.4375,-5.3582,-5.3077,-5.3077,-5.2475,-5.1874,-5.1562,-5.1321,-5.1081,-5.0768,-5.0696,-5.0696,-5.0696,-5.0696,-5.0696,-5.0696,-5.0503,-5.0239,-4.9902,-4.9205,-4.8555,-4.8026,-4.7978,-4.7834,-4.7521,-4.7016,-4.6704,-4.6704,-4.6704,-4.6223,-4.5101,-4.5645,-4.5342,-4.4285,-4.401,-4.3949,-4.4261,-4.3361,-4.2976,-5.957,-6.159,-6.2384,-6.0243,-5.5313,-5.0119,0.0,0.0,0.0,-3.5328,-3.5015,-3.5015,-3.5015,-3.5497,-3.6026,0.0,0.0,0.0,0.0,0.0,0.0,0.0,0.0,0.0,0.0,0.0,0.0,0.0,0.0,0.0,-6.652,-6.6496,-6.6496,-6.6496,-6.6352,-6.6087,-6.5702,-6.539,-6.4981,-6.4452,-6.3923,-6.3394,-6.2865,-6.1951,-6.1326,-6.0941,-6.0412,-6.0171,0.0,-6.0171,-6.0171,-6.0147,-6.0003,-5.9714,-5.9402,-5.945,-5.8776,-5.7838,-5.8055,-5.7646,-5.7021,-5.7021,-5.7021,-5.6997,-5.6828,-5.69,-5.7021,-5.7021,-5.69,-5.6756,-5.6588,-5.5866,-5.4928,-5.4039,-5.3437,-5.3077,-5.3077,-5.2524,-5.1922,-5.1562,-5.1369,-5.1129,-5.0768,-5.0696,-5.0696,-5.0696,-5.0696,-5.0696,-5.0696,-5.0696,-5.0551,-5.0167,-4.9782,-4.9205,-4.8363,-4.8291,-4.805,-4.7521,-4.7161,-4.6944,-4.6944,-4.6944,-4.6535,-4.5621,-4.5814,-4.5414,-4.4525,-4.4034,-4.3962,-4.4261,-4.3024,-4.2471,-5.6492,-5.9402,-6.1301,-5.9161,-5.4207,-4.9181,0.0,0.0,0.0,-3.5713,-3.5617,-3.5617,-3.5617,-3.605,-3.6579,-3.7108,0.0,0.0,0.0,0.0,0.0,0.0,0.0,0.0,0.0,0.0,0.0,0.0,0.0,0.0,-6.652,-6.6496,-6.6496,-6.6496,-6.5991,-6.5702,-6.5702,-6.4668,-6.3875,-6.3346,-6.2841,-6.2336,-6.1807,-6.1229,-6.0965,-6.0941,-6.0412,-6.0171,0.0,-6.0171,-6.0171,-6.0123,-5.9594,-5.9402,-5.9257,-5.8223,-5.7814,-5.7742,-5.7213,-5.7021,-5.7021,-5.7021,-5.7021,-5.6925,-5.6395,-5.6612,-5.7021,-5.7021,-5.6636,-5.6107,-5.5554,-5.5025,-5.4471,-5.3942,-5.3437,-5.3077,-5.3077,-5.2235,-5.1489,-5.1489,-5.1056,-5.072,-5.0696,-5.0696,-5.0696,-5.0696,-5.0696,-5.0696,-5.0696,-5.0696,-5.0696,-5.0696,-5.0696,-5.0046,-4.8435,-4.8291,-4.805,-4.7521,-4.7497,-4.7497,-4.7497,-4.7497,-4.7233,-4.6704,-4.6199,-4.5606,-4.5053,-4.4525,-4.4285,-4.4261,-4.377,-4.2952,-5.1008,-5.3413,-5.4784,-5.262,-4.906,-4.5597,-4.3673,0.0,0.0,-3.6266,-3.6146,-3.6146,-3.6146,-3.6579,-3.7372,-3.8623,-3.9441,0.0,0.0,0.0,0.0,0.0,0.0,0.0,0.0,0.0,0.0,0.0,0.0,0.0,-6.6544,-6.6159,-6.5943,-6.5943,-6.5799,-6.5173,-6.4091,-6.3754,-6.3153,-6.2287,-6.2119,-6.1758,-6.1229,-6.1037,-6.0772,-6.0412,-6.0243,-6.0171,-6.0171,-6.0171,-6.0171,-6.0123,-5.9594,-5.9161,-5.88,-5.8464,-5.7886,-5.7285,-5.7502,-5.7333,-5.7021,-5.7021,-5.678,-5.6444,-5.6275,-5.6612,-5.6949,-5.6588,-5.6083,-5.553,-5.5001,-5.4736,-5.4471,-5.3942,-5.3702,-5.3389,-5.2668,-5.2812,-5.2668,-5.1225,-5.1393,-5.1562,-5.084,-5.0696,-5.0696,-5.0696,-5.0696,-5.0696,-5.0696,-5.0696,-5.0696,-5.0696,-5.0696,-5.0335,-4.9445,-4.9373,-4.8988,-4.8098,-4.805,-4.7714,-4.6992,-4.7305,-4.692,-4.5645,-4.5814,-4.5477,-4.4525,-4.4357,-4.4093,-4.377,-4.3601,-4.2952,0.0,-4.9301,-5.0648,-4.8916,-4.6247,0.0,0.0,0.0,0.0,0.0,0.0,-3.6699,-3.6699,-3.7132,-3.7829,-3.8839,-3.9441,0.0,0.0,0.0,0.0,0.0,0.0,0.0,0.0,0.0,0.0,0.0,0.0,0.0,-6.6232,-6.5895,-6.5438,-6.4837,-6.5005,-6.4548,-6.3346,-6.3153,-6.2528,-6.1494,-6.1494,-6.1205,-6.0676,-6.0676,-6.0484,-6.0171,-6.0171,-6.0171,0.0,-6.0171,-6.0171,-6.0099,-5.9378,-5.8897,-5.856,-5.8151,-5.7598,-5.7069,-5.7405,-5.7285,-5.6997,-5.678,-5.6227,-5.565,-5.5866,-5.6155,-5.6347,-5.6011,-5.553,-5.5025,-5.4688,-5.4447,-5.4231,-5.3894,-5.3822,-5.3654,-5.3004,-5.3053,-5.286,-5.1537,-5.1513,-5.1465,-5.0816,-5.0696,-5.0696,-5.0696,-5.0696,-5.0696,-5.0696,-5.0696,-5.0696,-5.0696,-5.0696,-5.0551,-5.0215,-4.9806,-4.9205,-4.8339,-4.8098,-4.7786,-4.7329,-4.7425,-4.6944,-4.5742,-4.5862,-4.5501,-4.4573,-4.4381,-4.3997,-4.3505,-4.3721,-4.3265,0.0,0.0,0.0,0.0,0.0,0.0,0.0,0.0,0.0,0.0,0.0,0.0,0.0,0.0,-3.8022,-3.819,0.0,0.0,0.0,0.0,0.0,0.0,0.0,0.0,0.0,0.0,0.0,0.0,0.0,0.0,-6.5727,-6.563,-6.4909,-6.3394,-6.3779,-6.3754,-6.3177,-6.2696,-6.1951,-6.0917,-6.0917,-6.0652,-6.0171,-6.0171,-6.0171,0.0,-6.0171,-6.0147,-6.0123,-6.0123,-6.0099,-5.9955,-5.8945,-5.8536,-5.8416,-5.7405,-5.7021,-5.7021,-5.7021,-5.6997,-5.6876,-5.6299,-5.5433,-5.4688,-5.5145,-5.5289,-5.5289,-5.5337,-5.4952,-5.4544,-5.4544,-5.4183,-5.3822,-5.3822,-5.3822,-5.3822,-5.3774,-5.3004,-5.2307,-5.2235,-5.1441,-5.0744,-5.072,-5.0696,-5.0696,-5.0696,-5.0696,-5.0696,-5.0696,-5.0696,-5.0696,-5.0696,-5.0696,-5.0696,-5.0648,-4.971,-4.8916,-4.8387,-4.7858,-4.7762,-4.8219,-4.7762,-4.7257,-4.6728,-4.615,-4.5597,-4.5005,-4.4525,-4.4021,-4.3577,-4.4045,-4.3794,-3.9393,0.0,-4.1581,-4.0475,0.0,0.0,0.0,0.0,0.0,0.0,0.0,0.0,0.0,0.0,0.0,0.0,0.0,0.0,0.0,0.0,0.0,0.0,0.0,0.0,0.0,0.0,0.0,0.0,0.0,-6.6256,-6.5727,-6.4933,-6.4139,-6.337,-6.3081,-6.2504,-6.1542,-6.1398,-6.1013,-6.0364,-6.0364,-6.0291,-6.0171,-6.0171,-6.0171,-6.0171,-6.0171,-5.9955,-5.957,-5.957,-5.9329,-5.8897,-5.8247,-5.8007,-5.7911,-5.7261,-5.7021,-5.7021,-5.7021,-5.6756,-5.6251,-5.5289,-5.4808,-5.4544,-5.4279,-5.4183,-5.4279,-5.4688,-5.4399,-5.4015,-5.4015,-5.3918,-5.3822,-5.3822,-5.3822,-5.3702,-5.3341,-5.3053,-5.2644,-5.1826,-5.1465,-5.1177,-5.0768,-5.0696,-5.0696,-5.0696,-5.0696,-5.0696,-5.0696,-5.0696,-5.0696,-5.0696,-5.0696,-5.0527,-5.0095,-4.983,-4.9445,-4.894,-4.8411,-4.7978,-4.769,-4.7569,-4.7257,-4.6728,-4.579,-4.5005,-4.4477,-4.4357,-4.4213,-4.4093,-4.4213,-4.3925,-3.7974,-3.8407,-3.8719,-3.8142,-3.7974,-3.7974,0.0,0.0,0.0,0.0,0.0,0.0,0.0,0.0,0.0,0.0,0.0,0.0,0.0,0.0,0.0,0.0,0.0,0.0,0.0,0.0,0.0,0.0,0.0,-6.5799,-6.5029,-6.4211,-6.3418,-6.2648,-6.2119,-6.1566,-6.0965,-6.0965,-6.07,-6.0171,-6.0171,-6.0171,-6.0171,-6.0171,-6.0171,-6.0171,-6.0171,-5.9883,-5.9378,-5.9378,-5.9065,-5.8536,-5.8007,-5.7814,-5.7742,-5.7213,-5.7021,-5.7021,-5.7021,-5.6516,-5.5746,-5.5169,-5.464,-5.4183,-5.3918,-5.3822,-5.387,-5.4159,-5.4039,-5.3822,-5.3822,-5.3822,-5.3822,-5.3822,-5.3822,-5.3678,-5.3173,-5.2884,-5.2475,-5.1658,-5.1297,-5.1032,-5.0744,-5.0696,-5.0696,-5.0696,-5.0696,-5.0696,-5.0696,-5.0696,-5.0696,-5.0696,-5.0696,-5.0576,-5.0287,-4.9782,-4.9373,-4.9084,-4.8579,-4.8171,-4.7882,-4.7617,-4.7136,-4.6367,-4.5486,-4.4933,-4.4645,-4.4645,-4.4645,-4.4645,-4.4645,-4.4357,-3.819,-3.8238,-3.819,-3.8022,-3.7974,-3.7974,0.0,0.0,0.0,0.0,0.0,0.0,0.0,0.0,0.0,0.0,0.0,0.0,0.0,0.0,0.0,0.0,0.0,0.0,0.0,0.0,0.0,0.0,0.0,-6.4957,-6.4067,-6.3418,-6.2672,-6.171,-6.1205,-6.0917,-6.0845,-6.0845,-6.0628,-6.0171,-6.0171,-6.0171,-6.0171,-6.0171,-6.0171,-6.0171,-6.0075,0.0,-5.9257,-5.9185,-5.8824,-5.8319,-5.7862,-5.7694,-5.7646,-5.7189,-5.7021,-5.6997,-5.6828,-5.6107,-5.5265,-5.5193,-5.4544,-5.3822,-5.3822,-5.3822,-5.3822,-5.3822,-5.3822,-5.3822,-5.3822,-5.3822,-5.3822,-5.3822,-5.3822,-5.3702,-5.3269,-5.2716,-5.2139,-5.1706,-5.1129,-5.0696,-5.0696,-5.0696,-5.0696,-5.0696,-5.0696,-5.0696,-5.0696,-5.0696,-5.0696,-5.0696,-5.0696,-5.0696,-5.0696,-4.9854,-4.9253,-4.9084,-4.8507,-4.8171,-4.8171,-4.7738,-4.704,-4.6054,-4.5525,-4.5149,-4.5077,-4.5077,-4.5029,-4.4957,-4.5029,-4.4789,-3.9104,-3.9369,-3.9128,-3.8214,-3.7974,-3.7974,0.0,0.0,0.0,0.0,0.0,0.0,0.0,0.0,0.0,0.0,0.0,0.0,0.0,0.0,0.0,0.0,0.0,0.0,0.0,0.0,0.0,0.0,-6.4452,-6.3634,-6.3466,-6.2552,-6.1758,-6.1109,-6.1013,-6.0748,-6.0291,-6.0291,-6.0243,-6.0171,-6.0171,-6.0171,-6.0171,-6.0171,-6.0171,-6.0147,0.0,-5.9209,-5.868,-5.8223,-5.7742,-5.7261,-5.7165,-5.7141,-5.7141,-5.7045,-5.7021,-5.69,-5.5963,-5.5241,-5.4664,-5.4207,-5.3942,-5.3822,-5.3822,-5.3822,-5.3822,-5.3822,-5.3822,-5.3822,-5.3822,-5.3822,-5.3822,-5.3822,-5.3822,-5.3798,-5.3726,-5.2956,-5.2259,-5.2187,-5.1369,-5.0696,-5.0696,-5.0696,-5.0696,-5.0696,-5.0696,-5.0696,-5.0696,-5.0696,-5.0696,-5.0696,-5.0696,-5.0696,-5.0696,-5.0551,-5.007,-4.9133,-4.8171,-4.7617,-4.7617,-4.7545,-4.7209,-4.6607,-4.6078,-4.551,-4.5077,-4.5077,-4.4837,-4.4429,-4.4861,-4.4789,-3.8599,-3.8743,-3.8695,-3.8479,-3.8647,-3.8695,0.0,0.0,0.0,0.0,0.0,0.0,0.0,0.0,0.0,0.0,0.0,0.0,0.0,0.0,0.0,0.0,0.0,0.0,0.0,0.0,0.0,-6.4524,-6.3754,-6.3081,-6.2528,-6.1782,-6.1229,-6.0965,-6.0676,-6.0412,-6.0171,-6.0171,-6.0171,-6.0171,-5.9883,-5.9738,-5.9738,-5.945,-5.9329,-5.9305,0.0,-5.8656,-5.8151,-5.7911,-5.7502,-5.7021,-5.7021,-5.7021,-5.6997,-5.6708,-5.6588,-5.6492,-5.5674,-5.5049,-5.4568,-5.4327,-5.4063,-5.3822,-5.3822,-5.3822,-5.3822,-5.3822,-5.3822,-5.3822,-5.3822,-5.3822,-5.3822,-5.3822,-5.3606,-5.3341,-5.3053,-5.2379,-5.1778,-5.1489,-5.1032,-5.0696,-5.0696,-5.0696,-5.0696,-5.0696,-5.0696,-5.0696,-5.0696,-5.0696,-5.0696,-5.0696,-5.0696,-5.0696,-5.0696,-5.0431,-4.9902,-4.9133,-4.8074,-4.7497,-4.7497,-4.7497,-4.7257,-4.6728,-4.6487,-4.6223,-4.5982,-4.5982,-4.5862,-4.5621,-4.551,-4.5221,-3.8286,-3.8359,-3.8455,-3.8888,0.0,-3.9176,0.0,0.0,0.0,0.0,0.0,0.0,0.0,0.0,0.0,0.0,0.0,0.0,0.0,0.0,0.0,0.0,0.0,0.0,0.0,-6.6015,-6.5221,-6.3466,-6.3105,-6.2576,-6.1662,-6.1085,-6.0772,-6.0772,-6.0388,-6.0123,-6.0003,-6.0003,-6.0003,-5.9979,-5.9594,-5.9329,-5.9185,-5.8776,-5.8608,-5.8584,-5.8464,-5.8175,-5.779,-5.767,-5.7381,-5.7021,-5.7021,-5.7021,-5.6949,-5.6419,-5.6155,-5.5963,-5.5409,-5.4856,-5.4423,-5.4423,-5.4159,-5.3822,-5.3822,-5.3822,-5.3822,-5.3822,-5.3822,-5.3822,-5.3822,-5.3726,-5.3654,-5.3654,-5.3245,-5.2764,-5.2379,-5.1874,-5.1369,-5.096,-5.0792,-5.0696,-5.0696,-5.0696,-5.0696,-5.0696,-5.0696,-5.0696,-5.0696,-5.0696,-5.0696,-5.0696,-5.0696,-5.0696,-5.0696,-5.007,-4.9517,-4.9109,-4.8074,-4.7497,-4.7497,-4.7497,-4.7305,-4.6896,-4.6776,-4.6704,-4.6704,-4.6704,-4.6655,-4.6535,-4.6247,-4.5766,-3.92,-3.9489,-3.9489,-3.9537,0.0,0.0,0.0,0.0,0.0,0.0,0.0,0.0,0.0,0.0,0.0,0.0,0.0,0.0,0.0,0.0,0.0,0.0,0.0,-6.5534,-6.5077,-6.4572,-6.4019,-6.3394,-6.2456,-6.1638,-6.1061,-6.0532,-6.0219,-6.0219,-6.0195,-5.9931,-5.945,-5.945,-5.945,-5.945,-5.9402,-5.9137,-5.8656,-5.8608,-5.8608,-5.856,-5.8079,-5.7838,-5.7766,-5.7285,-5.7045,-5.7021,-5.7021,-5.7021,-5.6949,-5.6419,-5.5914,-5.5385,-5.4856,-5.4327,-5.387,-5.387,-5.3846,-5.3822,-5.3822,-5.3822,-5.3822,-5.3822,-5.3822,-5.3822,-5.3822,-5.3485,-5.3125,-5.3125,-5.2716,-5.2331,-5.2283,-5.1874,-5.1489,-5.1441,-5.1032,-5.0696,-5.0696,-5.0696,-5.0696,-5.0696,-5.0696,-5.0696,-5.0696,-5.0696,-5.0696,-5.0696,-5.0696,-5.0696,-5.0696,-4.9734,-4.9109,-4.9084,-4.8074,-4.7497,-4.7497,-4.7497,-4.7473,-4.7449,-4.6968,-4.6704,-4.6704,-4.6704,-4.6463,-4.6006,-4.6439,-4.6102,-3.8479,-3.908,-3.9537,-3.92,0.0,0.0,0.0,0.0,0.0,0.0,0.0,0.0,0.0,0.0,0.0,0.0,0.0,0.0,0.0,0.0,0.0,0.0,-6.5101,-6.5005,-6.4476,-6.3947,-6.3298,-6.2456,-6.1686,-6.1037,-6.0508,-6.0291,-6.0171,-6.0171,-5.9859,-5.9594,-5.9378,-5.9065,-5.8728,-5.8416,-5.8416,-5.8464,-5.8584,-5.7911,-5.7622,-5.7598,-5.7405,-5.7309,-5.7309,-5.7093,-5.7021,-5.7021,-5.7021,-5.6828,-5.6468,-5.5914,-5.5361,-5.4832,-5.4303,-5.3991,-5.3822,-5.3822,-5.3822,-5.3822,-5.3822,-5.3822,-5.3822,-5.3822,-5.3822,-5.3822,-5.3822,-5.3437,-5.3077,-5.3077,-5.2427,-5.1778,-5.1778,-5.1369,-5.1008,-5.1008,-5.084,-5.0696,-5.0696,-5.0696,-5.0696,-5.0696,-5.0696,-5.0696,-5.0696,-5.0696,-5.0696,-5.0696,-5.0696,-5.0696,-5.0696,-4.9998,-4.9421,-4.9109,-4.8074,-4.7497,-4.7497,-4.7497,-4.7497,-4.7497,-4.7305,-4.7209,-4.7209,-4.7209,-4.7088,-4.6896,-4.6776,-4.6319,-3.7974,-3.8527,-3.9056,0.0,0.0,0.0,0.0,0.0,0.0,0.0,0.0,0.0,0.0,0.0,0.0,0.0,0.0,0.0,0.0,0.0,0.0,0.0,-6.4524,-6.4211,-6.3682,-6.3153,-6.248,-6.159,-6.1181,-6.0724,-6.0195,-6.0027,-5.9931,-5.9931,-5.9402,-5.9065,-5.8897,-5.8536,-5.8175,-5.7814,-5.7646,-5.7742,-5.8079,-5.7357,-5.7021,-5.7021,-5.7021,-5.6925,-5.678,-5.678,-5.666,-5.6516,-5.6708,-5.6444,-5.5914,-5.553,-5.5073,-5.452,-5.3991,-5.3822,-5.3822,-5.3822,-5.3822,-5.3822,-5.3822,-5.3822,-5.3822,-5.3822,-5.3822,-5.3774,-5.363,-5.3197,-5.286,-5.3029,-5.2259,-5.1537,-5.1706,-5.1321,-5.096,-5.096,-5.0816,-5.0696,-5.0696,-5.0696,-5.0696,-5.0696,-5.0696,-5.0696,-5.0696,-5.0696,-5.0696,-5.0696,-5.0696,-5.0696,-5.0696,-5.0191,-4.9638,-4.9109,-4.8243,-4.7666,-4.7521,-4.7497,-4.7497,-4.7497,-4.7497,-4.7497,-4.7497,-4.7497,-4.7497,-4.7497,-4.7136,-4.668,-3.7974,-3.7998,0.0,0.0,0.0,0.0,0.0,0.0,0.0,0.0,0.0,0.0,0.0,0.0,0.0,0.0,0.0,0.0,0.0,0.0,0.0,-6.4163,-6.3634,-6.3129,-6.2624,-6.2095,-6.1566,-6.1013,-6.0965,-6.0724,-6.0195,-5.9666,-5.9378,-5.9378,-5.8848,-5.8319,-5.7814,-5.779,-5.779,-5.779,-5.7261,-5.7021,-5.7021,-5.7021,-5.7021,-5.7021,-5.6997,-5.6708,-5.6227,-5.6227,-5.589,-5.5458,-5.6011,-5.589,-5.5385,-5.5385,-5.5049,-5.452,-5.3991,-5.3822,-5.3822,-5.3822,-5.3822,-5.3822,-5.3822,-5.3822,-5.3822,-5.3822,-5.3822,-5.3702,-5.3197,-5.2668,-5.2403,-5.2932,-5.2259,-5.1634,-5.2163,-5.185,-5.1489,-5.1489,-5.1056,-5.0696,-5.0696,-5.0696,-5.0696,-5.0696,-5.0696,-5.0696,-5.0696,-5.0696,-5.0696,-5.0696,-5.0696,-5.0696,-5.0696,-5.0191,-4.9638,-4.9109,-4.8579,-4.805,-4.7521,-4.7497,-4.7497,-4.7497,-4.7497,-4.7497,-4.7497,-4.7497,-4.7497,-4.7497,-4.7497,-4.7209,-3.8094,0.0,0.0,0.0,0.0,0.0,0.0,0.0,0.0,0.0,0.0,0.0,0.0,0.0,0.0,-5.7478,-6.0075,-6.2263,0.0,0.0,0.0,-6.3057,-6.2576,-6.2191,-6.2047,-6.1542,-6.1133,-6.0965,-6.0628,-6.0171,-5.9642,-5.9474,-5.9209,-5.8848,-5.7959,-5.7405,-5.7261,-5.6492,-5.6107,-5.6107,-5.5963,-5.6468,-5.755,-5.6804,-5.6468,-5.6444,-5.6059,-5.5794,-5.565,-5.565,-5.5554,-5.5409,-5.5578,-5.5313,-5.4832,-5.4832,-5.4496,-5.3991,-5.3461,-5.3534,-5.375,-5.3413,-5.3534,-5.3822,-5.3822,-5.3822,-5.3822,-5.3822,-5.3822,-5.3702,-5.3197,-5.2668,-5.2331,-5.2475,-5.2283,-5.1994,-5.1778,-5.161,-5.1393,-5.1008,-5.0816,-5.0696,-5.0696,-5.0696,-5.0696,-5.0696,-5.0696,-5.0696,-5.0696,-5.0696,-5.0696,-5.0696,-5.0696,-5.0696,-5.0696,-5.0551,-5.0215,-4.9662,-4.9133,-4.8435,-4.7545,-4.7497,-4.7497,-4.7497,-4.7497,-4.7497,-4.7497,-4.7497,-4.7497,-4.7497,-4.7497,-4.7016,-3.807,0.0,0.0,0.0,0.0,0.0,0.0,0.0,0.0,0.0,0.0,0.0,0.0,0.0,0.0,0.0,-6.0147,-6.1662,-6.2191,-6.2263,0.0,-6.2263,-6.1807,-6.147,-6.147,-6.0965,-6.0652,-6.0652,-6.0171,-5.9714,-5.9402,-5.8993,-5.8512,-5.7983,-5.7141,-5.6588,-5.6371,-5.5722,-5.5385,-5.5385,-5.5385,-5.5914,-5.6828,-5.6179,-5.589,-5.5866,-5.5313,-5.4952,-5.476,-5.476,-5.464,-5.452,-5.4928,-5.476,-5.4303,-5.4303,-5.3966,-5.3437,-5.2932,-5.2956,-5.3149,-5.286,-5.2956,-5.3245,-5.3461,-5.351,-5.3558,-5.3774,-5.3822,-5.3702,-5.3197,-5.2836,-5.2596,-5.2596,-5.2427,-5.2259,-5.2139,-5.1946,-5.1658,-5.1129,-5.084,-5.0696,-5.0696,-5.0696,-5.0696,-5.0696,-5.0696,-5.0696,-5.0696,-5.0696,-5.0696,-5.0696,-5.0696,-5.0696,-5.0696,-5.0696,-5.0455,-4.9902,-4.9565,-4.9012,-4.8171,-4.7714,-4.7497,-4.7497,-4.7497,-4.7497,-4.7497,-4.7497,-4.7497,-4.7497,-4.7497,-4.7161,0.0,0.0,0.0,0.0,0.0,0.0,0.0,0.0,0.0,0.0,0.0,0.0,0.0,0.0,0.0,0.0,-6.0291,-6.1133,-6.1662,-6.1734,-6.1734,-6.1734,-6.1229,-6.0893,-6.0893,-6.0412,-6.0099,-6.0099,-5.9427,-5.9009,-5.8996,-5.784,-5.6947,-5.6327,-5.5803,-5.5254,-5.4783,-5.4735,-5.4711,-5.4711,-5.4711,-5.4711,-5.4711,-5.5087,-5.5265,-5.5145,-5.4688,-5.4159,-5.3678,-5.3678,-5.3413,-5.3101,-5.4039,-5.4087,-5.3678,-5.3678,-5.3389,-5.2908,-5.2379,-5.2235,-5.2283,-5.2235,-5.2235,-5.2379,-5.286,-5.3004,-5.3101,-5.3558,-5.3702,-5.3555,-5.2976,-5.2832,-5.2832,-5.2758,-5.2546,-5.2403,-5.2836,-5.2548,-5.2043,-5.1513,-5.1032,-5.0696,-5.0696,-5.0696,-5.0696,-5.0696,-5.0696,-5.0696,-5.0696,-5.0696,-5.0696,-5.0696,-5.0696,-5.0696,-5.0696,-5.0696,-5.0479,-4.9974,-4.9902,-4.9662,-4.9181,-4.8122,-4.7569,-4.7569,-4.7521,-4.7497,-4.7497,-4.7497,-4.7497,-4.7497,-4.7497,-4.7473,0.0,0.0,0.0,0.0,0.0,0.0,0.0,0.0,0.0,0.0,0.0,0.0,0.0,0.0,0.0,0.0,-6.0532,-6.1013,-6.1133,-6.1133,-6.1133,-6.1133,-6.0676,-6.0339,-6.0339,-5.9859,-5.9546,-5.9546,-5.7749,-5.6345,-5.5555,-5.4024,-5.2563,-5.1286,-5.077,-5.0277,-4.9862,-4.9404,-4.9202,-4.9202,-4.9202,-4.9202,-4.9323,-5.3094,-5.4327,-5.3558,-5.3437,-5.3101,-5.262,-5.262,-5.2548,-5.2475,-5.2692,-5.2716,-5.262,-5.262,-5.2548,-5.2379,-5.185,-5.1922,-5.2211,-5.1802,-5.1946,-5.2307,-5.2427,-5.2451,-5.2475,-5.2572,-5.2908,-5.2804,-5.0947,-5.0508,-5.0583,-5.0434,-5.1352,-5.2211,-5.1898,-5.173,-5.1513,-5.0984,-5.0792,-5.0696,-5.0696,-5.0696,-5.0696,-5.0696,-5.0696,-5.0696,-5.0696,-5.0696,-5.0696,-5.0696,-5.0696,-5.0696,-5.0696,-5.0696,-5.0648,-5.0527,-5.0119,-4.983,-4.971,-4.8676,-4.8122,-4.8122,-4.7714,-4.7497,-4.7497,-4.7497,-4.7497,-4.7497,-4.7497,-4.7281,0.0,0.0,0.0,0.0,0.0,0.0,0.0,0.0,0.0,0.0,0.0,0.0,0.0,0.0,0.0,0.0,-6.0412,-6.058,-6.058,-6.058,-6.058,-6.058,-6.0339,-6.0075,-5.981,-5.8747,-5.7961,-5.7726,-5.5374,-5.3715,-5.3198,-5.1662,-5.0315,-4.9328,-4.8824,-4.8364,-4.7882,-4.7619,-4.751,-4.751,-4.751,-4.751,-4.7608,-5.0855,-5.2502,-5.2692,-5.2692,-5.2379,-5.1922,-5.2187,-5.2139,-5.1922,-5.2187,-5.2283,-5.2259,-5.1994,-5.1898,-5.1826,-5.1297,-5.1297,-5.1489,-5.1201,-5.1297,-5.1562,-5.1826,-5.1898,-5.1801,-5.1284,-5.1322,-5.1142,-4.9171,-4.8471,-4.8389,-4.8291,-4.9531,-5.0906,-5.1393,-5.1489,-5.1345,-5.0816,-5.0696,-5.0696,-5.0696,-5.0696,-5.0696,-5.0696,-5.0696,-5.0696,-5.0696,-5.0696,-5.0696,-5.0696,-5.0696,-5.0696,-5.0696,-5.0696,-5.0696,-5.0696,-5.0431,-5.0263,-5.0263,-4.9493,-4.8796,-4.8291,-4.8026,-4.7762,-4.7497,-4.7497,-4.7497,-4.7497,-4.7497,-4.7353,0.0,0.0,0.0,0.0,0.0,0.0,0.0,0.0,0.0,0.0,0.0,0.0,0.0,0.0,0.0,0.0,-6.0171,-6.0171,-6.0171,-6.0099,-6.0027,-6.0027,-5.9955,-5.9738,-5.9281,-5.7773,-5.6443,-5.5693,-5.3047,-5.1245,-5.0931,-4.9367,-4.8258,-4.7698,-4.7311,-4.6902,-4.6428,-4.6428,-4.6428,-4.6428,-4.6428,-4.6582,-4.6866,-4.8177,-4.9743,-5.1384,-5.1604,-5.1464,-5.101,-5.1754,-5.1754,-5.1393,-5.1826,-5.1994,-5.1946,-5.1513,-5.1345,-5.1297,-5.0864,-5.0554,-5.027,-5.027,-5.0104,-4.9961,-5.0387,-5.0529,-5.0383,-4.9434,-4.9296,-4.899,-4.7378,-4.6637,-4.6258,-4.6258,-4.7246,-4.8634,-5.0529,-5.1202,-5.1153,-5.0413,-5.027,-5.027,-5.027,-5.0554,-5.0696,-5.0696,-5.0696,-5.0696,-5.0696,-5.0696,-5.0696,-5.0696,-5.0696,-5.0696,-5.0696,-5.0696,-5.0696,-5.0696,-5.0696,-5.0696,-5.0696,-5.0263,-4.9565,-4.8579,-4.8483,-4.8171,-4.7642,-4.7738,-4.7738,-4.7642,-4.7642,-4.7642,0.0,0.0,0.0,0.0,0.0,0.0,0.0,0.0,0.0,0.0,0.0,0.0,0.0,0.0,0.0,0.0,-6.0171,-6.0171,-6.0171,-5.9786,-5.9498,-5.9498,-5.9089,-5.8776,-5.8704,-5.762,-5.6297,-5.4799,-5.1706,-4.9124,-4.7185,-4.5129,-4.3578,-4.2764,-4.2684,-4.2446,-4.2029,-4.2009,-4.2009,-4.2009,-4.2009,-4.2762,-4.4023,-4.4251,-4.5524,-4.7573,-4.8936,-4.9249,-4.8858,-5.0294,-5.0864,-5.0816,-5.0888,-5.0912,-5.0912,-5.084,-5.0816,-5.0792,-5.072,-4.9795,-4.8621,-4.8621,-4.7726,-4.6529,-4.6596,-4.6618,-4.6618,-4.6462,-4.6792,-4.6723,-4.5068,-4.4642,-4.46,-4.4523,-4.4384,-4.5052,-4.8109,-4.9841,-5.0342,-4.891,-4.8621,-4.8621,-4.8621,-4.9818,-5.0696,-5.0696,-5.0696,-5.0696,-5.0696,-5.0696,-5.0696,-5.0696,-5.0696,-5.0696,-5.0696,-5.0696,-5.0696,-5.0696,-5.0696,-5.0696,-5.0696,-5.0624,-5.0287,-4.9662,-4.9205,-4.8724,-4.8195,-4.8652,-4.8628,-4.8195,-4.8195,-4.8195,0.0,0.0,0.0,0.0,0.0,0.0,0.0,0.0,0.0,0.0,0.0,0.0,0.0,0.0,0.0,0.0,-5.9281,-5.9281,-5.9281,-5.9089,-5.8824,-5.8536,-5.7454,-5.6479,-5.5892,-5.3674,-5.1817,-5.0813,-4.7996,-4.5902,-4.4904,-4.3317,-4.2187,-4.1816,-4.1562,-4.1367,-4.1172,-4.1172,-4.1172,-4.1172,-4.1172,-4.154,-4.2216,-4.2216,-4.3656,-4.6317,-4.6988,-4.7172,-4.7045,-4.7704,-4.8018,-4.8091,-4.8982,-4.8838,-4.8091,-4.9054,-4.8766,-4.8018,-4.8018,-4.7558,-4.6971,-4.6971,-4.6455,-4.5915,-4.5915,-4.5915,-4.5692,-4.4816,-4.4739,-4.4508,-4.2941,-4.2574,-4.2574,-4.2497,-4.3009,-4.3911,-4.5319,-4.6898,-4.7777,-4.7118,-4.7704,-4.8308,-4.8308,-4.9652,-5.0696,-5.0696,-5.0696,-5.0696,-5.0696,-5.0696,-5.0696,-5.0696,-5.0696,-5.0696,-5.0696,-5.0696,-5.0696,-5.0696,-5.0696,-5.0696,-5.0696,-5.0696,-5.0151,-4.9014,-4.9364,-4.9253,-4.8724,-4.8964,-4.8964,-4.8724,-4.8724,-4.8579,0.0,0.0,0.0,0.0,0.0,0.0,0.0,0.0,0.0,0.0,0.0,0.0,0.0,0.0,0.0,0.0,-5.8512,-5.8512,-5.8223,-5.8199,-5.7773,-5.6676,-5.5415,-5.398,-5.2685,-5.0039,-4.8126,-4.7298,-4.5148,-4.3692,-4.3223,-4.2226,-4.1562,-4.1483,-4.125,-4.1172,-4.1016,-4.1172,-4.1172,-4.1172,-4.1172,-4.1172,-4.1172,-4.1172,-4.2524,-4.4741,-4.5095,-4.5244,-4.5319,-4.5692,-4.5915,-4.5989,-4.7192,-4.6971,-4.6063,-4.7265,-4.6971,-4.5915,-4.5915,-4.5617,-4.5244,-4.5244,-4.502,-4.4741,-4.4741,-4.4741,-4.444,-4.3248,-4.2943,-4.2657,-4.1463,-4.1172,-4.1172,-4.1172,-4.2062,-4.3096,-4.3911,-4.4741,-4.5244,-4.5244,-4.6285,-4.7118,-4.7118,-4.8381,-4.9652,-5.0033,-5.0104,-5.0246,-5.0625,-5.0696,-5.0696,-5.0696,-5.0696,-5.0696,-5.0696,-5.0696,-5.0696,-5.0696,-5.0696,-5.0696,-5.0696,-5.0696,-5.0104,-4.891,-4.97,-4.9667,-4.8701,-4.9214,-4.9421,-4.9277,-4.9277,-4.8988,0.0,0.0,0.0,0.0,0.0,0.0,0.0,0.0,0.0,0.0,0.0,0.0,0.0,0.0,0.0,0.0,0.0,-5.8247,-5.7237,-5.7093,-5.6128,-5.3594,-5.2746,-5.1614,-4.9583,-4.8727,-4.7661,-4.6003,-4.4914,-4.3563,-4.1974,-4.1465,-4.1036,-4.0548,-4.1016,-4.0997,-4.0509,-4.1016,-4.1172,-4.1172,-4.1172,-4.1172,-4.1172,-4.1172,-4.1327,-4.154,-4.3019,-4.3608,-4.376,-4.5244,-4.5915,-4.5915,-4.5989,-4.5989,-4.5915,-4.5989,-4.5989,-4.5915,-4.5915,-4.4891,-4.3608,-4.3608,-4.2657,-4.1463,-4.1463,-4.1463,-4.1405,-4.1327,-4.1327,-4.1327,-4.125,-4.1172,-4.1172,-4.1172,-4.125,-4.2139,-4.5116,-4.4666,-4.3608,-4.3608,-4.3684,-4.376,-4.376,-4.5095,-4.6677,-4.8236,-4.8381,-4.8982,-5.0483,-5.0696,-5.0696,-5.0696,-5.0696,-5.0696,-5.0696,-5.0696,-5.0696,-5.0696,-5.0696,-5.0696,-5.0696,-5.0696,-5.0625,-5.0554,-5.0601,-4.9653,-4.7599,-4.9629,-5.0335,-4.983,-4.983,-4.9541,0.0,0.0,0.0,0.0,0.0,0.0,0.0,0.0,0.0,0.0,0.0,0.0,0.0,0.0,0.0,0.0,0.0,-5.3093,-5.2388,-5.2298,-5.1753,-5.021,-4.8925,-4.7698,-4.6599,-4.5308,-4.4276,-4.366,-4.304,-4.2407,-4.1797,-4.1406,-4.0958,-4.0511,-4.0434,-4.0067,-3.9318,-3.9491,-3.9568,-3.9568,-3.9568,-3.9702,-3.9951,-4.0279,-4.0511,-4.0841,-4.1676,-4.1985,-4.2062,-4.2657,-4.2887,-4.2963,-4.3987,-4.376,-4.304,-4.3987,-4.3684,-4.2887,-4.2887,-4.2524,-4.1985,-4.1985,-4.1618,-4.1172,-4.1172,-4.1172,-4.1172,-4.1172,-4.1172,-4.1172,-4.1172,-4.1172,-4.1172,-4.1172,-4.1172,-4.1463,-4.2657,-4.2447,-4.2064,-4.2343,-4.2993,-4.3635,-4.3925,-4.5008,-4.6063,-4.6655,-4.7631,-4.8526,-4.9054,-5.0033,-5.0696,-5.0696,-5.0696,-5.0696,-5.0696,-5.0696,-5.0696,-5.0696,-5.0696,-5.0696,-5.0696,-5.0696,-5.0175,-4.9198,-4.9126,-4.9271,-4.9535,-5.0316,-5.0407,-4.9878,-4.9878,-4.908,0.0,0.0,0.0,0.0,0.0,0.0,0.0,0.0,0.0,0.0,0.0,0.0,0.0,0.0,0.0,0.0,0.0,-4.9759,-4.9101,-4.9144,-4.8645,-4.7165,-4.5968,-4.4861,-4.3803,-4.2704,-4.2012,-4.2012,-4.1758,0.0,-4.1367,-4.1113,-4.0685,-4.0084,-3.9835,-3.9395,-3.8728,-3.8804,-3.888,-3.888,-3.8728,-3.8937,-3.9299,-3.9586,-3.9797,-4.0142,-4.0705,-4.1094,-4.1172,-4.1172,-4.1172,-4.1327,-4.237,-4.2139,-4.1327,-4.235,-4.2062,-4.1172,-4.1172,-4.1172,-4.1172,-4.1172,-4.1172,-4.1172,-4.1172,-4.1172,-4.1172,-4.1172,-4.1172,-4.1172,-4.1172,-4.1172,-4.1172,-4.1172,-4.1172,-4.1172,-4.1172,-4.1289,-4.1465,-4.1738,-4.2403,-4.3038,-4.3343,-4.3919,-4.4515,-4.502,-4.5989,-4.7118,-4.8163,-4.9198,-4.989,-4.989,-4.989,-4.989,-4.989,-4.989,-5.0104,-5.0696,-5.0696,-5.0696,-5.0696,-5.0175,-4.9365,-4.8308,-4.7777,-4.8018,-4.9054,-4.9054,-4.8939,-4.8589,-4.8589,-4.7742,0.0,0.0,0.0,0.0,0.0,0.0,0.0,0.0,0.0,0.0,0.0,0.0,0.0,0.0,0.0,0.0,0.0,-4.8561,-4.7466,-4.7805,-4.7121,-4.453,-4.4194,-4.3433,-4.1366,-4.1172,-4.1172,-4.1172,-4.1172,-4.0976,-4.047,-4.0431,-4.0064,-3.9259,-3.9145,-3.8994,-3.8614,-3.8994,-3.924,-3.924,-3.8842,-3.8861,-3.9203,-3.9222,-3.9239,-3.9335,-4.0142,-4.0724,-4.1133,-4.1152,-4.1172,-4.1172,-4.1172,-4.1172,-4.1172,-4.1172,-4.1172,-4.1172,-4.1172,-4.1172,-4.1172,-4.1172,-4.1172,-4.1172,-4.1172,-4.1172,-4.1172,-4.1172,-4.1172,-4.1172,-4.1172,-4.1172,-4.1172,-4.1172,-4.1172,-4.1172,-4.1172,-4.1504,-4.1797,-4.1797,-4.1797,-4.1777,-4.1797,-4.1445,-4.1695,-4.3248,-4.3456,-4.4666,-4.7777,-4.8236,-4.8236,-4.8308,-4.8308,-4.8308,-4.8381,-4.8381,-4.9054,-5.0554,-5.0625,-5.0625,-5.0554,-4.9054,-4.8236,-4.8236,-4.6677,-4.5841,-4.5841,-4.5862,-4.5915,-4.5893,-4.5819,-4.5505,-3.2233,0.0,0.0,0.0,0.0,0.0,0.0,0.0,0.0,0.0,0.0,0.0,0.0,0.0,0.0,0.0,0.0,0.0,-4.3432,-4.3275,-4.2742,-4.166,-4.1523,-4.1172,-4.0313,-4.0529,-4.0607,0.0,-4.0235,-4.0103,-3.9682,-3.8994,-3.8462,-3.7991,-3.7671,-3.7446,-3.7297,-3.7446,-3.752,-3.752,-3.7371,-3.739,-3.7538,-3.8119,-3.8459,-3.8477,-3.9258,-3.974,-3.9912,-4.0841,-4.1016,-4.0763,-4.1094,-4.0997,-4.0763,-4.1094,-4.1172,-4.1172,-4.1172,-4.1172,-4.1172,-4.1172,-4.1172,-4.1172,-4.1172,-4.0919,-4.0666,-4.0666,-4.0451,-4.0235,-4.0235,-4.0235,-4.0235,-4.0235,-4.0235,-4.0235,-4.0235,-4.054,-4.1084,-4.1639,-4.1562,-4.1445,-4.1758,-4.1445,-4.1327,-4.1773,-4.281,-4.3835,-4.472,-4.5841,-4.7045,-4.8163,-4.8308,-4.8766,-4.9961,-5.0033,-4.9723,-4.8982,-4.8982,-4.8453,-4.7265,-4.6824,-4.6603,-4.6603,-4.4945,-4.4138,-4.4138,-4.5319,-4.5666,-4.5265,-4.4156,-4.3329,-3.129,-3.1397,0.0,0.0,0.0,0.0,-3.5478,-3.6478,-3.7163,0.0,0.0,0.0,0.0,0.0,0.0,0.0,0.0,0.0,-4.1543,-4.1366,-4.1112,-4.0782,-4.0588,-4.0431,-4.0216,-4.0197,-4.0061,-3.9656,-3.9637,-3.9372,-3.8766,-3.7951,-3.7349,-3.6998,-3.666,-3.6382,-3.6017,-3.6403,-3.6551,-3.657,-3.6571,-3.6645,-3.6811,-3.7311,-3.7572,-3.759,-3.8459,-3.8803,-3.8861,-3.9798,-4.0183,-4.0259,-4.0569,-4.0608,-4.0588,-4.0997,-4.1172,-4.1172,-4.1172,-4.1172,-4.1172,-4.1172,-4.1172,-4.1172,-4.1172,-4.0841,-4.0509,-4.0509,-4.0197,-3.9902,-3.9902,-3.9902,-3.9902,-3.9902,-3.9902,-3.9902,-3.9902,-4.0091,-4.0477,-4.1125,-4.1208,-4.1268,-4.1521,-4.1367,-4.1172,-4.1172,-4.1985,-4.281,-4.34,-4.4193,-4.4998,-4.5989,-4.5915,-4.6211,-4.7096,-4.7169,-4.7169,-4.7023,-4.7681,-4.7389,-4.5915,-4.5915,-4.5543,-4.487,-4.3324,-4.2503,-4.2503,-4.3477,-4.3786,-4.3439,-4.2296,-4.1721,-3.1195,-3.1063,-3.1339,-3.2525,-3.1645,0.0,-3.4206,-3.3516,-3.2918,-3.5631,0.0,0.0,0.0,0.0,0.0,0.0,0.0,0.0,-4.0938,-4.0977,-4.0938,-4.0938,-4.0491,-4.0219,-4.0122,-3.9869,-3.9464,-3.9067,-3.8954,-3.8595,-3.7764,-3.6972,-3.6412,-3.6068,-3.6074,-3.5725,-3.5099,-3.5793,-3.6216,-3.6216,-3.6312,-3.6516,-3.6831,-3.6866,-3.6806,-3.6863,-3.759,-3.7968,-3.8006,-3.8292,-3.8956,-3.9817,-3.9894,-4.0144,-4.0588,-4.0997,-4.1172,-4.1172,-4.1172,-4.1094,-4.1094,-4.1094,-4.1094,-4.1094,-4.1094,-4.0763,-4.0353,-4.0275,-4.004,-3.9745,-3.9745,-3.9745,-3.9745,-3.9745,-3.9745,-3.9745,-3.9745,-3.9745,-3.9858,-4.0216,-4.0769,-4.1166,-4.1166,-4.1171,-4.1094,-4.1094,-4.1094,-4.154,-4.2943,-4.2769,-4.2673,-4.2826,-4.2519,-4.2366,-4.2519,-4.2596,-4.3263,-4.4827,-4.6315,-4.6559,-4.5319,-4.5244,-4.4645,-4.3151,-4.183,-4.1094,-4.1094,-4.1172,-4.1172,-4.1172,-4.0704,-4.0724,-3.1451,-3.1058,-3.0932,-3.1102,-3.0921,0.0,-3.1087,-3.1351,-3.1728,0.0,0.0,0.0,0.0,0.0,0.0,0.0,0.0,0.0,0.0,-3.9618,-3.9177,-3.9177,-3.8798,-3.8457,-3.8035,-3.7986,-3.7763,-3.7309,-3.6682,-3.6239,-3.6091,-3.5611,-3.5281,-3.5209,-3.5207,-3.5296,-3.551,-3.592,-3.6216,-3.6216,-3.6846,-3.7034,-3.6831,-3.7147,-3.7091,-3.6812,-3.6995,-3.7221,-3.7519,-3.6905,-3.7745,-3.9413,-3.9817,-4.0144,-4.0588,-4.0997,-4.1172,-4.1172,-4.0763,-4.0666,-4.0588,-4.0294,-4.0137,-4.0137,-4.0137,-3.9902,-3.943,-3.9114,-3.8877,-3.8877,-3.8877,-3.8877,-3.8877,-3.8877,-3.8877,-3.8877,-3.8877,-3.8877,-3.8914,-3.8988,-3.9858,-4.0801,-4.1133,-4.0899,-4.0666,-4.0666,-4.0372,-4.0294,-4.0588,-4.0509,-4.0958,-4.2309,-4.2386,-4.2826,-4.4096,-4.4527,-4.4172,-4.2978,-4.3491,-4.2978,-4.1113,-4.1404,-4.1424,-4.1113,-4.0821,-4.0451,-4.0137,-4.086,-4.1172,-4.1172,-4.0744,-4.051,-3.2078,-3.1819,-3.1699,-3.1626,-3.1359,0.0,0.0,-3.0997,-3.1159,-3.1759,0.0,0.0,0.0,0.0,0.0,0.0,0.0,0.0,0.0,-3.7709,-3.8047,-3.784,-3.7428,-3.7073,-3.683,-3.683,-3.6571,-3.5962,-3.5357,-3.5009,-3.5009,-3.4642,-3.4513,-3.4715,-3.4532,-3.4492,-3.4685,-3.5092,-3.5406,-3.5628,-3.6254,-3.6607,-3.6812,-3.6794,-3.6924,-3.7052,-3.6663,-3.6701,-3.7034,-3.6442,-3.7128,-3.8652,-3.9109,-3.9529,-4.0007,-4.0608,-4.0685,-4.0529,-4.0294,-4.0216,-4.0216,-3.9981,-3.9902,-3.9902,-3.9902,-3.9588,-3.9193,-3.8719,-3.856,-3.856,-3.856,-3.856,-3.856,-3.856,-3.856,-3.856,-3.856,-3.856,-3.864,-3.8877,-3.949,-3.9981,-4.0216,-4.0216,-4.0216,-4.0216,-4.0059,-3.9902,-3.9902,-3.9745,-3.9883,-4.0705,-4.0549,-4.0763,-4.1596,-4.1808,-4.1596,-4.0861,-4.1751,-4.1616,-3.9981,-4.088,-4.1035,-4.0216,-4.0216,-4.0137,-3.9902,-4.0294,-4.0548,-4.0548,-4.0294,-4.0216,-3.2625,-3.2716,-3.279,-3.2625,-3.2276,-3.192,0.0,0.0,0.0,0.0,0.0,0.0,0.0,0.0,0.0,0.0,0.0,0.0,0.0,-3.5246,0.0,-3.6293,-3.5874,-3.5603,-3.5678,-3.5538,-3.5155,-3.4605,-3.4183,-3.3982,-3.4055,-3.3743,-3.3725,-3.4037,-3.3817,-3.3707,-3.3707,-3.4165,-3.4605,-3.5045,-3.5503,-3.6128,-3.6812,-3.6442,-3.6664,-3.7255,-3.659,-3.6516,-3.6812,-3.6442,-3.6924,-3.7951,-3.8387,-3.8917,-3.9489,-4.0122,-4.0216,-3.9902,-3.9823,-3.9745,-3.9745,-3.9666,-3.9666,-3.9666,-3.9666,-3.943,-3.9114,-3.8719,-3.856,-3.856,-3.856,-3.856,-3.856,-3.856,-3.856,-3.856,-3.856,-3.856,-3.8719,-3.9114,-3.9193,-3.9193,-3.943,-3.9588,-3.9745,-3.9745,-3.9745,-3.9666,-3.9666,-3.9351,-3.9193,-3.9193,-3.8798,-3.856,-3.856,-3.8719,-3.8877,-3.9114,-4.0471,-4.0783,-3.9666,-4.0938,-4.1094,-3.9823,-3.9745,-3.9745,-3.9666,-3.9666,-3.9745,-3.9902,-3.9823,-3.9745,-3.2698,-3.312,-3.3505,-3.2771,-3.334,-3.3578,-3.1846,0.0,-3.157,-3.0604,0.0,0.0,0.0,0.0,0.0,0.0,0.0,0.0,-3.1341,-3.2012,-3.2998,-3.4029,-3.3445,-3.3151,-3.3537,-3.2881,-3.2588,-3.2845,-3.2496,-3.2441,-3.279,-3.2753,-3.2753,-3.279,-3.312,-3.3285,-3.3285,-3.4018,-3.4605,-3.5045,-3.5793,-3.6347,-3.6812,-3.6738,-3.6812,-3.6886,-3.6812,-3.6738,-3.6812,-3.6738,-3.6979,-3.748,-3.799,-3.8841,-3.9875,-3.9907,-3.9902,-3.9823,-3.9509,-3.9351,-3.9272,-3.8877,-3.8719,-3.8719,-3.8719,-3.8719,-3.864,-3.864,-3.856,-3.856,-3.856,-3.856,-3.856,-3.856,-3.856,-3.856,-3.856,-3.856,-3.864,-3.864,-3.8719,-3.8956,-3.9666,-3.9588,-3.9351,-3.9351,-3.9035,-3.8719,-3.8719,-3.8719,-3.8719,-3.8719,-3.864,-3.856,-3.856,-3.8956,-3.9035,-3.8719,-3.9254,-3.9333,-3.8798,-3.9333,-3.9569,-3.9351,-3.9351,-3.9193,-3.8719,-3.8719,-3.9114,-3.9902,-3.9509,-3.9351,-3.3413,-3.4055,-3.4605,-3.356,-3.3853,-3.4055,-3.2753,-3.2404,-3.2148,-3.1396,0.0,0.0,0.0,0.0,0.0,0.0,-3.0919,0.0,0.0,0.0,-3.0956,0.0,0.0,0.0,-3.2111,-3.1836,-3.1616,-3.1561,-3.1396,-3.1469,-3.1873,-3.1891,-3.2111,-3.2588,-3.2771,-3.2973,-3.323,-3.3541,-3.4037,-3.4678,-3.5226,-3.5719,-3.6104,-3.6368,-3.6589,-3.6824,-3.6553,-3.659,-3.6812,-3.659,-3.6664,-3.709,-3.7238,-3.7949,-3.8839,-3.9343,-3.9351,-3.9114,-3.8956,-3.8877,-3.8877,-3.864,-3.856,-3.856,-3.856,-3.856,-3.856,-3.856,-3.856,-3.856,-3.856,-3.856,-3.856,-3.856,-3.856,-3.856,-3.856,-3.856,-3.856,-3.856,-3.856,-3.8719,-3.9114,-3.9035,-3.8877,-3.8877,-3.8719,-3.856,-3.856,-3.856,-3.856,-3.856,-3.856,-3.856,-3.856,-3.8798,-3.8798,-3.864,-3.8798,-3.8798,-3.864,-3.8798,-3.8877,-3.8877,-3.8877,-3.8798,-3.856,-3.856,-3.8798,-3.9114,-3.8956,-3.8877,-3.3945,-3.477,-3.5467,-3.4147,-3.4202,-3.433,-3.3431,-3.3156,-3.2918,-3.2294,-3.2093,0.0,0.0,0.0,-3.0882,-3.0937,0.0,-3.0424,0.0,-2.9764,0.0,0.0,0.0,0.0,0.0,-3.0791,-3.0699,-3.0626,-3.0516,-3.0626,-3.1029,-3.1157,-3.1488,-3.2074,-3.2313,-3.2588,-3.2881,-3.312,-3.356,-3.4238,-3.466,-3.506,-3.5457,-3.587,-3.6183,-3.6506,-3.6405,-3.6442,-3.659,-3.6442,-3.6497,-3.6627,-3.6753,-3.7233,-3.7905,-3.8669,-3.8767,-3.856,-3.856,-3.856,-3.856,-3.856,-3.856,-3.856,-3.856,-3.856,-3.856,-3.856,-3.856,-3.856,-3.856,-3.856,-3.856,-3.856,-3.856,-3.856,-3.856,-3.856,-3.856,-3.856,-3.856,-3.856,-3.856,-3.856,-3.856,-3.856,-3.856,-3.856,-3.856,-3.856,-3.856,-3.856,-3.856,-3.856,-3.856,-3.856,-3.856,-3.856,-3.856,-3.856,-3.856,-3.856,-3.856,-3.856,-3.856,-3.856,-3.856,-3.856,-3.856,-3.856,-3.856,-3.856,-3.4037,-3.4972,-3.5815,-3.422,-3.4422,-3.4697,-3.3505,-3.3798,-3.4,-3.2826,-3.3193,-3.3486,-3.268,-3.2533,-3.2258,-3.1488,-3.1377,0.0,0.0,0.0,0.0,0.0,0.0,0.0,0.0,-2.9287,-2.9379,-3.0167,-2.9837,-2.98,-3.0222,-3.0607,-3.0827,-3.0846,-3.1616,-3.2038,-3.2038,-3.2826,-3.3431,-3.3835,-3.4238,-3.4642,-3.5045,-3.5449,-3.5632,-3.5705,-3.6478,-3.659,-3.6293,-3.6664,-3.659,-3.6256,-3.6677,-3.7081,-3.7466,-3.7888,-3.8291,-3.856,-3.856,-3.856,-3.856,-3.856,-3.856,-3.856,-3.856,-3.856,-3.856,-3.856,-3.856,-3.856,-3.856,-3.856,-3.856,-3.856,-3.856,-3.856,-3.856,-3.856,-3.856,-3.856,-3.856,-3.856,-3.856,-3.856,-3.856,-3.856,-3.856,-3.856,-3.856,-3.856,-3.856,-3.856,-3.856,-3.856,-3.856,-3.856,-3.856,-3.856,-3.856,-3.856,-3.856,-3.856,-3.856,-3.856,-3.856,-3.856,-3.856,-3.856,-3.856,-3.856,-3.856,-3.856,-3.554,-3.6384,-3.6952,-3.5082,-3.5229,-3.543,-3.3945,-3.4238,-3.4477,-3.3266,-3.3651,-3.3872,-3.279,-3.2588,-3.2423,-3.1873,-3.1561,-3.1066,0.0,0.0,0.0,0.0,0.0,0.0,0.0,0.0,-2.9104,-2.9379,-2.9269,-2.925,-2.9379,-2.9764,-3.0112,-3.0387,-3.0919,-3.1469,-3.2001,-3.2533,-3.301,-3.3431,-3.4092,-3.4348,-3.4257,-3.5192,-3.5467,-3.5265,-3.6073,-3.6367,-3.6201,-3.6367,-3.6275,-3.6219,-3.6366,-3.6824,-3.7466,-3.7869,-3.8273,-3.856,-3.856,-3.856,-3.856,-3.856,-3.856,-3.856,-3.856,-3.856,-3.856,-3.856,-3.856,-3.856,-3.856,-3.856,-3.856,-3.856,-3.856,-3.856,-3.856,-3.856,-3.856,-3.856,-3.856,-3.856,-3.856,-3.856,-3.856,-3.856,-3.856,-3.856,-3.856,-3.856,-3.856,-3.856,-3.856,-3.856,-3.856,-3.856,-3.856,-3.856,-3.856,-3.856,-3.856,-3.856,-3.856,-3.856,-3.856,-3.856,-3.856,-3.856,-3.856,-3.856,-3.856,-3.856,-3.6366,-3.6989,-3.7429,-3.5834,-3.5834,-3.5852,-3.455,-3.4862,-3.5155,-3.4092,-3.4275,-3.4385,-3.3615,-3.3101,-3.268,-3.2276,-3.1634,-3.0846,0.0,-2.9324,0.0,0.0,0.0,0.0,0.0,-2.8847,-2.8828,-2.8975,-2.8847,-2.8828,-2.8975,-2.936,-2.9764,-3.0185,-3.0589,-3.1102,-3.1781,-3.2331,-3.2735,-3.301,-3.3817,-3.4055,-3.3853,-3.4917,-3.5265,-3.5082,-3.587,-3.6201,-3.6201,-3.6201,-3.6201,-3.6219,-3.6384,-3.6842,-3.7448,-3.7704,-3.8163,-3.856,-3.856,-3.856,-3.856,-3.856,-3.856,-3.856,-3.856,-3.856,-3.856,-3.856,-3.856,-3.856,-3.856,-3.856,-3.856,-3.856,-3.856,-3.856,-3.856,-3.856,-3.856,-3.856,-3.856,-3.856,-3.856,-3.856,-3.856,-3.856,-3.856,-3.856,-3.856,-3.856,-3.856,-3.856,-3.856,-3.856,-3.856,-3.856,-3.856,-3.856,-3.856,-3.856,-3.856,-3.856,-3.8786,-3.9061,-3.8786,-3.8707,-3.9061,-3.8707,-3.856,-3.856,-3.856,-3.856]}]]